Wetterdaten: Sonntag, 11.01.2026
Datum Zeit Temp. I. Temp. A. Feuchte I. Feuchte A. Luftdruck Regen Wind Richtung Richtung Sonnenschein Solar Taupunkt Windchill Windböen
11.01.2026 00:00 22,3 °C -5,9 °C 45 % 85 % 1020,5 hPa 0,0 l/m² 11,5 km/h (2 Bft) NW 320 ° 0 min 0 W/m² -8,0 °C -11,4 °C 14,5 km/h (3 Bft)
11.01.2026 00:02 22,2 °C -5,9 °C 45 % 86 % 1020,5 hPa 0,0 l/m² 7,8 km/h (2 Bft) W-NW 298 ° 0 min 0 W/m² -7,9 °C -7,6 °C 14,5 km/h (3 Bft)
11.01.2026 00:04 22,3 °C -5,9 °C 45 % 86 % 1020,6 hPa 0,0 l/m² 8,6 km/h (2 Bft) W-NW 288 ° 0 min 0 W/m² -7,9 °C -8,5 °C 19,3 km/h (3 Bft)
11.01.2026 00:05 22,3 °C -5,9 °C 45 % 86 % 1020,6 hPa 0,0 l/m² 9,4 km/h (2 Bft) NW 321 ° 0 min 0 W/m² -7,9 °C -9,4 °C 16,1 km/h (3 Bft)
11.01.2026 00:07 22,3 °C -6,0 °C 45 % 86 % 1020,6 hPa 0,0 l/m² 6,7 km/h (2 Bft) NW 311 ° 0 min 0 W/m² -8,0 °C -6,3 °C 16,1 km/h (3 Bft)
11.01.2026 00:08 22,2 °C -6,1 °C 45 % 86 % 1020,6 hPa 0,0 l/m² 9,5 km/h (2 Bft) W-NW 294 ° 0 min 0 W/m² -8,0 °C -9,7 °C 16,1 km/h (3 Bft)
11.01.2026 00:09 22,3 °C -6,1 °C 45 % 86 % 1020,6 hPa 0,0 l/m² 7,6 km/h (2 Bft) NW 325 ° 0 min 0 W/m² -8,0 °C -7,6 °C 16,1 km/h (3 Bft)
11.01.2026 00:10 22,3 °C -6,0 °C 45 % 86 % 1020,6 hPa 0,0 l/m² 8,0 km/h (2 Bft) NW 321 ° 0 min 0 W/m² -8,0 °C -7,9 °C 11,3 km/h (2 Bft)
11.01.2026 00:12 22,2 °C -6,1 °C 45 % 86 % 1020,6 hPa 0,0 l/m² 10,6 km/h (2 Bft) NW 319 ° 0 min 0 W/m² -8,0 °C -10,8 °C 16,1 km/h (3 Bft)
11.01.2026 00:13 22,2 °C -6,1 °C 45 % 86 % 1020,6 hPa 0,0 l/m² 7,1 km/h (2 Bft) W-NW 301 ° 0 min 0 W/m² -8,0 °C -7,0 °C 11,3 km/h (2 Bft)
11.01.2026 00:15 22,2 °C -6,1 °C 45 % 86 % 1020,7 hPa 0,0 l/m² 6,9 km/h (2 Bft) NW 319 ° 0 min 0 W/m² -8,0 °C -6,7 °C 14,5 km/h (3 Bft)
11.01.2026 00:17 22,2 °C -6,1 °C 45 % 86 % 1020,6 hPa 0,0 l/m² 11,6 km/h (2 Bft) W-NW 302 ° 0 min 0 W/m² -8,0 °C -11,7 °C 19,3 km/h (3 Bft)
11.01.2026 00:19 22,2 °C -6,1 °C 45 % 86 % 1020,6 hPa 0,0 l/m² 10,2 km/h (2 Bft) NW 314 ° 0 min 0 W/m² -8,0 °C -10,4 °C 16,1 km/h (3 Bft)
11.01.2026 00:21 22,2 °C -6,1 °C 45 % 86 % 1020,7 hPa 0,0 l/m² 9,6 km/h (2 Bft) NW 324 ° 0 min 0 W/m² -8,0 °C -9,8 °C 16,1 km/h (3 Bft)
11.01.2026 00:22 22,2 °C -6,2 °C 45 % 86 % 1020,7 hPa 0,0 l/m² 10,5 km/h (2 Bft) NW 323 ° 0 min 0 W/m² -8,1 °C -10,8 °C 16,1 km/h (3 Bft)
11.01.2026 00:23 22,2 °C -6,1 °C 45 % 86 % 1020,7 hPa 0,0 l/m² 11,3 km/h (2 Bft) N-NW 329 ° 0 min 0 W/m² -8,0 °C -11,4 °C 14,5 km/h (3 Bft)
11.01.2026 00:25 22,2 °C -6,2 °C 45 % 86 % 1020,7 hPa 0,0 l/m² 8,1 km/h (2 Bft) NW 306 ° 0 min 0 W/m² -8,1 °C -8,3 °C 14,5 km/h (3 Bft)
11.01.2026 00:27 22,2 °C -6,2 °C 45 % 86 % 1020,7 hPa 0,0 l/m² 10,2 km/h (2 Bft) NW 307 ° 0 min 0 W/m² -8,1 °C -10,5 °C 17,7 km/h (3 Bft)
11.01.2026 00:29 22,2 °C -6,2 °C 45 % 86 % 1020,8 hPa 0,0 l/m² 10,3 km/h (2 Bft) NW 315 ° 0 min 0 W/m² -8,1 °C -10,6 °C 19,3 km/h (3 Bft)
11.01.2026 00:31 22,2 °C -6,2 °C 45 % 86 % 1020,7 hPa 0,0 l/m² 9,4 km/h (2 Bft) NW 304 ° 0 min 0 W/m² -8,1 °C -9,7 °C 14,5 km/h (3 Bft)
11.01.2026 00:32 22,2 °C -6,2 °C 45 % 86 % 1020,8 hPa 0,0 l/m² 8,2 km/h (2 Bft) NW 321 ° 0 min 0 W/m² -8,1 °C -8,4 °C 16,1 km/h (3 Bft)
11.01.2026 00:33 22,2 °C -6,2 °C 45 % 86 % 1020,8 hPa 0,0 l/m² 8,6 km/h (2 Bft) NW 324 ° 0 min 0 W/m² -8,1 °C -8,8 °C 12,9 km/h (3 Bft)
11.01.2026 00:35 22,2 °C -6,2 °C 45 % 86 % 1020,8 hPa 0,0 l/m² 4,1 km/h (1 Bft) NW 307 ° 0 min 0 W/m² -8,1 °C -6,2 °C 9,7 km/h (2 Bft)
11.01.2026 00:37 22,2 °C -6,2 °C 45 % 86 % 1020,8 hPa 0,0 l/m² 8,7 km/h (2 Bft) N-NW 342 ° 0 min 0 W/m² -8,1 °C -8,9 °C 14,5 km/h (3 Bft)
11.01.2026 00:39 22,2 °C -6,2 °C 45 % 86 % 1020,8 hPa 0,0 l/m² 9,7 km/h (2 Bft) NW 318 ° 0 min 0 W/m² -8,1 °C -10,0 °C 16,1 km/h (3 Bft)
11.01.2026 00:41 22,2 °C -6,3 °C 45 % 86 % 1020,8 hPa 0,0 l/m² 8,9 km/h (2 Bft) W-NW 300 ° 0 min 0 W/m² -8,2 °C -9,3 °C 14,5 km/h (3 Bft)
11.01.2026 00:42 22,2 °C -6,3 °C 45 % 86 % 1020,8 hPa 0,0 l/m² 5,2 km/h (1 Bft) W-NW 296 ° 0 min 0 W/m² -8,2 °C -6,3 °C 11,3 km/h (2 Bft)
11.01.2026 00:43 22,2 °C -6,3 °C 45 % 86 % 1020,8 hPa 0,0 l/m² 5,0 km/h (1 Bft) NW 325 ° 0 min 0 W/m² -8,2 °C -6,3 °C 8,0 km/h (2 Bft)
11.01.2026 00:46 22,2 °C -6,3 °C 45 % 86 % 1020,8 hPa 0,0 l/m² 6,8 km/h (2 Bft) NW 317 ° 0 min 0 W/m² -8,2 °C -6,8 °C 12,9 km/h (3 Bft)
11.01.2026 00:48 22,2 °C -6,3 °C 45 % 86 % 1020,9 hPa 0,0 l/m² 6,8 km/h (2 Bft) NW 319 ° 0 min 0 W/m² -8,2 °C -6,8 °C 16,1 km/h (3 Bft)
11.01.2026 00:50 22,2 °C -6,4 °C 45 % 86 % 1021,0 hPa 0,0 l/m² 7,9 km/h (2 Bft) NW 313 ° 0 min 0 W/m² -8,3 °C -8,2 °C 14,5 km/h (3 Bft)
11.01.2026 00:52 22,2 °C -6,4 °C 45 % 87 % 1021,0 hPa 0,0 l/m² 11,2 km/h (2 Bft) NW 321 ° 0 min 0 W/m² -8,2 °C -11,7 °C 17,7 km/h (3 Bft)
11.01.2026 00:53 22,2 °C -6,4 °C 45 % 87 % 1021,0 hPa 0,0 l/m² 10,4 km/h (2 Bft) NW 312 ° 0 min 0 W/m² -8,2 °C -10,9 °C 16,1 km/h (3 Bft)
11.01.2026 00:54 22,2 °C -6,4 °C 45 % 87 % 1021,0 hPa 0,0 l/m² 8,9 km/h (2 Bft) W-NW 302 ° 0 min 0 W/m² -8,2 °C -9,4 °C 14,5 km/h (3 Bft)
11.01.2026 00:56 22,2 °C -6,3 °C 45 % 87 % 1021,0 hPa 0,0 l/m² 7,8 km/h (2 Bft) NW 312 ° 0 min 0 W/m² -8,1 °C -8,0 °C 12,9 km/h (3 Bft)
11.01.2026 00:58 22,2 °C -6,4 °C 45 % 87 % 1021,1 hPa 0,0 l/m² 8,3 km/h (2 Bft) NW 314 ° 0 min 0 W/m² -8,2 °C -8,7 °C 17,7 km/h (3 Bft)
11.01.2026 01:00 22,2 °C -6,4 °C 45 % 87 % 1021,1 hPa 0,0 l/m² 8,2 km/h (2 Bft) NW 321 ° 0 min 0 W/m² -8,2 °C -8,6 °C 16,1 km/h (3 Bft)
11.01.2026 01:02 22,2 °C -6,4 °C 45 % 87 % 1021,2 hPa 0,0 l/m² 8,7 km/h (2 Bft) NW 304 ° 0 min 0 W/m² -8,2 °C -9,2 °C 14,5 km/h (3 Bft)
11.01.2026 01:04 22,2 °C -6,4 °C 45 % 87 % 1021,2 hPa 0,0 l/m² 8,2 km/h (2 Bft) W-NW 302 ° 0 min 0 W/m² -8,2 °C -8,6 °C 12,9 km/h (3 Bft)
11.01.2026 01:06 22,2 °C -6,4 °C 45 % 87 % 1021,3 hPa 0,0 l/m² 7,8 km/h (2 Bft) N-NW 338 ° 0 min 0 W/m² -8,2 °C -8,1 °C 14,5 km/h (3 Bft)
11.01.2026 01:08 22,2 °C -6,4 °C 45 % 87 % 1021,3 hPa 0,0 l/m² 7,3 km/h (2 Bft) NW 311 ° 0 min 0 W/m² -8,2 °C -7,5 °C 12,9 km/h (3 Bft)
11.01.2026 01:10 22,2 °C -6,4 °C 45 % 87 % 1021,3 hPa 0,0 l/m² 6,5 km/h (2 Bft) NW 321 ° 0 min 0 W/m² -8,2 °C -6,5 °C 14,5 km/h (3 Bft)
11.01.2026 01:12 22,2 °C -6,4 °C 45 % 87 % 1021,3 hPa 0,0 l/m² 6,8 km/h (2 Bft) NW 309 ° 0 min 0 W/m² -8,2 °C -6,9 °C 14,5 km/h (3 Bft)
11.01.2026 01:13 22,2 °C -6,4 °C 45 % 87 % 1021,3 hPa 0,0 l/m² 5,2 km/h (1 Bft) W-NW 294 ° 0 min 0 W/m² -8,2 °C -6,4 °C 8,0 km/h (2 Bft)
11.01.2026 01:14 22,2 °C -6,5 °C 45 % 87 % 1021,3 hPa 0,0 l/m² 6,1 km/h (2 Bft) NW 315 ° 0 min 0 W/m² -8,3 °C -6,5 °C 9,7 km/h (2 Bft)
11.01.2026 01:16 22,2 °C -6,5 °C 45 % 87 % 1021,4 hPa 0,0 l/m² 7,4 km/h (2 Bft) W-NW 294 ° 0 min 0 W/m² -8,3 °C -7,7 °C 16,1 km/h (3 Bft)
11.01.2026 01:18 22,2 °C -6,5 °C 45 % 87 % 1021,5 hPa 0,0 l/m² 5,7 km/h (2 Bft) W-NW 293 ° 0 min 0 W/m² -8,3 °C -6,5 °C 12,9 km/h (3 Bft)
11.01.2026 01:20 22,2 °C -6,6 °C 45 % 87 % 1021,4 hPa 0,0 l/m² 5,1 km/h (1 Bft) W-NW 297 ° 0 min 0 W/m² -8,4 °C -6,6 °C 11,3 km/h (2 Bft)
11.01.2026 01:22 22,2 °C -6,6 °C 45 % 87 % 1021,5 hPa 0,0 l/m² 4,3 km/h (1 Bft) W-NW 289 ° 0 min 0 W/m² -8,4 °C -6,6 °C 9,7 km/h (2 Bft)
11.01.2026 01:23 22,2 °C -6,6 °C 45 % 87 % 1021,5 hPa 0,0 l/m² 5,0 km/h (1 Bft) NW 313 ° 0 min 0 W/m² -8,4 °C -6,6 °C 11,3 km/h (2 Bft)
11.01.2026 01:24 22,2 °C -6,6 °C 45 % 87 % 1021,5 hPa 0,0 l/m² 4,5 km/h (1 Bft) W-NW 285 ° 0 min 0 W/m² -8,4 °C -6,6 °C 8,0 km/h (2 Bft)
11.01.2026 01:26 22,2 °C -6,7 °C 45 % 87 % 1021,6 hPa 0,0 l/m² 5,7 km/h (2 Bft) NW 317 ° 0 min 0 W/m² -8,5 °C -6,7 °C 8,0 km/h (2 Bft)
11.01.2026 01:28 22,2 °C -6,7 °C 45 % 87 % 1021,6 hPa 0,0 l/m² 5,8 km/h (2 Bft) NW 320 ° 0 min 0 W/m² -8,5 °C -6,7 °C 11,3 km/h (2 Bft)
11.01.2026 01:30 22,2 °C -6,8 °C 45 % 87 % 1021,6 hPa 0,0 l/m² 6,1 km/h (2 Bft) NW 310 ° 0 min 0 W/m² -8,6 °C -6,8 °C 12,9 km/h (3 Bft)
11.01.2026 01:32 22,2 °C -6,8 °C 45 % 87 % 1021,7 hPa 0,0 l/m² 4,7 km/h (1 Bft) NW 307 ° 0 min 0 W/m² -8,6 °C -6,8 °C 11,3 km/h (2 Bft)
11.01.2026 01:33 22,2 °C -6,9 °C 45 % 87 % 1021,6 hPa 0,0 l/m² 5,4 km/h (2 Bft) NW 321 ° 0 min 0 W/m² -8,7 °C -6,9 °C 8,0 km/h (2 Bft)
11.01.2026 01:34 22,2 °C -6,9 °C 45 % 87 % 1021,6 hPa 0,0 l/m² 3,2 km/h (1 Bft) NW 317 ° 0 min 0 W/m² -8,7 °C -6,9 °C 6,4 km/h (2 Bft)
11.01.2026 01:36 22,2 °C -7,0 °C 45 % 87 % 1021,7 hPa 0,0 l/m² 5,3 km/h (1 Bft) NW 309 ° 0 min 0 W/m² -8,8 °C -7,0 °C 12,9 km/h (3 Bft)
11.01.2026 01:38 22,2 °C -7,1 °C 45 % 87 % 1021,7 hPa 0,0 l/m² 8,6 km/h (2 Bft) NW 315 ° 0 min 0 W/m² -8,9 °C -9,8 °C 14,5 km/h (3 Bft)
11.01.2026 01:40 22,2 °C -7,0 °C 45 % 87 % 1021,7 hPa 0,0 l/m² 9,1 km/h (2 Bft) W-NW 300 ° 0 min 0 W/m² -8,8 °C -10,2 °C 16,1 km/h (3 Bft)
11.01.2026 01:42 22,2 °C -7,0 °C 45 % 87 % 1021,7 hPa 0,0 l/m² 7,9 km/h (2 Bft) NW 313 ° 0 min 0 W/m² -8,8 °C -8,9 °C 14,5 km/h (3 Bft)
11.01.2026 01:43 22,2 °C -7,0 °C 45 % 87 % 1021,8 hPa 0,0 l/m² 6,3 km/h (2 Bft) W-NW 302 ° 0 min 0 W/m² -8,8 °C -7,0 °C 9,7 km/h (2 Bft)
11.01.2026 01:44 22,2 °C -7,0 °C 45 % 87 % 1021,8 hPa 0,0 l/m² 4,0 km/h (1 Bft) W-NW 300 ° 0 min 0 W/m² -8,8 °C -7,0 °C 11,3 km/h (2 Bft)
11.01.2026 01:46 22,2 °C -6,9 °C 45 % 87 % 1021,7 hPa 0,0 l/m² 6,1 km/h (2 Bft) NW 318 ° 0 min 0 W/m² -8,7 °C -6,9 °C 16,1 km/h (3 Bft)
11.01.2026 01:48 22,2 °C -6,9 °C 45 % 87 % 1021,8 hPa 0,0 l/m² 5,2 km/h (1 Bft) NW 317 ° 0 min 0 W/m² -8,7 °C -6,9 °C 8,0 km/h (2 Bft)
11.01.2026 01:50 22,2 °C -6,9 °C 45 % 88 % 1021,8 hPa 0,0 l/m² 8,9 km/h (2 Bft) NW 305 ° 0 min 0 W/m² -8,5 °C -9,9 °C 16,1 km/h (3 Bft)
11.01.2026 01:52 22,2 °C -6,8 °C 45 % 88 % 1021,9 hPa 0,0 l/m² 7,9 km/h (2 Bft) W-NW 296 ° 0 min 0 W/m² -8,4 °C -8,7 °C 14,5 km/h (3 Bft)
11.01.2026 01:53 22,2 °C -6,8 °C 45 % 88 % 1021,8 hPa 0,0 l/m² 8,1 km/h (2 Bft) W-NW 303 ° 0 min 0 W/m² -8,4 °C -8,9 °C 12,9 km/h (3 Bft)
11.01.2026 01:54 22,2 °C -6,8 °C 45 % 88 % 1021,9 hPa 0,0 l/m² 7,8 km/h (2 Bft) W-NW 294 ° 0 min 0 W/m² -8,4 °C -8,5 °C 12,9 km/h (3 Bft)
11.01.2026 01:56 22,2 °C -6,8 °C 45 % 88 % 1021,9 hPa 0,0 l/m² 7,1 km/h (2 Bft) NW 325 ° 0 min 0 W/m² -8,4 °C -7,7 °C 14,5 km/h (3 Bft)
11.01.2026 01:58 22,2 °C -6,8 °C 45 % 88 % 1022,0 hPa 0,0 l/m² 8,7 km/h (2 Bft) NW 317 ° 0 min 0 W/m² -8,4 °C -9,6 °C 16,1 km/h (3 Bft)
11.01.2026 02:00 22,2 °C -6,8 °C 45 % 88 % 1022,0 hPa 0,0 l/m² 8,9 km/h (2 Bft) N-NW 333 ° 0 min 0 W/m² -8,4 °C -9,8 °C 16,1 km/h (3 Bft)
11.01.2026 02:02 22,2 °C -6,7 °C 45 % 88 % 1022,0 hPa 0,0 l/m² 9,0 km/h (2 Bft) NW 306 ° 0 min 0 W/m² -8,3 °C -9,8 °C 16,1 km/h (3 Bft)
11.01.2026 02:03 22,2 °C -6,7 °C 45 % 88 % 1022,0 hPa 0,0 l/m² 8,5 km/h (2 Bft) NW 317 ° 0 min 0 W/m² -8,3 °C -9,3 °C 12,9 km/h (3 Bft)
11.01.2026 02:05 22,2 °C -6,7 °C 45 % 88 % 1022,0 hPa 0,0 l/m² 9,4 km/h (2 Bft) NW 315 ° 0 min 0 W/m² -8,3 °C -10,2 °C 16,1 km/h (3 Bft)
11.01.2026 02:07 22,2 °C -6,7 °C 45 % 88 % 1022,1 hPa 0,0 l/m² 9,5 km/h (2 Bft) NW 312 ° 0 min 0 W/m² -8,3 °C -10,3 °C 16,1 km/h (3 Bft)
11.01.2026 02:09 22,2 °C -6,6 °C 45 % 88 % 1022,2 hPa 0,0 l/m² 8,5 km/h (2 Bft) NW 306 ° 0 min 0 W/m² -8,2 °C -9,2 °C 14,5 km/h (3 Bft)
11.01.2026 02:11 22,2 °C -6,6 °C 45 % 88 % 1022,3 hPa 0,0 l/m² 8,1 km/h (2 Bft) NW 306 ° 0 min 0 W/m² -8,2 °C -8,7 °C 16,1 km/h (3 Bft)
11.01.2026 02:12 22,2 °C -6,6 °C 45 % 88 % 1022,2 hPa 0,0 l/m² 7,7 km/h (2 Bft) NW 309 ° 0 min 0 W/m² -8,2 °C -8,2 °C 11,3 km/h (2 Bft)
11.01.2026 02:13 22,2 °C -6,6 °C 45 % 88 % 1022,2 hPa 0,0 l/m² 10,8 km/h (2 Bft) W-NW 285 ° 0 min 0 W/m² -8,2 °C -11,5 °C 16,1 km/h (3 Bft)
11.01.2026 02:15 22,2 °C -6,6 °C 45 % 88 % 1022,3 hPa 0,0 l/m² 10,4 km/h (2 Bft) W-NW 291 ° 0 min 0 W/m² -8,2 °C -11,1 °C 16,1 km/h (3 Bft)
11.01.2026 02:17 22,2 °C -6,6 °C 45 % 88 % 1022,4 hPa 0,0 l/m² 10,5 km/h (2 Bft) NW 313 ° 0 min 0 W/m² -8,2 °C -11,2 °C 17,7 km/h (3 Bft)
11.01.2026 02:19 22,2 °C -6,6 °C 45 % 88 % 1022,3 hPa 0,0 l/m² 7,4 km/h (2 Bft) NW 315 ° 0 min 0 W/m² -8,2 °C -7,9 °C 16,1 km/h (3 Bft)
11.01.2026 02:21 22,2 °C -6,5 °C 45 % 88 % 1022,4 hPa 0,0 l/m² 9,4 km/h (2 Bft) W-NW 292 ° 0 min 0 W/m² -8,1 °C -10,0 °C 17,7 km/h (3 Bft)
11.01.2026 02:22 22,2 °C -6,5 °C 45 % 88 % 1022,4 hPa 0,0 l/m² 10,5 km/h (2 Bft) NW 308 ° 0 min 0 W/m² -8,1 °C -11,1 °C 14,5 km/h (3 Bft)
11.01.2026 02:23 22,2 °C -6,5 °C 45 % 88 % 1022,4 hPa 0,0 l/m² 7,8 km/h (2 Bft) NW 316 ° 0 min 0 W/m² -8,1 °C -8,2 °C 12,9 km/h (3 Bft)
11.01.2026 02:25 22,2 °C -6,5 °C 45 % 88 % 1022,5 hPa 0,0 l/m² 10,9 km/h (2 Bft) NW 319 ° 0 min 0 W/m² -8,1 °C -11,5 °C 17,7 km/h (3 Bft)
11.01.2026 02:27 22,2 °C -6,5 °C 45 % 88 % 1022,5 hPa 0,0 l/m² 9,0 km/h (2 Bft) NW 305 ° 0 min 0 W/m² -8,1 °C -9,6 °C 16,1 km/h (3 Bft)
11.01.2026 02:29 22,2 °C -6,4 °C 45 % 88 % 1022,4 hPa 0,0 l/m² 10,2 km/h (2 Bft) NW 306 ° 0 min 0 W/m² -8,1 °C -10,7 °C 16,1 km/h (3 Bft)
11.01.2026 02:31 22,2 °C -6,4 °C 45 % 89 % 1022,5 hPa 0,0 l/m² 13,2 km/h (3 Bft) W-NW 285 ° 0 min 0 W/m² -7,9 °C -13,4 °C 20,9 km/h (4 Bft)
11.01.2026 02:32 22,2 °C -6,4 °C 45 % 89 % 1022,4 hPa 0,0 l/m² 13,5 km/h (3 Bft) N-NW 338 ° 0 min 0 W/m² -7,9 °C -13,6 °C 22,5 km/h (4 Bft)
11.01.2026 02:33 22,2 °C -6,4 °C 45 % 89 % 1022,5 hPa 0,0 l/m² 9,3 km/h (2 Bft) NW 323 ° 0 min 0 W/m² -7,9 °C -9,8 °C 14,5 km/h (3 Bft)
11.01.2026 02:35 22,2 °C -6,4 °C 45 % 89 % 1022,5 hPa 0,0 l/m² 10,5 km/h (2 Bft) W-NW 287 ° 0 min 0 W/m² -7,9 °C -11,0 °C 19,3 km/h (3 Bft)
11.01.2026 02:37 22,2 °C -6,3 °C 45 % 89 % 1022,5 hPa 0,0 l/m² 11,6 km/h (2 Bft) W-NW 300 ° 0 min 0 W/m² -7,8 °C -11,9 °C 17,7 km/h (3 Bft)
11.01.2026 02:39 22,2 °C -6,3 °C 45 % 89 % 1022,5 hPa 0,0 l/m² 12,1 km/h (2 Bft) N-NW 328 ° 0 min 0 W/m² -7,8 °C -12,3 °C 20,9 km/h (4 Bft)
11.01.2026 02:41 22,2 °C -6,3 °C 45 % 89 % 1022,5 hPa 0,0 l/m² 10,6 km/h (2 Bft) NW 311 ° 0 min 0 W/m² -7,8 °C -11,0 °C 17,7 km/h (3 Bft)
11.01.2026 02:42 22,2 °C -6,3 °C 45 % 89 % 1022,5 hPa 0,0 l/m² 9,8 km/h (2 Bft) NW 304 ° 0 min 0 W/m² -7,8 °C -10,2 °C 16,1 km/h (3 Bft)
11.01.2026 02:43 22,2 °C -6,3 °C 45 % 89 % 1022,6 hPa 0,0 l/m² 13,5 km/h (3 Bft) W-NW 294 ° 0 min 0 W/m² -7,8 °C -13,5 °C 19,3 km/h (3 Bft)
11.01.2026 02:45 22,2 °C -6,3 °C 45 % 89 % 1022,5 hPa 0,0 l/m² 12,1 km/h (2 Bft) W-NW 290 ° 0 min 0 W/m² -7,8 °C -12,3 °C 22,5 km/h (4 Bft)
11.01.2026 02:47 22,1 °C -6,2 °C 45 % 89 % 1022,6 hPa 0,0 l/m² 13,0 km/h (3 Bft) W-NW 297 ° 0 min 0 W/m² -7,7 °C -13,0 °C 19,3 km/h (3 Bft)
11.01.2026 02:49 22,1 °C -6,2 °C 45 % 89 % 1022,5 hPa 0,0 l/m² 11,9 km/h (2 Bft) NW 325 ° 0 min 0 W/m² -7,7 °C -12,1 °C 22,5 km/h (4 Bft)
11.01.2026 02:51 22,2 °C -6,2 °C 45 % 89 % 1022,5 hPa 0,0 l/m² 11,3 km/h (2 Bft) N-NW 329 ° 0 min 0 W/m² -7,7 °C -11,5 °C 19,3 km/h (3 Bft)
11.01.2026 02:52 22,2 °C -6,2 °C 45 % 89 % 1022,6 hPa 0,0 l/m² 10,5 km/h (2 Bft) W-NW 292 ° 0 min 0 W/m² -7,7 °C -10,8 °C 17,7 km/h (3 Bft)
11.01.2026 02:53 22,2 °C -6,2 °C 45 % 89 % 1022,5 hPa 0,0 l/m² 13,0 km/h (3 Bft) W-NW 284 ° 0 min 0 W/m² -7,7 °C -13,0 °C 17,7 km/h (3 Bft)
11.01.2026 02:55 22,2 °C -6,2 °C 45 % 89 % 1022,5 hPa 0,0 l/m² 10,4 km/h (2 Bft) N-NW 329 ° 0 min 0 W/m² -7,7 °C -10,7 °C 24,1 km/h (4 Bft)
11.01.2026 02:57 22,1 °C -6,2 °C 45 % 89 % 1022,5 hPa 0,0 l/m² 11,0 km/h (2 Bft) NW 307 ° 0 min 0 W/m² -7,7 °C -11,3 °C 17,7 km/h (3 Bft)
11.01.2026 02:59 22,1 °C -6,2 °C 45 % 89 % 1022,6 hPa 0,0 l/m² 13,4 km/h (3 Bft) NW 308 ° 0 min 0 W/m² -7,7 °C -13,3 °C 25,7 km/h (4 Bft)
11.01.2026 03:01 22,2 °C -6,2 °C 45 % 89 % 1022,6 hPa 0,0 l/m² 13,1 km/h (3 Bft) NW 319 ° 0 min 0 W/m² -7,7 °C -13,1 °C 20,9 km/h (4 Bft)
11.01.2026 03:02 22,2 °C -6,2 °C 45 % 89 % 1022,6 hPa 0,0 l/m² 11,9 km/h (2 Bft) W-NW 300 ° 0 min 0 W/m² -7,7 °C -12,1 °C 16,1 km/h (3 Bft)
11.01.2026 03:03 22,1 °C -6,2 °C 45 % 89 % 1022,6 hPa 0,0 l/m² 8,7 km/h (2 Bft) W-NW 288 ° 0 min 0 W/m² -7,7 °C -8,9 °C 14,5 km/h (3 Bft)
11.01.2026 03:05 22,1 °C -6,2 °C 45 % 89 % 1022,6 hPa 0,0 l/m² 9,4 km/h (2 Bft) W-NW 299 ° 0 min 0 W/m² -7,7 °C -9,7 °C 17,7 km/h (3 Bft)
11.01.2026 03:07 22,1 °C -6,2 °C 45 % 89 % 1022,6 hPa 0,0 l/m² 11,2 km/h (2 Bft) N-NW 338 ° 0 min 0 W/m² -7,7 °C -11,4 °C 19,3 km/h (3 Bft)
11.01.2026 03:09 22,1 °C -6,2 °C 45 % 89 % 1022,6 hPa 0,0 l/m² 9,5 km/h (2 Bft) NW 310 ° 0 min 0 W/m² -7,7 °C -9,8 °C 20,9 km/h (4 Bft)
11.01.2026 03:11 22,1 °C -6,2 °C 45 % 89 % 1022,8 hPa 0,0 l/m² 10,7 km/h (2 Bft) W-NW 296 ° 0 min 0 W/m² -7,7 °C -11,0 °C 19,3 km/h (3 Bft)
11.01.2026 03:12 22,1 °C -6,2 °C 45 % 89 % 1022,7 hPa 0,0 l/m² 9,6 km/h (2 Bft) NW 306 ° 0 min 0 W/m² -7,7 °C -9,9 °C 12,9 km/h (3 Bft)
11.01.2026 03:13 22,1 °C -6,2 °C 45 % 89 % 1022,8 hPa 0,0 l/m² 8,0 km/h (2 Bft) NW 323 ° 0 min 0 W/m² -7,7 °C -8,2 °C 14,5 km/h (3 Bft)
11.01.2026 03:15 22,1 °C -6,3 °C 45 % 89 % 1022,7 hPa 0,0 l/m² 13,7 km/h (3 Bft) NW 315 ° 0 min 0 W/m² -7,8 °C -13,6 °C 19,3 km/h (3 Bft)
11.01.2026 03:17 22,1 °C -6,2 °C 45 % 89 % 1022,7 hPa 0,0 l/m² 10,0 km/h (2 Bft) NW 326 ° 0 min 0 W/m² -7,7 °C -10,3 °C 17,7 km/h (3 Bft)
11.01.2026 03:19 22,1 °C -6,3 °C 45 % 89 % 1022,8 hPa 0,0 l/m² 10,0 km/h (2 Bft) NW 315 ° 0 min 0 W/m² -7,8 °C -10,4 °C 17,7 km/h (3 Bft)
11.01.2026 03:21 22,1 °C -6,3 °C 45 % 89 % 1022,8 hPa 0,0 l/m² 12,1 km/h (2 Bft) NW 317 ° 0 min 0 W/m² -7,8 °C -12,3 °C 17,7 km/h (3 Bft)
11.01.2026 03:22 22,2 °C -6,3 °C 45 % 89 % 1022,8 hPa 0,0 l/m² 9,8 km/h (2 Bft) W-NW 291 ° 0 min 0 W/m² -7,8 °C -10,2 °C 16,1 km/h (3 Bft)
11.01.2026 03:23 22,1 °C -6,3 °C 45 % 89 % 1022,8 hPa 0,0 l/m² 11,8 km/h (2 Bft) W 279 ° 0 min 0 W/m² -7,8 °C -12,1 °C 19,3 km/h (3 Bft)
11.01.2026 03:25 22,1 °C -6,3 °C 45 % 89 % 1022,8 hPa 0,0 l/m² 12,4 km/h (2 Bft) W-NW 303 ° 0 min 0 W/m² -7,8 °C -12,6 °C 19,3 km/h (3 Bft)
11.01.2026 03:27 22,1 °C -6,3 °C 45 % 89 % 1022,9 hPa 0,0 l/m² 9,7 km/h (2 Bft) NW 322 ° 0 min 0 W/m² -7,8 °C -10,1 °C 19,3 km/h (3 Bft)
11.01.2026 03:29 22,1 °C -6,3 °C 45 % 89 % 1022,9 hPa 0,0 l/m² 12,6 km/h (3 Bft) NW 311 ° 0 min 0 W/m² -7,8 °C -12,8 °C 19,3 km/h (3 Bft)
11.01.2026 03:31 22,1 °C -6,3 °C 45 % 89 % 1022,9 hPa 0,0 l/m² 9,3 km/h (2 Bft) W-NW 301 ° 0 min 0 W/m² -7,8 °C -9,7 °C 16,1 km/h (3 Bft)
11.01.2026 03:32 22,2 °C -6,3 °C 45 % 89 % 1022,9 hPa 0,0 l/m² 13,0 km/h (3 Bft) N-NW 340 ° 0 min 0 W/m² -7,8 °C -13,1 °C 16,1 km/h (3 Bft)
11.01.2026 03:33 22,1 °C -6,3 °C 45 % 89 % 1023,0 hPa 0,0 l/m² 14,6 km/h (3 Bft) W-NW 294 ° 0 min 0 W/m² -7,8 °C -14,3 °C 19,3 km/h (3 Bft)
11.01.2026 03:35 22,2 °C -6,3 °C 45 % 89 % 1022,9 hPa 0,0 l/m² 12,8 km/h (3 Bft) NW 323 ° 0 min 0 W/m² -7,8 °C -12,9 °C 19,3 km/h (3 Bft)
11.01.2026 03:37 22,2 °C -6,3 °C 45 % 89 % 1022,9 hPa 0,0 l/m² 12,0 km/h (2 Bft) NW 314 ° 0 min 0 W/m² -7,8 °C -12,3 °C 17,7 km/h (3 Bft)
11.01.2026 03:39 22,1 °C -6,3 °C 45 % 89 % 1022,8 hPa 0,0 l/m² 11,0 km/h (2 Bft) NW 309 ° 0 min 0 W/m² -7,8 °C -11,4 °C 17,7 km/h (3 Bft)
11.01.2026 03:41 22,1 °C -6,3 °C 45 % 89 % 1022,8 hPa 0,0 l/m² 10,5 km/h (2 Bft) NW 306 ° 0 min 0 W/m² -7,8 °C -10,9 °C 16,1 km/h (3 Bft)
11.01.2026 03:42 22,2 °C -6,3 °C 45 % 89 % 1022,8 hPa 0,0 l/m² 10,5 km/h (2 Bft) W-NW 296 ° 0 min 0 W/m² -7,8 °C -10,9 °C 17,7 km/h (3 Bft)
11.01.2026 03:43 22,2 °C -6,3 °C 45 % 89 % 1023,0 hPa 0,0 l/m² 13,8 km/h (3 Bft) NW 304 ° 0 min 0 W/m² -7,8 °C -13,7 °C 19,3 km/h (3 Bft)
11.01.2026 03:45 22,2 °C -6,3 °C 45 % 89 % 1022,9 hPa 0,0 l/m² 11,4 km/h (2 Bft) NW 326 ° 0 min 0 W/m² -7,8 °C -11,7 °C 16,1 km/h (3 Bft)
11.01.2026 03:48 22,2 °C -6,3 °C 45 % 89 % 1023,0 hPa 0,0 l/m² 12,9 km/h (3 Bft) NW 317 ° 0 min 0 W/m² -7,8 °C -13,0 °C 19,3 km/h (3 Bft)
11.01.2026 03:50 22,2 °C -6,3 °C 45 % 89 % 1022,9 hPa 0,0 l/m² 10,3 km/h (2 Bft) NW 311 ° 0 min 0 W/m² -7,8 °C -10,7 °C 19,3 km/h (3 Bft)
11.01.2026 03:52 22,2 °C -6,3 °C 45 % 89 % 1022,9 hPa 0,0 l/m² 10,6 km/h (2 Bft) NW 325 ° 0 min 0 W/m² -7,8 °C -11,0 °C 16,1 km/h (3 Bft)
11.01.2026 03:53 22,2 °C -6,3 °C 45 % 89 % 1022,9 hPa 0,0 l/m² 7,2 km/h (2 Bft) NW 316 ° 0 min 0 W/m² -7,8 °C -7,3 °C 9,7 km/h (2 Bft)
11.01.2026 03:54 22,2 °C -6,3 °C 45 % 89 % 1022,9 hPa 0,0 l/m² 11,3 km/h (2 Bft) NW 318 ° 0 min 0 W/m² -7,8 °C -11,6 °C 16,1 km/h (3 Bft)
11.01.2026 03:56 22,2 °C -6,4 °C 45 % 89 % 1022,8 hPa 0,0 l/m² 10,4 km/h (2 Bft) W-NW 302 ° 0 min 0 W/m² -7,9 °C -10,9 °C 16,1 km/h (3 Bft)
11.01.2026 03:58 22,2 °C -6,4 °C 45 % 89 % 1023,0 hPa 0,0 l/m² 7,7 km/h (2 Bft) W-NW 302 ° 0 min 0 W/m² -7,9 °C -8,0 °C 14,5 km/h (3 Bft)
11.01.2026 04:00 22,2 °C -6,4 °C 45 % 89 % 1023,0 hPa 0,0 l/m² 8,8 km/h (2 Bft) NW 311 ° 0 min 0 W/m² -7,9 °C -9,3 °C 16,1 km/h (3 Bft)
11.01.2026 04:02 22,2 °C -6,4 °C 45 % 89 % 1023,0 hPa 0,0 l/m² 8,8 km/h (2 Bft) W 270 ° 0 min 0 W/m² -7,9 °C -9,3 °C 16,1 km/h (3 Bft)
11.01.2026 04:03 22,2 °C -6,4 °C 45 % 89 % 1023,1 hPa 0,0 l/m² 10,3 km/h (2 Bft) NW 321 ° 0 min 0 W/m² -7,9 °C -10,8 °C 17,7 km/h (3 Bft)
11.01.2026 04:05 22,2 °C -6,4 °C 45 % 90 % 1023,0 hPa 0,0 l/m² 11,3 km/h (2 Bft) NW 309 ° 0 min 0 W/m² -7,8 °C -11,8 °C 16,1 km/h (3 Bft)
11.01.2026 04:07 22,2 °C -6,4 °C 45 % 90 % 1023,0 hPa 0,0 l/m² 9,1 km/h (2 Bft) W-NW 298 ° 0 min 0 W/m² -7,8 °C -9,6 °C 19,3 km/h (3 Bft)
11.01.2026 04:09 22,2 °C -6,4 °C 45 % 90 % 1023,0 hPa 0,0 l/m² 8,0 km/h (2 Bft) W-NW 297 ° 0 min 0 W/m² -7,8 °C -8,4 °C 16,1 km/h (3 Bft)
11.01.2026 04:11 22,2 °C -6,4 °C 45 % 90 % 1023,2 hPa 0,0 l/m² 6,2 km/h (2 Bft) N-NW 335 ° 0 min 0 W/m² -7,8 °C -6,4 °C 12,9 km/h (3 Bft)
11.01.2026 04:13 22,2 °C -6,4 °C 45 % 90 % 1023,1 hPa 0,0 l/m² 8,1 km/h (2 Bft) W-NW 292 ° 0 min 0 W/m² -7,8 °C -8,5 °C 14,5 km/h (3 Bft)
11.01.2026 04:15 22,2 °C -6,3 °C 45 % 90 % 1023,2 hPa 0,0 l/m² 9,5 km/h (2 Bft) W-NW 300 ° 0 min 0 W/m² -7,7 °C -9,9 °C 16,1 km/h (3 Bft)
11.01.2026 04:17 22,2 °C -6,3 °C 45 % 90 % 1023,2 hPa 0,0 l/m² 7,8 km/h (2 Bft) W 279 ° 0 min 0 W/m² -7,7 °C -8,0 °C 12,9 km/h (3 Bft)
11.01.2026 04:19 22,2 °C -6,3 °C 45 % 90 % 1023,2 hPa 0,0 l/m² 8,0 km/h (2 Bft) W 272 ° 0 min 0 W/m² -7,7 °C -8,3 °C 14,5 km/h (3 Bft)
11.01.2026 04:21 22,2 °C -6,3 °C 45 % 90 % 1023,2 hPa 0,0 l/m² 6,3 km/h (2 Bft) NW 310 ° 0 min 0 W/m² -7,7 °C -6,3 °C 11,3 km/h (2 Bft)
11.01.2026 04:23 22,2 °C -6,3 °C 45 % 90 % 1023,3 hPa 0,0 l/m² 5,5 km/h (2 Bft) W-NW 297 ° 0 min 0 W/m² -7,7 °C -6,3 °C 12,9 km/h (3 Bft)
11.01.2026 04:25 22,2 °C -6,3 °C 45 % 90 % 1023,2 hPa 0,0 l/m² 6,1 km/h (2 Bft) NW 308 ° 0 min 0 W/m² -7,7 °C -6,3 °C 16,1 km/h (3 Bft)
11.01.2026 04:27 22,2 °C -6,3 °C 45 % 90 % 1023,3 hPa 0,0 l/m² 6,5 km/h (2 Bft) W 271 ° 0 min 0 W/m² -7,7 °C -6,4 °C 11,3 km/h (2 Bft)
11.01.2026 04:29 22,2 °C -6,3 °C 45 % 90 % 1023,3 hPa 0,0 l/m² 6,3 km/h (2 Bft) W 265 ° 0 min 0 W/m² -7,7 °C -6,3 °C 12,9 km/h (3 Bft)
11.01.2026 04:31 22,2 °C -6,3 °C 45 % 90 % 1023,4 hPa 0,0 l/m² 8,9 km/h (2 Bft) W 273 ° 0 min 0 W/m² -7,7 °C -9,3 °C 16,1 km/h (3 Bft)
11.01.2026 04:33 22,2 °C -6,3 °C 45 % 90 % 1023,3 hPa 0,0 l/m² 8,7 km/h (2 Bft) W-NW 283 ° 0 min 0 W/m² -7,7 °C -9,1 °C 14,5 km/h (3 Bft)
11.01.2026 04:35 22,2 °C -6,4 °C 45 % 89 % 1023,3 hPa 0,0 l/m² 6,1 km/h (2 Bft) W 278 ° 0 min 0 W/m² -7,9 °C -6,4 °C 11,3 km/h (2 Bft)
11.01.2026 04:37 22,2 °C -6,4 °C 45 % 89 % 1023,4 hPa 0,0 l/m² 5,9 km/h (2 Bft) W 281 ° 0 min 0 W/m² -7,9 °C -6,4 °C 12,9 km/h (3 Bft)
11.01.2026 04:39 22,2 °C -6,5 °C 45 % 89 % 1023,4 hPa 0,0 l/m² 5,5 km/h (2 Bft) W 273 ° 0 min 0 W/m² -8,0 °C -6,5 °C 12,9 km/h (3 Bft)
11.01.2026 04:41 22,2 °C -6,6 °C 45 % 89 % 1023,4 hPa 0,0 l/m² 4,4 km/h (1 Bft) W 280 ° 0 min 0 W/m² -8,1 °C -6,6 °C 12,9 km/h (3 Bft)
11.01.2026 04:43 22,2 °C -6,8 °C 45 % 89 % 1023,5 hPa 0,0 l/m² 5,0 km/h (1 Bft) W-NW 293 ° 0 min 0 W/m² -8,3 °C -6,8 °C 6,4 km/h (2 Bft)
11.01.2026 04:45 22,2 °C -7,2 °C 45 % 88 % 1023,5 hPa 0,0 l/m² 3,8 km/h (1 Bft) W 269 ° 0 min 0 W/m² -8,8 °C -7,2 °C 6,4 km/h (2 Bft)
11.01.2026 04:47 22,2 °C -7,4 °C 45 % 88 % 1023,4 hPa 0,0 l/m² 4,5 km/h (1 Bft) W 271 ° 0 min 0 W/m² -9,0 °C -7,4 °C 6,4 km/h (2 Bft)
11.01.2026 04:49 22,2 °C -7,7 °C 45 % 88 % 1023,5 hPa 0,0 l/m² 4,0 km/h (1 Bft) W 275 ° 0 min 0 W/m² -9,3 °C -7,7 °C 6,4 km/h (2 Bft)
11.01.2026 04:51 22,2 °C -7,8 °C 45 % 88 % 1023,5 hPa 0,0 l/m² 3,9 km/h (1 Bft) W-SW 250 ° 0 min 0 W/m² -9,4 °C -7,8 °C 4,8 km/h (1 Bft)
11.01.2026 04:53 22,2 °C -8,1 °C 45 % 88 % 1023,5 hPa 0,0 l/m² 4,3 km/h (1 Bft) W-SW 249 ° 0 min 0 W/m² -9,7 °C -8,1 °C 6,4 km/h (2 Bft)
11.01.2026 04:55 22,2 °C -8,2 °C 45 % 88 % 1023,5 hPa 0,0 l/m² 4,0 km/h (1 Bft) W-SW 249 ° 0 min 0 W/m² -9,8 °C -8,2 °C 6,4 km/h (2 Bft)
11.01.2026 04:57 22,2 °C -8,3 °C 45 % 88 % 1023,5 hPa 0,0 l/m² 4,7 km/h (1 Bft) W-SW 250 ° 0 min 0 W/m² -9,9 °C -8,3 °C 6,4 km/h (2 Bft)
11.01.2026 04:59 22,2 °C -8,4 °C 45 % 88 % 1023,5 hPa 0,0 l/m² 5,5 km/h (2 Bft) W-SW 254 ° 0 min 0 W/m² -10,0 °C -8,4 °C 8,0 km/h (2 Bft)
11.01.2026 05:01 22,2 °C -8,5 °C 45 % 88 % 1023,6 hPa 0,0 l/m² 5,1 km/h (1 Bft) W-SW 258 ° 0 min 0 W/m² -10,1 °C -8,5 °C 6,4 km/h (2 Bft)
11.01.2026 05:03 22,2 °C -8,6 °C 45 % 88 % 1023,6 hPa 0,0 l/m² 3,4 km/h (1 Bft) W 259 ° 0 min 0 W/m² -10,2 °C -8,6 °C 4,8 km/h (1 Bft)
11.01.2026 05:05 22,2 °C -8,6 °C 45 % 88 % 1023,5 hPa 0,0 l/m² 3,4 km/h (1 Bft) W 259 ° 0 min 0 W/m² -10,2 °C -8,6 °C 4,8 km/h (1 Bft)
11.01.2026 05:07 22,2 °C -8,7 °C 45 % 88 % 1023,5 hPa 0,0 l/m² 3,3 km/h (1 Bft) W 259 ° 0 min 0 W/m² -10,3 °C -8,7 °C 4,8 km/h (1 Bft)
11.01.2026 05:09 22,2 °C -8,7 °C 45 % 88 % 1023,4 hPa 0,0 l/m² 3,0 km/h (1 Bft) W 259 ° 0 min 0 W/m² -10,3 °C -8,7 °C 4,8 km/h (1 Bft)
11.01.2026 05:11 22,2 °C -8,7 °C 45 % 88 % 1023,6 hPa 0,0 l/m² 3,3 km/h (1 Bft) W 262 ° 0 min 0 W/m² -10,3 °C -8,7 °C 6,4 km/h (2 Bft)
11.01.2026 05:13 22,2 °C -8,7 °C 45 % 88 % 1023,6 hPa 0,0 l/m² 3,2 km/h (1 Bft) W 262 ° 0 min 0 W/m² -10,3 °C -8,7 °C 4,8 km/h (1 Bft)
11.01.2026 05:15 22,2 °C -8,8 °C 45 % 89 % 1023,6 hPa 0,0 l/m² 3,6 km/h (1 Bft) W 262 ° 0 min 0 W/m² -10,3 °C -8,8 °C 6,4 km/h (2 Bft)
11.01.2026 05:17 22,2 °C -8,8 °C 45 % 89 % 1023,7 hPa 0,0 l/m² 4,2 km/h (1 Bft) W 268 ° 0 min 0 W/m² -10,3 °C -8,8 °C 6,4 km/h (2 Bft)
11.01.2026 05:19 22,2 °C -8,8 °C 45 % 89 % 1023,6 hPa 0,0 l/m² 5,5 km/h (2 Bft) W 267 ° 0 min 0 W/m² -10,3 °C -8,8 °C 11,3 km/h (2 Bft)
11.01.2026 05:21 22,2 °C -8,8 °C 45 % 89 % 1023,7 hPa 0,0 l/m² 7,8 km/h (2 Bft) W 259 ° 0 min 0 W/m² -10,3 °C -10,6 °C 11,3 km/h (2 Bft)
11.01.2026 05:23 22,2 °C -8,8 °C 45 % 89 % 1023,7 hPa 0,0 l/m² 8,9 km/h (2 Bft) W 267 ° 0 min 0 W/m² -10,3 °C -12,0 °C 12,9 km/h (3 Bft)
11.01.2026 05:25 22,2 °C -8,8 °C 45 % 89 % 1023,7 hPa 0,0 l/m² 8,4 km/h (2 Bft) W 265 ° 0 min 0 W/m² -10,3 °C -11,4 °C 12,9 km/h (3 Bft)
11.01.2026 05:27 22,2 °C -8,8 °C 45 % 89 % 1023,7 hPa 0,0 l/m² 8,3 km/h (2 Bft) W 261 ° 0 min 0 W/m² -10,3 °C -11,3 °C 12,9 km/h (3 Bft)
11.01.2026 05:29 22,2 °C -8,8 °C 45 % 89 % 1023,7 hPa 0,0 l/m² 10,0 km/h (2 Bft) W-SW 255 ° 0 min 0 W/m² -10,3 °C -13,2 °C 12,9 km/h (3 Bft)
11.01.2026 05:31 22,2 °C -8,8 °C 45 % 89 % 1023,7 hPa 0,0 l/m² 11,3 km/h (2 Bft) W-SW 252 ° 0 min 0 W/m² -10,3 °C -14,5 °C 14,5 km/h (3 Bft)
11.01.2026 05:33 22,2 °C -8,8 °C 45 % 89 % 1023,8 hPa 0,0 l/m² 11,1 km/h (2 Bft) W 259 ° 0 min 0 W/m² -10,3 °C -14,3 °C 14,5 km/h (3 Bft)
11.01.2026 05:35 22,2 °C -8,8 °C 45 % 89 % 1023,8 hPa 0,0 l/m² 6,7 km/h (2 Bft) W-SW 251 ° 0 min 0 W/m² -10,3 °C -9,2 °C 11,3 km/h (2 Bft)
11.01.2026 05:37 22,2 °C -8,8 °C 45 % 89 % 1023,8 hPa 0,0 l/m² 11,2 km/h (2 Bft) W-SW 251 ° 0 min 0 W/m² -10,3 °C -14,4 °C 14,5 km/h (3 Bft)
11.01.2026 05:39 22,2 °C -8,8 °C 45 % 89 % 1023,8 hPa 0,0 l/m² 8,3 km/h (2 Bft) W-SW 253 ° 0 min 0 W/m² -10,3 °C -11,3 °C 12,9 km/h (3 Bft)
11.01.2026 05:41 22,2 °C -8,7 °C 45 % 89 % 1023,8 hPa 0,0 l/m² 9,2 km/h (2 Bft) W-SW 252 ° 0 min 0 W/m² -10,2 °C -12,2 °C 12,9 km/h (3 Bft)
11.01.2026 05:43 22,2 °C -8,7 °C 45 % 89 % 1023,8 hPa 0,0 l/m² 7,9 km/h (2 Bft) W 275 ° 0 min 0 W/m² -10,2 °C -10,7 °C 11,3 km/h (2 Bft)
11.01.2026 05:45 22,2 °C -8,7 °C 45 % 89 % 1023,8 hPa 0,0 l/m² 5,6 km/h (2 Bft) W-SW 254 ° 0 min 0 W/m² -10,2 °C -8,7 °C 11,3 km/h (2 Bft)
11.01.2026 05:47 22,1 °C -8,6 °C 45 % 89 % 1023,7 hPa 0,0 l/m² 6,1 km/h (2 Bft) W 267 ° 0 min 0 W/m² -10,1 °C -8,6 °C 12,9 km/h (3 Bft)
11.01.2026 05:49 22,2 °C -8,6 °C 45 % 89 % 1023,8 hPa 0,0 l/m² 6,4 km/h (2 Bft) W 265 ° 0 min 0 W/m² -10,1 °C -8,5 °C 11,3 km/h (2 Bft)
11.01.2026 05:51 22,2 °C -8,6 °C 45 % 89 % 1023,6 hPa 0,0 l/m² 6,7 km/h (2 Bft) W 269 ° 0 min 0 W/m² -10,1 °C -9,0 °C 9,7 km/h (2 Bft)
11.01.2026 05:53 22,2 °C -8,7 °C 45 % 89 % 1023,8 hPa 0,0 l/m² 6,6 km/h (2 Bft) W 273 ° 0 min 0 W/m² -10,2 °C -8,9 °C 9,7 km/h (2 Bft)
11.01.2026 05:55 22,2 °C -8,7 °C 45 % 89 % 1023,6 hPa 0,0 l/m² 7,2 km/h (2 Bft) W 281 ° 0 min 0 W/m² -10,2 °C -9,8 °C 9,7 km/h (2 Bft)
11.01.2026 05:57 22,1 °C -8,8 °C 45 % 89 % 1023,6 hPa 0,0 l/m² 8,8 km/h (2 Bft) W 273 ° 0 min 0 W/m² -10,3 °C -11,8 °C 11,3 km/h (2 Bft)
11.01.2026 05:59 22,2 °C -8,8 °C 45 % 89 % 1023,6 hPa 0,0 l/m² 8,1 km/h (2 Bft) W 281 ° 0 min 0 W/m² -10,3 °C -11,0 °C 11,3 km/h (2 Bft)
11.01.2026 06:01 22,2 °C -8,9 °C 45 % 89 % 1023,7 hPa 0,0 l/m² 7,9 km/h (2 Bft) W 273 ° 0 min 0 W/m² -10,4 °C -10,9 °C 11,3 km/h (2 Bft)
11.01.2026 06:03 22,1 °C -9,0 °C 45 % 89 % 1023,6 hPa 0,0 l/m² 6,9 km/h (2 Bft) W 273 ° 0 min 0 W/m² -10,5 °C -9,7 °C 9,7 km/h (2 Bft)
11.01.2026 06:04 22,2 °C -9,0 °C 45 % 89 % 1023,6 hPa 0,0 l/m² 6,7 km/h (2 Bft) W 275 ° 0 min 0 W/m² -10,5 °C -9,4 °C 9,7 km/h (2 Bft)
11.01.2026 06:05 22,1 °C -9,1 °C 45 % 89 % 1023,7 hPa 0,0 l/m² 6,7 km/h (2 Bft) W-NW 285 ° 0 min 0 W/m² -10,6 °C -9,5 °C 9,7 km/h (2 Bft)
11.01.2026 06:07 22,2 °C -9,1 °C 45 % 89 % 1023,6 hPa 0,0 l/m² 8,1 km/h (2 Bft) W 279 ° 0 min 0 W/m² -10,6 °C -11,3 °C 11,3 km/h (2 Bft)
11.01.2026 06:09 22,1 °C -9,1 °C 45 % 89 % 1023,7 hPa 0,0 l/m² 7,3 km/h (2 Bft) W 280 ° 0 min 0 W/m² -10,6 °C -10,3 °C 11,3 km/h (2 Bft)
11.01.2026 06:11 22,1 °C -9,1 °C 45 % 89 % 1023,6 hPa 0,0 l/m² 8,1 km/h (2 Bft) W 273 ° 0 min 0 W/m² -10,6 °C -11,3 °C 11,3 km/h (2 Bft)
11.01.2026 06:13 22,1 °C -9,1 °C 45 % 89 % 1023,7 hPa 0,0 l/m² 5,9 km/h (2 Bft) W 272 ° 0 min 0 W/m² -10,6 °C -9,1 °C 9,7 km/h (2 Bft)
11.01.2026 06:15 22,1 °C -9,1 °C 45 % 89 % 1023,7 hPa 0,0 l/m² 6,8 km/h (2 Bft) W 271 ° 0 min 0 W/m² -10,6 °C -9,6 °C 9,7 km/h (2 Bft)
11.01.2026 06:17 22,1 °C -9,2 °C 45 % 89 % 1023,7 hPa 0,0 l/m² 8,6 km/h (2 Bft) W 278 ° 0 min 0 W/m² -10,7 °C -12,0 °C 12,9 km/h (3 Bft)
11.01.2026 06:19 22,1 °C -9,2 °C 45 % 89 % 1023,7 hPa 0,0 l/m² 8,2 km/h (2 Bft) W-SW 257 ° 0 min 0 W/m² -10,7 °C -11,6 °C 12,9 km/h (3 Bft)
11.01.2026 06:21 22,1 °C -9,2 °C 45 % 89 % 1023,8 hPa 0,0 l/m² 7,3 km/h (2 Bft) W 273 ° 0 min 0 W/m² -10,7 °C -10,4 °C 11,3 km/h (2 Bft)
11.01.2026 06:23 22,2 °C -9,3 °C 45 % 89 % 1023,8 hPa 0,0 l/m² 8,2 km/h (2 Bft) W-SW 256 ° 0 min 0 W/m² -10,8 °C -11,7 °C 11,3 km/h (2 Bft)
11.01.2026 06:25 22,1 °C -9,3 °C 45 % 89 % 1023,8 hPa 0,0 l/m² 6,6 km/h (2 Bft) W 266 ° 0 min 0 W/m² -10,8 °C -9,5 °C 9,7 km/h (2 Bft)
11.01.2026 06:27 22,1 °C -9,3 °C 45 % 89 % 1023,8 hPa 0,0 l/m² 8,2 km/h (2 Bft) W 264 ° 0 min 0 W/m² -10,8 °C -11,7 °C 12,9 km/h (3 Bft)
11.01.2026 06:29 22,1 °C -9,4 °C 45 % 89 % 1023,8 hPa 0,0 l/m² 6,0 km/h (2 Bft) W 259 ° 0 min 0 W/m² -10,9 °C -9,4 °C 11,3 km/h (2 Bft)
11.01.2026 06:31 22,1 °C -9,3 °C 45 % 89 % 1023,8 hPa 0,0 l/m² 5,3 km/h (1 Bft) SW 236 ° 0 min 0 W/m² -10,8 °C -9,3 °C 8,0 km/h (2 Bft)
11.01.2026 06:33 22,1 °C -9,4 °C 45 % 89 % 1023,9 hPa 0,0 l/m² 3,8 km/h (1 Bft) W-SW 238 ° 0 min 0 W/m² -10,9 °C -9,4 °C 4,8 km/h (1 Bft)
11.01.2026 06:35 22,1 °C -9,4 °C 45 % 89 % 1023,9 hPa 0,0 l/m² 4,3 km/h (1 Bft) W-SW 243 ° 0 min 0 W/m² -10,9 °C -9,4 °C 8,0 km/h (2 Bft)
11.01.2026 06:37 22,1 °C -9,4 °C 45 % 89 % 1023,9 hPa 0,0 l/m² 1,9 km/h (1 Bft) W-SW 243 ° 0 min 0 W/m² -10,9 °C -9,4 °C 6,4 km/h (2 Bft)
11.01.2026 06:39 22,1 °C -9,5 °C 45 % 89 % 1024,0 hPa 0,0 l/m² 0,7 km/h (0 Bft) W-SW 240 ° 0 min 0 W/m² -11,0 °C -9,5 °C 3,2 km/h (1 Bft)
11.01.2026 06:41 22,1 °C -9,6 °C 45 % 89 % 1024,0 hPa 0,0 l/m² 0,8 km/h (0 Bft) W-SW 241 ° 0 min 0 W/m² -11,1 °C -9,6 °C 3,2 km/h (1 Bft)
11.01.2026 06:43 22,1 °C -9,6 °C 45 % 89 % 1024,0 hPa 0,0 l/m² 0,3 km/h (0 Bft) W-SW 241 ° 0 min 0 W/m² -11,1 °C -9,6 °C 1,6 km/h (1 Bft)
11.01.2026 06:45 22,1 °C -9,7 °C 45 % 89 % 1024,0 hPa 0,0 l/m² 0,0 km/h (0 Bft) W-SW 241 ° 0 min 0 W/m² -11,2 °C -9,7 °C 0,0 km/h (0 Bft)
11.01.2026 06:48 22,1 °C -9,7 °C 45 % 89 % 1024,1 hPa 0,0 l/m² 0,0 km/h (0 Bft) W-SW 241 ° 0 min 0 W/m² -11,2 °C -9,7 °C 1,6 km/h (1 Bft)
11.01.2026 06:50 22,1 °C -9,8 °C 45 % 89 % 1024,1 hPa 0,0 l/m² 0,0 km/h (0 Bft) W-SW 241 ° 0 min 0 W/m² -11,3 °C -9,8 °C 1,6 km/h (1 Bft)
11.01.2026 06:52 22,1 °C -9,8 °C 45 % 89 % 1024,1 hPa 0,0 l/m² 0,1 km/h (0 Bft) W-SW 241 ° 0 min 0 W/m² -11,3 °C -9,8 °C 1,6 km/h (1 Bft)
11.01.2026 06:54 22,1 °C -9,9 °C 45 % 89 % 1024,1 hPa 0,0 l/m² 0,2 km/h (0 Bft) W-SW 241 ° 0 min 0 W/m² -11,4 °C -9,9 °C 1,6 km/h (1 Bft)
11.01.2026 06:56 22,1 °C -9,9 °C 45 % 89 % 1024,1 hPa 0,0 l/m² 0,0 km/h (0 Bft) W-SW 241 ° 0 min 0 W/m² -11,4 °C -9,9 °C 0,0 km/h (0 Bft)
11.01.2026 06:58 22,1 °C -9,9 °C 45 % 89 % 1024,1 hPa 0,0 l/m² 0,0 km/h (0 Bft) W-SW 241 ° 0 min 0 W/m² -11,4 °C -9,9 °C 0,0 km/h (0 Bft)
11.01.2026 07:00 22,1 °C -9,9 °C 45 % 89 % 1024,1 hPa 0,0 l/m² 0,0 km/h (0 Bft) W-SW 241 ° 0 min 0 W/m² -11,4 °C -9,9 °C 0,0 km/h (0 Bft)
11.01.2026 07:02 22,1 °C -10,0 °C 45 % 89 % 1024,2 hPa 0,0 l/m² 0,0 km/h (0 Bft) W-SW 241 ° 0 min 0 W/m² -11,5 °C -10,0 °C 0,0 km/h (0 Bft)
11.01.2026 07:04 22,1 °C -10,1 °C 45 % 89 % 1024,2 hPa 0,0 l/m² 0,0 km/h (0 Bft) W-SW 241 ° 0 min 0 W/m² -11,6 °C -10,1 °C 0,0 km/h (0 Bft)
11.01.2026 07:06 22,1 °C -10,0 °C 45 % 89 % 1024,2 hPa 0,0 l/m² 0,0 km/h (0 Bft) W-SW 241 ° 0 min 0 W/m² -11,5 °C -10,0 °C 0,0 km/h (0 Bft)
11.01.2026 07:08 22,1 °C -10,1 °C 45 % 89 % 1024,2 hPa 0,0 l/m² 0,0 km/h (0 Bft) W-SW 241 ° 0 min 0 W/m² -11,6 °C -10,1 °C 0,0 km/h (0 Bft)
11.01.2026 07:10 22,1 °C -10,1 °C 45 % 89 % 1024,2 hPa 0,0 l/m² 0,0 km/h (0 Bft) W-SW 241 ° 0 min 0 W/m² -11,6 °C -10,1 °C 0,0 km/h (0 Bft)
11.01.2026 07:12 22,1 °C -10,2 °C 45 % 89 % 1024,2 hPa 0,0 l/m² 0,0 km/h (0 Bft) W-SW 241 ° 0 min 0 W/m² -11,7 °C -10,2 °C 0,0 km/h (0 Bft)
11.01.2026 07:14 22,1 °C -10,2 °C 45 % 89 % 1024,2 hPa 0,0 l/m² 0,0 km/h (0 Bft) W-SW 241 ° 0 min 0 W/m² -11,7 °C -10,2 °C 0,0 km/h (0 Bft)
11.01.2026 07:16 22,1 °C -10,2 °C 45 % 89 % 1024,2 hPa 0,0 l/m² 0,0 km/h (0 Bft) W-SW 241 ° 0 min 0 W/m² -11,7 °C -10,2 °C 0,0 km/h (0 Bft)
11.01.2026 07:18 22,1 °C -10,3 °C 45 % 89 % 1024,3 hPa 0,0 l/m² 0,0 km/h (0 Bft) W-SW 241 ° 0 min 0 W/m² -11,8 °C -10,3 °C 0,0 km/h (0 Bft)
11.01.2026 07:20 22,1 °C -10,3 °C 45 % 89 % 1024,4 hPa 0,0 l/m² 0,0 km/h (0 Bft) W-SW 241 ° 0 min 0 W/m² -11,8 °C -10,3 °C 0,0 km/h (0 Bft)
11.01.2026 07:22 22,1 °C -10,4 °C 45 % 89 % 1024,5 hPa 0,0 l/m² 0,0 km/h (0 Bft) W-SW 241 ° 0 min 0 W/m² -11,9 °C -10,4 °C 0,0 km/h (0 Bft)
11.01.2026 07:24 22,1 °C -10,4 °C 45 % 89 % 1024,6 hPa 0,0 l/m² 0,0 km/h (0 Bft) W-SW 241 ° 0 min 0 W/m² -11,9 °C -10,4 °C 0,0 km/h (0 Bft)
11.01.2026 07:26 22,1 °C -10,6 °C 45 % 89 % 1024,5 hPa 0,0 l/m² 0,0 km/h (0 Bft) W-SW 241 ° 0 min 0 W/m² -12,1 °C -10,6 °C 0,0 km/h (0 Bft)
11.01.2026 07:28 22,1 °C -10,6 °C 45 % 88 % 1024,6 hPa 0,0 l/m² 0,0 km/h (0 Bft) W-SW 241 ° 0 min 0 W/m² -12,2 °C -10,6 °C 0,0 km/h (0 Bft)
11.01.2026 07:30 22,1 °C -10,7 °C 45 % 88 % 1024,6 hPa 0,0 l/m² 0,0 km/h (0 Bft) W-SW 241 ° 0 min 0 W/m² -12,3 °C -10,7 °C 0,0 km/h (0 Bft)
11.01.2026 07:32 22,1 °C -10,7 °C 45 % 88 % 1024,6 hPa 0,0 l/m² 0,0 km/h (0 Bft) W-SW 241 ° 0 min 0 W/m² -12,3 °C -10,7 °C 0,0 km/h (0 Bft)
11.01.2026 07:34 22,1 °C -10,8 °C 45 % 88 % 1024,6 hPa 0,0 l/m² 0,0 km/h (0 Bft) W-SW 241 ° 0 min 0 W/m² -12,4 °C -10,8 °C 0,0 km/h (0 Bft)
11.01.2026 07:36 22,1 °C -10,8 °C 45 % 88 % 1024,6 hPa 0,0 l/m² 0,0 km/h (0 Bft) W-SW 241 ° 0 min 0 W/m² -12,4 °C -10,8 °C 0,0 km/h (0 Bft)
11.01.2026 07:38 22,1 °C -10,9 °C 45 % 88 % 1024,5 hPa 0,0 l/m² 0,0 km/h (0 Bft) W-SW 241 ° 0 min 0 W/m² -12,5 °C -10,9 °C 0,0 km/h (0 Bft)
11.01.2026 07:40 22,1 °C -10,9 °C 45 % 88 % 1024,6 hPa 0,0 l/m² 0,0 km/h (0 Bft) W-SW 241 ° 0 min 0 W/m² -12,5 °C -10,9 °C 0,0 km/h (0 Bft)
11.01.2026 07:42 22,1 °C -11,0 °C 45 % 88 % 1024,6 hPa 0,0 l/m² 0,0 km/h (0 Bft) W-SW 241 ° 0 min 0 W/m² -12,6 °C -11,0 °C 1,6 km/h (1 Bft)
11.01.2026 07:44 22,1 °C -11,1 °C 45 % 88 % 1024,7 hPa 0,0 l/m² 0,2 km/h (0 Bft) W-SW 241 ° 0 min 0 W/m² -12,7 °C -11,1 °C 1,6 km/h (1 Bft)
11.01.2026 07:46 22,1 °C -11,2 °C 45 % 88 % 1024,7 hPa 0,0 l/m² 0,0 km/h (0 Bft) W-SW 241 ° 0 min 0 W/m² -12,8 °C -11,2 °C 0,0 km/h (0 Bft)
11.01.2026 07:48 22,1 °C -11,3 °C 45 % 88 % 1024,7 hPa 0,0 l/m² 0,0 km/h (0 Bft) W-SW 241 ° 0 min 0 W/m² -12,9 °C -11,3 °C 0,0 km/h (0 Bft)
11.01.2026 07:50 22,1 °C -11,3 °C 45 % 88 % 1024,7 hPa 0,0 l/m² 0,0 km/h (0 Bft) W-SW 241 ° 0 min 0 W/m² -12,9 °C -11,3 °C 0,0 km/h (0 Bft)
11.01.2026 07:52 22,1 °C -11,4 °C 45 % 88 % 1024,8 hPa 0,0 l/m² 0,0 km/h (0 Bft) W-SW 241 ° 0 min 0 W/m² -13,0 °C -11,4 °C 0,0 km/h (0 Bft)
11.01.2026 07:54 22,1 °C -11,5 °C 45 % 88 % 1024,8 hPa 0,0 l/m² 0,0 km/h (0 Bft) W-SW 241 ° 0 min 0 W/m² -13,1 °C -11,5 °C 0,0 km/h (0 Bft)
11.01.2026 07:56 22,1 °C -11,6 °C 45 % 88 % 1024,9 hPa 0,0 l/m² 0,0 km/h (0 Bft) W-SW 241 ° 0 min 0 W/m² -13,2 °C -11,6 °C 0,0 km/h (0 Bft)
11.01.2026 07:58 22,1 °C -11,6 °C 45 % 88 % 1024,7 hPa 0,0 l/m² 0,0 km/h (0 Bft) W-SW 241 ° 0 min 0 W/m² -13,2 °C -11,6 °C 0,0 km/h (0 Bft)
11.01.2026 08:00 22,1 °C -11,7 °C 45 % 88 % 1024,7 hPa 0,0 l/m² 0,0 km/h (0 Bft) W-SW 241 ° 0 min 0 W/m² -13,3 °C -11,7 °C 0,0 km/h (0 Bft)
11.01.2026 08:02 22,1 °C -11,7 °C 45 % 88 % 1024,8 hPa 0,0 l/m² 0,0 km/h (0 Bft) W-SW 241 ° 0 min 0 W/m² -13,3 °C -11,7 °C 0,0 km/h (0 Bft)
11.01.2026 08:03 22,1 °C -11,7 °C 45 % 88 % 1024,7 hPa 0,0 l/m² 0,0 km/h (0 Bft) W-SW 241 ° 0 min 0 W/m² -13,3 °C -11,7 °C 0,0 km/h (0 Bft)
11.01.2026 08:04 22,2 °C -11,8 °C 45 % 88 % 1024,8 hPa 0,0 l/m² 0,0 km/h (0 Bft) W-SW 241 ° 0 min 0 W/m² -13,4 °C -11,8 °C 0,0 km/h (0 Bft)
11.01.2026 08:06 22,2 °C -11,8 °C 45 % 88 % 1024,7 hPa 0,0 l/m² 0,0 km/h (0 Bft) W-SW 241 ° 0 min 0 W/m² -13,4 °C -11,8 °C 0,0 km/h (0 Bft)
11.01.2026 08:08 22,2 °C -11,8 °C 45 % 88 % 1024,7 hPa 0,0 l/m² 0,0 km/h (0 Bft) W-SW 241 ° 0 min 0 W/m² -13,4 °C -11,8 °C 0,0 km/h (0 Bft)
11.01.2026 08:10 22,2 °C -11,9 °C 45 % 88 % 1024,7 hPa 0,0 l/m² 0,0 km/h (0 Bft) W-SW 241 ° 0 min 0 W/m² -13,5 °C -11,9 °C 0,0 km/h (0 Bft)
11.01.2026 08:12 22,2 °C -11,9 °C 45 % 88 % 1024,8 hPa 0,0 l/m² 0,0 km/h (0 Bft) W-SW 241 ° 0 min 5 W/m² -13,5 °C -11,9 °C 0,0 km/h (0 Bft)
11.01.2026 08:14 22,2 °C -12,0 °C 45 % 88 % 1024,7 hPa 0,0 l/m² 0,0 km/h (0 Bft) W-SW 241 ° 0 min 5 W/m² -13,6 °C -12,0 °C 0,0 km/h (0 Bft)
11.01.2026 08:16 22,2 °C -12,1 °C 45 % 88 % 1024,8 hPa 0,0 l/m² 0,0 km/h (0 Bft) W-SW 241 ° 0 min 5 W/m² -13,7 °C -12,1 °C 0,0 km/h (0 Bft)
11.01.2026 08:18 22,2 °C -12,1 °C 45 % 88 % 1024,8 hPa 0,0 l/m² 0,0 km/h (0 Bft) W-SW 241 ° 0 min 5 W/m² -13,7 °C -12,1 °C 0,0 km/h (0 Bft)
11.01.2026 08:20 22,2 °C -12,2 °C 45 % 88 % 1024,8 hPa 0,0 l/m² 0,0 km/h (0 Bft) W-SW 241 ° 0 min 7 W/m² -13,8 °C -12,2 °C 0,0 km/h (0 Bft)
11.01.2026 08:22 22,2 °C -12,2 °C 45 % 88 % 1024,8 hPa 0,0 l/m² 0,0 km/h (0 Bft) W-SW 241 ° 0 min 7 W/m² -13,8 °C -12,2 °C 0,0 km/h (0 Bft)
11.01.2026 08:24 22,2 °C -12,3 °C 45 % 88 % 1024,8 hPa 0,0 l/m² 0,0 km/h (0 Bft) W-SW 241 ° 0 min 9 W/m² -13,9 °C -12,3 °C 0,0 km/h (0 Bft)
11.01.2026 08:26 22,2 °C -12,3 °C 45 % 88 % 1024,9 hPa 0,0 l/m² 0,0 km/h (0 Bft) W-SW 241 ° 0 min 9 W/m² -13,9 °C -12,3 °C 0,0 km/h (0 Bft)
11.01.2026 08:28 22,2 °C -12,4 °C 45 % 88 % 1024,8 hPa 0,0 l/m² 0,0 km/h (0 Bft) W-SW 241 ° 0 min 9 W/m² -14,0 °C -12,4 °C 0,0 km/h (0 Bft)
11.01.2026 08:30 22,2 °C -12,4 °C 46 % 88 % 1025,0 hPa 0,0 l/m² 0,0 km/h (0 Bft) W-SW 241 ° 0 min 11 W/m² -14,0 °C -12,4 °C 0,0 km/h (0 Bft)
11.01.2026 08:32 22,2 °C -12,4 °C 46 % 88 % 1024,9 hPa 0,0 l/m² 0,0 km/h (0 Bft) W-SW 241 ° 0 min 11 W/m² -14,0 °C -12,4 °C 0,0 km/h (0 Bft)
11.01.2026 08:34 22,2 °C -12,4 °C 46 % 88 % 1024,9 hPa 0,0 l/m² 0,0 km/h (0 Bft) W-SW 241 ° 0 min 12 W/m² -14,0 °C -12,4 °C 0,0 km/h (0 Bft)
11.01.2026 08:36 22,2 °C -12,5 °C 46 % 88 % 1025,0 hPa 0,0 l/m² 0,0 km/h (0 Bft) W-SW 241 ° 0 min 12 W/m² -14,1 °C -12,5 °C 0,0 km/h (0 Bft)
11.01.2026 08:38 22,2 °C -12,5 °C 46 % 88 % 1025,0 hPa 0,0 l/m² 0,0 km/h (0 Bft) W-SW 241 ° 0 min 16 W/m² -14,1 °C -12,5 °C 0,0 km/h (0 Bft)
11.01.2026 08:40 22,2 °C -12,6 °C 46 % 88 % 1025,0 hPa 0,0 l/m² 0,0 km/h (0 Bft) W-SW 241 ° 0 min 18 W/m² -14,2 °C -12,6 °C 0,0 km/h (0 Bft)
11.01.2026 08:42 22,2 °C -12,6 °C 46 % 88 % 1025,1 hPa 0,0 l/m² 0,0 km/h (0 Bft) W-SW 241 ° 0 min 19 W/m² -14,2 °C -12,6 °C 0,0 km/h (0 Bft)
11.01.2026 08:44 22,3 °C -12,6 °C 46 % 88 % 1025,0 hPa 0,0 l/m² 0,0 km/h (0 Bft) W-SW 241 ° 0 min 23 W/m² -14,2 °C -12,6 °C 0,0 km/h (0 Bft)
11.01.2026 08:46 22,3 °C -12,6 °C 46 % 88 % 1025,1 hPa 0,0 l/m² 0,0 km/h (0 Bft) W-SW 241 ° 0 min 25 W/m² -14,2 °C -12,6 °C 0,0 km/h (0 Bft)
11.01.2026 08:48 22,3 °C -12,6 °C 46 % 88 % 1025,0 hPa 0,0 l/m² 0,0 km/h (0 Bft) W-SW 241 ° 0 min 28 W/m² -14,2 °C -12,6 °C 0,0 km/h (0 Bft)
11.01.2026 08:50 22,3 °C -12,6 °C 46 % 88 % 1025,0 hPa 0,0 l/m² 0,0 km/h (0 Bft) W-SW 241 ° 0 min 30 W/m² -14,2 °C -12,6 °C 0,0 km/h (0 Bft)
11.01.2026 08:52 22,3 °C -12,6 °C 46 % 88 % 1025,1 hPa 0,0 l/m² 0,0 km/h (0 Bft) W-SW 241 ° 0 min 32 W/m² -14,2 °C -12,6 °C 0,0 km/h (0 Bft)
11.01.2026 08:54 22,3 °C -12,6 °C 46 % 88 % 1025,2 hPa 0,0 l/m² 0,0 km/h (0 Bft) W-SW 241 ° 0 min 35 W/m² -14,2 °C -12,6 °C 0,0 km/h (0 Bft)
11.01.2026 08:56 22,3 °C -12,5 °C 46 % 88 % 1025,3 hPa 0,0 l/m² 0,0 km/h (0 Bft) W-SW 241 ° 0 min 37 W/m² -14,1 °C -12,5 °C 0,0 km/h (0 Bft)
11.01.2026 08:58 22,4 °C -12,4 °C 46 % 88 % 1025,3 hPa 0,0 l/m² 0,0 km/h (0 Bft) W-SW 241 ° 0 min 39 W/m² -14,0 °C -12,4 °C 0,0 km/h (0 Bft)
11.01.2026 09:00 22,4 °C -12,4 °C 46 % 88 % 1025,3 hPa 0,0 l/m² 0,0 km/h (0 Bft) W-SW 241 ° 0 min 42 W/m² -14,0 °C -12,4 °C 0,0 km/h (0 Bft)
11.01.2026 09:02 22,6 °C -12,3 °C 46 % 88 % 1025,2 hPa 0,0 l/m² 0,0 km/h (0 Bft) W-SW 241 ° 0 min 44 W/m² -13,9 °C -12,3 °C 0,0 km/h (0 Bft)
11.01.2026 09:04 22,5 °C -12,3 °C 46 % 88 % 1025,3 hPa 0,0 l/m² 0,0 km/h (0 Bft) W-SW 241 ° 0 min 46 W/m² -13,9 °C -12,3 °C 0,0 km/h (0 Bft)
11.01.2026 09:06 22,6 °C -12,3 °C 46 % 88 % 1025,3 hPa 0,0 l/m² 0,0 km/h (0 Bft) W-SW 241 ° 0 min 47 W/m² -13,9 °C -12,3 °C 0,0 km/h (0 Bft)
11.01.2026 09:08 22,6 °C -12,2 °C 46 % 88 % 1025,3 hPa 0,0 l/m² 0,0 km/h (0 Bft) W-SW 241 ° 0 min 51 W/m² -13,8 °C -12,2 °C 0,0 km/h (0 Bft)
11.01.2026 09:10 22,6 °C -12,0 °C 46 % 89 % 1025,3 hPa 0,0 l/m² 0,0 km/h (0 Bft) W-SW 241 ° 2 min 65 W/m² -13,4 °C -12,0 °C 0,0 km/h (0 Bft)
11.01.2026 09:12 22,6 °C -11,9 °C 46 % 89 % 1025,3 hPa 0,0 l/m² 0,0 km/h (0 Bft) W-SW 241 ° 2 min 77 W/m² -13,3 °C -11,9 °C 0,0 km/h (0 Bft)
11.01.2026 09:14 22,6 °C -11,7 °C 45 % 89 % 1025,2 hPa 0,0 l/m² 0,0 km/h (0 Bft) W-SW 241 ° 2 min 79 W/m² -13,1 °C -11,7 °C 0,0 km/h (0 Bft)
11.01.2026 09:16 22,6 °C -11,6 °C 45 % 89 % 1025,4 hPa 0,0 l/m² 0,0 km/h (0 Bft) W-SW 241 ° 2 min 83 W/m² -13,0 °C -11,6 °C 0,0 km/h (0 Bft)
11.01.2026 09:18 22,6 °C -11,4 °C 45 % 89 % 1025,3 hPa 0,0 l/m² 0,0 km/h (0 Bft) W-SW 241 ° 2 min 86 W/m² -12,8 °C -11,4 °C 0,0 km/h (0 Bft)
11.01.2026 09:20 22,6 °C -11,3 °C 45 % 89 % 1025,4 hPa 0,0 l/m² 0,0 km/h (0 Bft) W-SW 241 ° 2 min 91 W/m² -12,7 °C -11,3 °C 0,0 km/h (0 Bft)
11.01.2026 09:22 22,6 °C -11,1 °C 45 % 89 % 1025,4 hPa 0,0 l/m² 0,0 km/h (0 Bft) W-SW 241 ° 2 min 97 W/m² -12,5 °C -11,1 °C 0,0 km/h (0 Bft)
11.01.2026 09:24 22,6 °C -10,9 °C 45 % 89 % 1025,4 hPa 0,0 l/m² 0,0 km/h (0 Bft) W-SW 241 ° 2 min 104 W/m² -12,3 °C -10,9 °C 0,0 km/h (0 Bft)
11.01.2026 09:26 22,6 °C -10,8 °C 44 % 89 % 1025,4 hPa 0,0 l/m² 0,0 km/h (0 Bft) W-SW 241 ° 2 min 107 W/m² -12,2 °C -10,8 °C 0,0 km/h (0 Bft)
11.01.2026 09:28 22,6 °C -10,7 °C 44 % 89 % 1025,4 hPa 0,0 l/m² 0,0 km/h (0 Bft) W-SW 241 ° 2 min 111 W/m² -12,1 °C -10,7 °C 0,0 km/h (0 Bft)
11.01.2026 09:30 22,6 °C -10,6 °C 44 % 89 % 1025,5 hPa 0,0 l/m² 0,0 km/h (0 Bft) W-SW 241 ° 2 min 114 W/m² -12,1 °C -10,6 °C 0,0 km/h (0 Bft)
11.01.2026 09:32 22,6 °C -10,4 °C 44 % 89 % 1025,6 hPa 0,0 l/m² 0,0 km/h (0 Bft) W-SW 241 ° 2 min 118 W/m² -11,9 °C -10,4 °C 0,0 km/h (0 Bft)
11.01.2026 09:34 22,6 °C -10,3 °C 44 % 90 % 1025,6 hPa 0,0 l/m² 0,0 km/h (0 Bft) W-SW 241 ° 2 min 132 W/m² -11,6 °C -10,3 °C 0,0 km/h (0 Bft)
11.01.2026 09:36 22,6 °C -10,2 °C 44 % 89 % 1025,5 hPa 0,0 l/m² 0,0 km/h (0 Bft) W-SW 241 ° 2 min 137 W/m² -11,7 °C -10,2 °C 0,0 km/h (0 Bft)
11.01.2026 09:38 22,6 °C -9,9 °C 44 % 90 % 1025,7 hPa 0,0 l/m² 0,0 km/h (0 Bft) W-SW 241 ° 2 min 151 W/m² -11,2 °C -9,9 °C 0,0 km/h (0 Bft)
11.01.2026 09:40 22,6 °C -9,8 °C 44 % 90 % 1025,8 hPa 0,0 l/m² 0,0 km/h (0 Bft) W-SW 241 ° 2 min 169 W/m² -11,1 °C -9,8 °C 0,0 km/h (0 Bft)
11.01.2026 09:42 22,6 °C -9,7 °C 44 % 90 % 1025,7 hPa 0,0 l/m² 0,0 km/h (0 Bft) W-SW 241 ° 2 min 176 W/m² -11,0 °C -9,7 °C 0,0 km/h (0 Bft)
11.01.2026 09:44 22,7 °C -9,6 °C 44 % 90 % 1025,8 hPa 0,0 l/m² 0,0 km/h (0 Bft) W-SW 241 ° 2 min 181 W/m² -10,9 °C -9,6 °C 0,0 km/h (0 Bft)
11.01.2026 09:47 22,7 °C -9,4 °C 44 % 90 % 1025,8 hPa 0,0 l/m² 0,0 km/h (0 Bft) W-SW 241 ° 3 min 199 W/m² -10,7 °C -9,4 °C 0,0 km/h (0 Bft)
11.01.2026 09:49 22,7 °C -9,3 °C 44 % 90 % 1025,7 hPa 0,0 l/m² 0,0 km/h (0 Bft) W-SW 241 ° 2 min 207 W/m² -10,6 °C -9,3 °C 0,0 km/h (0 Bft)
11.01.2026 09:51 22,7 °C -9,1 °C 44 % 90 % 1025,7 hPa 0,0 l/m² 0,0 km/h (0 Bft) W-SW 241 ° 2 min 211 W/m² -10,4 °C -9,1 °C 0,0 km/h (0 Bft)
11.01.2026 09:53 22,7 °C -8,9 °C 44 % 90 % 1025,8 hPa 0,0 l/m² 0,0 km/h (0 Bft) W-SW 241 ° 2 min 207 W/m² -10,2 °C -8,9 °C 0,0 km/h (0 Bft)
11.01.2026 09:55 22,8 °C -8,8 °C 44 % 90 % 1025,9 hPa 0,0 l/m² 0,0 km/h (0 Bft) W-SW 241 ° 2 min 206 W/m² -10,1 °C -8,8 °C 0,0 km/h (0 Bft)
11.01.2026 09:57 22,8 °C -8,6 °C 44 % 90 % 1025,9 hPa 0,0 l/m² 0,0 km/h (0 Bft) W-SW 241 ° 2 min 206 W/m² -9,9 °C -8,6 °C 0,0 km/h (0 Bft)
11.01.2026 09:59 22,8 °C -8,6 °C 44 % 90 % 1025,9 hPa 0,0 l/m² 1,1 km/h (1 Bft) W-SW 250 ° 2 min 209 W/m² -9,9 °C -8,6 °C 3,2 km/h (1 Bft)
11.01.2026 10:01 22,8 °C -8,4 °C 44 % 90 % 1025,9 hPa 0,0 l/m² 0,0 km/h (0 Bft) W-SW 250 ° 2 min 213 W/m² -9,7 °C -8,4 °C 0,0 km/h (0 Bft)
11.01.2026 10:03 22,9 °C -8,4 °C 44 % 89 % 1025,9 hPa 0,0 l/m² 0,1 km/h (0 Bft) W-SW 250 ° 2 min 216 W/m² -9,9 °C -8,4 °C 1,6 km/h (1 Bft)
11.01.2026 10:04 22,9 °C -8,4 °C 44 % 89 % 1025,9 hPa 0,0 l/m² 0,7 km/h (0 Bft) W-SW 250 ° 1 min 220 W/m² -9,9 °C -8,4 °C 1,6 km/h (1 Bft)
11.01.2026 10:06 22,9 °C -8,4 °C 44 % 89 % 1025,9 hPa 0,0 l/m² 1,1 km/h (1 Bft) W-SW 257 ° 2 min 221 W/m² -9,9 °C -8,4 °C 4,8 km/h (1 Bft)
11.01.2026 10:07 22,9 °C -8,3 °C 44 % 89 % 1025,9 hPa 0,0 l/m² 1,4 km/h (1 Bft) W 261 ° 1 min 223 W/m² -9,8 °C -8,3 °C 3,2 km/h (1 Bft)
11.01.2026 10:09 22,9 °C -8,3 °C 44 % 89 % 1026,0 hPa 0,0 l/m² 1,3 km/h (1 Bft) W 261 ° 2 min 225 W/m² -9,8 °C -8,3 °C 4,8 km/h (1 Bft)
11.01.2026 10:11 22,9 °C -8,3 °C 44 % 89 % 1026,0 hPa 0,0 l/m² 3,4 km/h (1 Bft) W 265 ° 2 min 230 W/m² -9,8 °C -8,3 °C 4,8 km/h (1 Bft)
11.01.2026 10:13 22,9 °C -8,3 °C 44 % 89 % 1025,9 hPa 0,0 l/m² 2,1 km/h (1 Bft) W 265 ° 2 min 232 W/m² -9,8 °C -8,3 °C 3,2 km/h (1 Bft)
11.01.2026 10:15 23,0 °C -8,3 °C 44 % 88 % 1025,8 hPa 0,0 l/m² 0,2 km/h (0 Bft) W 265 ° 2 min 236 W/m² -9,9 °C -8,3 °C 1,6 km/h (1 Bft)
11.01.2026 10:17 23,0 °C -8,3 °C 44 % 88 % 1025,8 hPa 0,0 l/m² 0,5 km/h (0 Bft) W 265 ° 2 min 241 W/m² -9,9 °C -8,3 °C 3,2 km/h (1 Bft)
11.01.2026 10:19 23,0 °C -8,3 °C 44 % 88 % 1025,9 hPa 0,0 l/m² 1,8 km/h (1 Bft) W 270 ° 2 min 244 W/m² -9,9 °C -8,3 °C 4,8 km/h (1 Bft)
11.01.2026 10:21 23,1 °C -8,2 °C 44 % 88 % 1025,9 hPa 0,0 l/m² 2,0 km/h (1 Bft) W 271 ° 2 min 250 W/m² -9,8 °C -8,2 °C 4,8 km/h (1 Bft)
11.01.2026 10:23 23,1 °C -8,2 °C 44 % 88 % 1025,8 hPa 0,0 l/m² 0,9 km/h (0 Bft) W 259 ° 2 min 251 W/m² -9,8 °C -8,2 °C 4,8 km/h (1 Bft)
11.01.2026 10:25 23,1 °C -8,1 °C 44 % 88 % 1025,9 hPa 0,0 l/m² 0,7 km/h (0 Bft) W 265 ° 2 min 255 W/m² -9,7 °C -8,1 °C 3,2 km/h (1 Bft)
11.01.2026 10:27 23,1 °C -8,0 °C 44 % 88 % 1025,9 hPa 0,0 l/m² 0,4 km/h (0 Bft) W 266 ° 2 min 258 W/m² -9,6 °C -8,0 °C 3,2 km/h (1 Bft)
11.01.2026 10:29 23,1 °C -7,9 °C 44 % 88 % 1025,9 hPa 0,0 l/m² 2,9 km/h (1 Bft) W 270 ° 2 min 262 W/m² -9,5 °C -7,9 °C 4,8 km/h (1 Bft)
11.01.2026 10:31 23,1 °C -7,8 °C 44 % 88 % 1025,9 hPa 0,0 l/m² 3,3 km/h (1 Bft) W 273 ° 2 min 264 W/m² -9,4 °C -7,8 °C 4,8 km/h (1 Bft)
11.01.2026 10:33 23,1 °C -7,8 °C 44 % 88 % 1025,9 hPa 0,0 l/m² 3,3 km/h (1 Bft) W 264 ° 2 min 267 W/m² -9,4 °C -7,8 °C 4,8 km/h (1 Bft)
11.01.2026 10:35 23,2 °C -7,7 °C 44 % 88 % 1025,9 hPa 0,0 l/m² 3,4 km/h (1 Bft) W 265 ° 2 min 271 W/m² -9,3 °C -7,7 °C 4,8 km/h (1 Bft)
11.01.2026 10:37 23,2 °C -7,7 °C 44 % 87 % 1025,9 hPa 0,0 l/m² 3,3 km/h (1 Bft) W 269 ° 2 min 274 W/m² -9,5 °C -7,7 °C 6,4 km/h (2 Bft)
11.01.2026 10:39 23,2 °C -7,6 °C 44 % 87 % 1026,0 hPa 0,0 l/m² 3,2 km/h (1 Bft) W 270 ° 2 min 278 W/m² -9,4 °C -7,6 °C 4,8 km/h (1 Bft)
11.01.2026 10:41 23,2 °C -7,5 °C 44 % 87 % 1025,9 hPa 0,0 l/m² 2,0 km/h (1 Bft) W 274 ° 2 min 279 W/m² -9,3 °C -7,5 °C 4,8 km/h (1 Bft)
11.01.2026 10:43 23,2 °C -7,4 °C 44 % 87 % 1026,0 hPa 0,0 l/m² 3,0 km/h (1 Bft) W 262 ° 2 min 281 W/m² -9,2 °C -7,4 °C 4,8 km/h (1 Bft)
11.01.2026 10:45 23,2 °C -7,3 °C 44 % 87 % 1025,9 hPa 0,0 l/m² 2,7 km/h (1 Bft) W 275 ° 2 min 287 W/m² -9,1 °C -7,3 °C 4,8 km/h (1 Bft)
11.01.2026 10:47 23,2 °C -7,2 °C 44 % 87 % 1026,0 hPa 0,0 l/m² 4,0 km/h (1 Bft) W 271 ° 2 min 288 W/m² -9,0 °C -7,2 °C 6,4 km/h (2 Bft)
11.01.2026 10:49 23,2 °C -7,1 °C 44 % 86 % 1026,1 hPa 0,0 l/m² 4,9 km/h (1 Bft) W 266 ° 2 min 292 W/m² -9,0 °C -7,1 °C 9,7 km/h (2 Bft)
11.01.2026 10:51 23,3 °C -7,1 °C 44 % 86 % 1026,1 hPa 0,0 l/m² 4,2 km/h (1 Bft) W 269 ° 2 min 294 W/m² -9,0 °C -7,1 °C 6,4 km/h (2 Bft)
11.01.2026 10:53 23,3 °C -6,9 °C 44 % 86 % 1026,1 hPa 0,0 l/m² 4,9 km/h (1 Bft) W 272 ° 2 min 295 W/m² -8,8 °C -6,9 °C 6,4 km/h (2 Bft)
11.01.2026 10:55 23,3 °C -6,9 °C 44 % 86 % 1026,1 hPa 0,0 l/m² 4,3 km/h (1 Bft) W 275 ° 2 min 297 W/m² -8,8 °C -6,9 °C 6,4 km/h (2 Bft)
11.01.2026 10:57 23,3 °C -6,8 °C 44 % 86 % 1026,2 hPa 0,0 l/m² 3,8 km/h (1 Bft) W 276 ° 2 min 301 W/m² -8,7 °C -6,8 °C 6,4 km/h (2 Bft)
11.01.2026 10:59 23,3 °C -6,7 °C 44 % 85 % 1026,2 hPa 0,0 l/m² 3,3 km/h (1 Bft) W-NW 283 ° 2 min 302 W/m² -8,8 °C -6,7 °C 4,8 km/h (1 Bft)
11.01.2026 11:01 23,3 °C -6,6 °C 44 % 85 % 1026,1 hPa 0,0 l/m² 1,8 km/h (1 Bft) W 281 ° 2 min 306 W/m² -8,7 °C -6,6 °C 3,2 km/h (1 Bft)
11.01.2026 11:03 23,4 °C -6,5 °C 44 % 85 % 1026,2 hPa 0,0 l/m² 0,5 km/h (0 Bft) W 281 ° 2 min 308 W/m² -8,6 °C -6,5 °C 1,6 km/h (1 Bft)
11.01.2026 11:05 23,3 °C -6,3 °C 44 % 85 % 1026,1 hPa 0,0 l/m² 0,2 km/h (0 Bft) W 280 ° 2 min 309 W/m² -8,4 °C -6,3 °C 1,6 km/h (1 Bft)
11.01.2026 11:07 23,4 °C -6,2 °C 44 % 84 % 1026,0 hPa 0,0 l/m² 0,6 km/h (0 Bft) W 275 ° 2 min 311 W/m² -8,4 °C -6,2 °C 3,2 km/h (1 Bft)
11.01.2026 11:09 23,4 °C -6,1 °C 44 % 84 % 1026,0 hPa 0,0 l/m² 0,1 km/h (0 Bft) W 275 ° 2 min 315 W/m² -8,4 °C -6,1 °C 1,6 km/h (1 Bft)
11.01.2026 11:11 23,4 °C -5,9 °C 44 % 84 % 1026,1 hPa 0,0 l/m² 0,5 km/h (0 Bft) W 275 ° 2 min 316 W/m² -8,2 °C -5,9 °C 1,6 km/h (1 Bft)
11.01.2026 11:12 23,4 °C -5,9 °C 44 % 84 % 1026,1 hPa 0,0 l/m² 2,5 km/h (1 Bft) W 269 ° 1 min 316 W/m² -8,2 °C -5,9 °C 3,2 km/h (1 Bft)
11.01.2026 11:13 23,4 °C -5,8 °C 44 % 84 % 1026,1 hPa 0,0 l/m² 1,7 km/h (1 Bft) W 269 ° 1 min 318 W/m² -8,1 °C -5,8 °C 3,2 km/h (1 Bft)
11.01.2026 11:14 23,4 °C -5,8 °C 44 % 84 % 1026,1 hPa 0,0 l/m² 2,1 km/h (1 Bft) W 269 ° 1 min 320 W/m² -8,1 °C -5,8 °C 3,2 km/h (1 Bft)
11.01.2026 11:15 23,4 °C -5,7 °C 44 % 83 % 1026,1 hPa 0,0 l/m² 0,8 km/h (0 Bft) W 268 ° 1 min 320 W/m² -8,1 °C -5,7 °C 1,6 km/h (1 Bft)
11.01.2026 11:16 23,4 °C -5,7 °C 44 % 83 % 1026,1 hPa 0,0 l/m² 3,1 km/h (1 Bft) W 264 ° 1 min 320 W/m² -8,1 °C -5,7 °C 4,8 km/h (1 Bft)
11.01.2026 11:17 23,4 °C -5,7 °C 44 % 83 % 1026,1 hPa 0,0 l/m² 0,8 km/h (0 Bft) W 261 ° 1 min 322 W/m² -8,1 °C -5,7 °C 3,2 km/h (1 Bft)
11.01.2026 11:18 23,4 °C -5,6 °C 44 % 83 % 1026,1 hPa 0,0 l/m² 1,8 km/h (1 Bft) W 262 ° 1 min 322 W/m² -8,0 °C -5,6 °C 3,2 km/h (1 Bft)
11.01.2026 11:19 23,4 °C -5,6 °C 44 % 83 % 1026,0 hPa 0,0 l/m² 2,7 km/h (1 Bft) W 265 ° 1 min 323 W/m² -8,0 °C -5,6 °C 4,8 km/h (1 Bft)
11.01.2026 11:20 23,4 °C -5,6 °C 44 % 82 % 1025,7 hPa 0,0 l/m² 1,7 km/h (1 Bft) W 261 ° 1 min 325 W/m² -8,2 °C -5,6 °C 4,8 km/h (1 Bft)
11.01.2026 11:21 23,4 °C -5,4 °C 44 % 82 % 1025,8 hPa 0,0 l/m² 2,7 km/h (1 Bft) W 262 ° 1 min 325 W/m² -8,0 °C -5,4 °C 4,8 km/h (1 Bft)
11.01.2026 11:22 23,4 °C -5,4 °C 44 % 82 % 1025,9 hPa 0,0 l/m² 3,4 km/h (1 Bft) W 265 ° 1 min 327 W/m² -8,0 °C -5,4 °C 4,8 km/h (1 Bft)
11.01.2026 11:23 23,4 °C -5,4 °C 44 % 82 % 1025,8 hPa 0,0 l/m² 2,5 km/h (1 Bft) W 264 ° 1 min 327 W/m² -8,0 °C -5,4 °C 4,8 km/h (1 Bft)
11.01.2026 11:24 23,4 °C -5,3 °C 44 % 82 % 1025,8 hPa 0,0 l/m² 3,4 km/h (1 Bft) W 272 ° 1 min 327 W/m² -7,9 °C -5,3 °C 4,8 km/h (1 Bft)
11.01.2026 11:25 23,4 °C -5,3 °C 44 % 82 % 1025,9 hPa 0,0 l/m² 1,8 km/h (1 Bft) W 271 ° 1 min 329 W/m² -7,9 °C -5,3 °C 3,2 km/h (1 Bft)
11.01.2026 11:26 23,4 °C -5,3 °C 44 % 82 % 1025,8 hPa 0,0 l/m² 1,6 km/h (1 Bft) W 270 ° 1 min 329 W/m² -7,9 °C -5,3 °C 3,2 km/h (1 Bft)
11.01.2026 11:27 23,4 °C -5,3 °C 44 % 82 % 1025,7 hPa 0,0 l/m² 0,2 km/h (0 Bft) W 270 ° 1 min 330 W/m² -7,9 °C -5,3 °C 1,6 km/h (1 Bft)
11.01.2026 11:28 23,4 °C -5,2 °C 44 % 81 % 1025,8 hPa 0,0 l/m² 0,6 km/h (0 Bft) W 268 ° 1 min 330 W/m² -7,9 °C -5,2 °C 1,6 km/h (1 Bft)
11.01.2026 11:29 23,4 °C -5,1 °C 44 % 81 % 1025,7 hPa 0,0 l/m² 0,8 km/h (0 Bft) W 269 ° 1 min 330 W/m² -7,8 °C -5,1 °C 3,2 km/h (1 Bft)
11.01.2026 11:30 23,4 °C -5,1 °C 44 % 81 % 1025,7 hPa 0,0 l/m² 1,4 km/h (1 Bft) W 262 ° 1 min 330 W/m² -7,8 °C -5,1 °C 3,2 km/h (1 Bft)
11.01.2026 11:31 23,4 °C -5,0 °C 44 % 81 % 1025,7 hPa 0,0 l/m² 1,6 km/h (1 Bft) W-SW 257 ° 1 min 330 W/m² -7,7 °C -5,0 °C 4,8 km/h (1 Bft)
11.01.2026 11:32 23,4 °C -4,9 °C 44 % 81 % 1025,7 hPa 0,0 l/m² 0,3 km/h (0 Bft) W-SW 257 ° 1 min 330 W/m² -7,6 °C -4,9 °C 1,6 km/h (1 Bft)
11.01.2026 11:33 23,4 °C -4,9 °C 44 % 81 % 1025,7 hPa 0,0 l/m² 0,2 km/h (0 Bft) W-SW 256 ° 1 min 330 W/m² -7,6 °C -4,9 °C 1,6 km/h (1 Bft)
11.01.2026 11:34 23,4 °C -4,8 °C 43 % 81 % 1025,6 hPa 0,0 l/m² 1,4 km/h (1 Bft) W-SW 254 ° 1 min 330 W/m² -7,5 °C -4,8 °C 3,2 km/h (1 Bft)
11.01.2026 11:35 23,5 °C -4,7 °C 43 % 80 % 1025,7 hPa 0,0 l/m² 0,3 km/h (0 Bft) W-SW 253 ° 1 min 330 W/m² -7,6 °C -4,7 °C 1,6 km/h (1 Bft)
11.01.2026 11:36 23,5 °C -4,7 °C 43 % 80 % 1025,6 hPa 0,0 l/m² 1,0 km/h (0 Bft) W-SW 250 ° 1 min 330 W/m² -7,6 °C -4,7 °C 3,2 km/h (1 Bft)
11.01.2026 11:37 23,5 °C -4,6 °C 43 % 80 % 1025,6 hPa 0,0 l/m² 0,8 km/h (0 Bft) W-SW 250 ° 1 min 332 W/m² -7,5 °C -4,6 °C 3,2 km/h (1 Bft)
11.01.2026 11:38 23,4 °C -4,6 °C 43 % 80 % 1025,6 hPa 0,0 l/m² 0,7 km/h (0 Bft) W-SW 248 ° 1 min 332 W/m² -7,5 °C -4,6 °C 3,2 km/h (1 Bft)
11.01.2026 11:39 23,5 °C -4,5 °C 43 % 80 % 1025,6 hPa 0,0 l/m² 0,2 km/h (0 Bft) W-SW 252 ° 1 min 332 W/m² -7,4 °C -4,5 °C 1,6 km/h (1 Bft)
11.01.2026 11:40 23,5 °C -4,4 °C 43 % 80 % 1025,6 hPa 0,0 l/m² 1,1 km/h (1 Bft) W-SW 245 ° 1 min 332 W/m² -7,3 °C -4,4 °C 3,2 km/h (1 Bft)
11.01.2026 11:41 23,4 °C -4,4 °C 43 % 79 % 1025,5 hPa 0,0 l/m² 2,1 km/h (1 Bft) W-SW 252 ° 1 min 332 W/m² -7,5 °C -4,4 °C 4,8 km/h (1 Bft)
11.01.2026 11:42 23,5 °C -4,3 °C 43 % 79 % 1025,6 hPa 0,0 l/m² 1,4 km/h (1 Bft) W-SW 253 ° 1 min 332 W/m² -7,4 °C -4,3 °C 4,8 km/h (1 Bft)
11.01.2026 11:43 23,5 °C -4,2 °C 43 % 79 % 1025,6 hPa 0,0 l/m² 3,5 km/h (1 Bft) W-SW 252 ° 1 min 332 W/m² -7,3 °C -4,2 °C 6,4 km/h (2 Bft)
11.01.2026 11:44 23,6 °C -4,2 °C 43 % 79 % 1025,6 hPa 0,0 l/m² 4,5 km/h (1 Bft) W-SW 258 ° 1 min 332 W/m² -7,3 °C -4,2 °C 6,4 km/h (2 Bft)
11.01.2026 11:45 23,6 °C -4,2 °C 43 % 78 % 1025,6 hPa 0,0 l/m² 4,3 km/h (1 Bft) W-SW 252 ° 1 min 332 W/m² -7,4 °C -4,2 °C 6,4 km/h (2 Bft)
11.01.2026 11:46 23,6 °C -4,2 °C 43 % 78 % 1025,6 hPa 0,0 l/m² 6,4 km/h (2 Bft) W-SW 238 ° 1 min 334 W/m² -7,4 °C -4,1 °C 11,3 km/h (2 Bft)
11.01.2026 11:47 23,6 °C -4,1 °C 43 % 77 % 1025,6 hPa 0,0 l/m² 5,1 km/h (1 Bft) W 259 ° 1 min 334 W/m² -7,5 °C -4,1 °C 6,4 km/h (2 Bft)
11.01.2026 11:48 23,6 °C -4,1 °C 43 % 77 % 1025,5 hPa 0,0 l/m² 5,0 km/h (1 Bft) W-SW 257 ° 1 min 334 W/m² -7,5 °C -4,1 °C 8,0 km/h (2 Bft)
11.01.2026 11:49 23,6 °C -4,1 °C 43 % 77 % 1025,5 hPa 0,0 l/m² 5,4 km/h (2 Bft) W-SW 238 ° 1 min 336 W/m² -7,5 °C -4,1 °C 8,0 km/h (2 Bft)
11.01.2026 11:50 23,6 °C -4,0 °C 43 % 77 % 1025,5 hPa 0,0 l/m² 6,9 km/h (2 Bft) W 262 ° 1 min 336 W/m² -7,4 °C -4,6 °C 12,9 km/h (3 Bft)
11.01.2026 11:51 23,6 °C -4,0 °C 43 % 77 % 1025,5 hPa 0,0 l/m² 4,2 km/h (1 Bft) W-SW 245 ° 1 min 336 W/m² -7,4 °C -4,0 °C 6,4 km/h (2 Bft)
11.01.2026 11:52 23,6 °C -4,0 °C 43 % 76 % 1025,5 hPa 0,0 l/m² 2,5 km/h (1 Bft) W-SW 252 ° 1 min 336 W/m² -7,6 °C -4,0 °C 4,8 km/h (1 Bft)
11.01.2026 11:53 23,6 °C -3,9 °C 43 % 76 % 1025,4 hPa 0,0 l/m² 2,8 km/h (1 Bft) W-SW 253 ° 1 min 336 W/m² -7,5 °C -3,9 °C 4,8 km/h (1 Bft)
11.01.2026 11:54 23,6 °C -3,9 °C 43 % 76 % 1025,4 hPa 0,0 l/m² 2,0 km/h (1 Bft) W-SW 254 ° 1 min 338 W/m² -7,5 °C -3,9 °C 6,4 km/h (2 Bft)
11.01.2026 11:55 23,6 °C -3,9 °C 43 % 76 % 1025,5 hPa 0,0 l/m² 0,8 km/h (0 Bft) W-SW 255 ° 1 min 338 W/m² -7,5 °C -3,9 °C 3,2 km/h (1 Bft)
11.01.2026 11:56 23,6 °C -3,9 °C 43 % 76 % 1025,5 hPa 0,0 l/m² 2,7 km/h (1 Bft) W-SW 257 ° 1 min 338 W/m² -7,5 °C -3,9 °C 4,8 km/h (1 Bft)
11.01.2026 11:57 23,6 °C -3,8 °C 43 % 76 % 1025,6 hPa 0,0 l/m² 1,4 km/h (1 Bft) W-SW 255 ° 1 min 338 W/m² -7,4 °C -3,8 °C 4,8 km/h (1 Bft)
11.01.2026 11:58 23,6 °C -3,8 °C 43 % 75 % 1025,5 hPa 0,0 l/m² 1,4 km/h (1 Bft) W-SW 255 ° 1 min 338 W/m² -7,6 °C -3,8 °C 3,2 km/h (1 Bft)
11.01.2026 11:59 23,6 °C -3,8 °C 43 % 75 % 1025,5 hPa 0,0 l/m² 0,1 km/h (0 Bft) W-SW 255 ° 1 min 338 W/m² -7,6 °C -3,8 °C 1,6 km/h (1 Bft)
11.01.2026 12:00 23,6 °C -3,7 °C 43 % 75 % 1025,5 hPa 0,0 l/m² 0,1 km/h (0 Bft) W-SW 255 ° 1 min 338 W/m² -7,5 °C -3,7 °C 1,6 km/h (1 Bft)
11.01.2026 12:01 23,6 °C -3,7 °C 43 % 75 % 1025,5 hPa 0,0 l/m² 1,6 km/h (1 Bft) W-SW 247 ° 1 min 338 W/m² -7,5 °C -3,7 °C 3,2 km/h (1 Bft)
11.01.2026 12:06 23,6 °C -3,3 °C 43 % 74 % 1025,6 hPa 0,0 l/m² 0,0 km/h (0 Bft) W-SW 254 ° 5 min 339 W/m² -7,3 °C -3,3 °C 0,0 km/h (0 Bft)
11.01.2026 12:08 23,6 °C -3,2 °C 42 % 74 % 1025,6 hPa 0,0 l/m² 0,0 km/h (0 Bft) W-SW 254 ° 2 min 339 W/m² -7,2 °C -3,2 °C 0,0 km/h (0 Bft)
11.01.2026 12:09 23,6 °C -3,1 °C 42 % 74 % 1025,5 hPa 0,0 l/m² 0,0 km/h (0 Bft) W-SW 254 ° 1 min 339 W/m² -7,1 °C -3,1 °C 0,0 km/h (0 Bft)
11.01.2026 12:11 23,6 °C -3,1 °C 42 % 73 % 1025,7 hPa 0,0 l/m² 0,0 km/h (0 Bft) W-SW 254 ° 2 min 339 W/m² -7,2 °C -3,1 °C 0,0 km/h (0 Bft)
11.01.2026 12:12 23,6 °C -2,9 °C 42 % 73 % 1025,6 hPa 0,0 l/m² 0,5 km/h (0 Bft) SW 221 ° 1 min 341 W/m² -7,0 °C -2,9 °C 3,2 km/h (1 Bft)
11.01.2026 12:13 23,6 °C -2,9 °C 42 % 73 % 1025,6 hPa 0,0 l/m² 4,0 km/h (1 Bft) SW 214 ° 1 min 341 W/m² -7,0 °C -2,9 °C 4,8 km/h (1 Bft)
11.01.2026 12:14 23,6 °C -2,9 °C 43 % 72 % 1025,7 hPa 0,0 l/m² 4,7 km/h (1 Bft) SW 214 ° 1 min 341 W/m² -7,2 °C -2,9 °C 6,4 km/h (2 Bft)
11.01.2026 12:15 23,6 °C -2,9 °C 43 % 72 % 1025,7 hPa 0,0 l/m² 4,7 km/h (1 Bft) SW 214 ° 1 min 341 W/m² -7,2 °C -2,9 °C 6,4 km/h (2 Bft)
11.01.2026 12:16 23,6 °C -2,9 °C 43 % 72 % 1025,7 hPa 0,0 l/m² 2,7 km/h (1 Bft) SW 214 ° 1 min 341 W/m² -7,2 °C -2,9 °C 3,2 km/h (1 Bft)
11.01.2026 12:18 23,7 °C -3,0 °C 44 % 71 % 1025,6 hPa 0,0 l/m² 2,9 km/h (1 Bft) SW 214 ° 2 min 343 W/m² -7,5 °C -3,0 °C 4,8 km/h (1 Bft)
11.01.2026 12:19 23,7 °C -3,0 °C 44 % 71 % 1025,6 hPa 0,0 l/m² 4,2 km/h (1 Bft) SW 214 ° 1 min 341 W/m² -7,5 °C -3,0 °C 6,4 km/h (2 Bft)
11.01.2026 12:21 23,7 °C -3,1 °C 44 % 71 % 1025,7 hPa 0,0 l/m² 4,3 km/h (1 Bft) SW 226 ° 2 min 341 W/m² -7,6 °C -3,1 °C 6,4 km/h (2 Bft)
11.01.2026 12:22 23,7 °C -3,1 °C 44 % 71 % 1025,7 hPa 0,0 l/m² 3,3 km/h (1 Bft) SW 226 ° 1 min 341 W/m² -7,6 °C -3,1 °C 4,8 km/h (1 Bft)
11.01.2026 12:23 23,7 °C -3,1 °C 44 % 71 % 1025,7 hPa 0,0 l/m² 0,6 km/h (0 Bft) SW 226 ° 1 min 341 W/m² -7,6 °C -3,1 °C 1,6 km/h (1 Bft)
11.01.2026 12:24 23,7 °C -3,1 °C 44 % 71 % 1025,6 hPa 0,0 l/m² 0,3 km/h (0 Bft) SW 226 ° 1 min 341 W/m² -7,6 °C -3,1 °C 1,6 km/h (1 Bft)
11.01.2026 12:25 23,7 °C -3,1 °C 44 % 71 % 1025,7 hPa 0,0 l/m² 0,0 km/h (0 Bft) SW 226 ° 1 min 343 W/m² -7,6 °C -3,1 °C 0,0 km/h (0 Bft)
11.01.2026 12:26 23,7 °C -3,0 °C 44 % 71 % 1025,6 hPa 0,0 l/m² 0,5 km/h (0 Bft) SW 226 ° 1 min 341 W/m² -7,5 °C -3,0 °C 1,6 km/h (1 Bft)
11.01.2026 12:27 23,7 °C -2,9 °C 44 % 71 % 1025,7 hPa 0,0 l/m² 0,6 km/h (0 Bft) SW 226 ° 1 min 341 W/m² -7,4 °C -2,9 °C 3,2 km/h (1 Bft)
11.01.2026 12:28 23,7 °C -2,9 °C 44 % 71 % 1025,7 hPa 0,0 l/m² 0,7 km/h (0 Bft) SW 226 ° 1 min 341 W/m² -7,4 °C -2,9 °C 3,2 km/h (1 Bft)
11.01.2026 12:29 23,7 °C -2,9 °C 44 % 71 % 1025,7 hPa 0,0 l/m² 2,4 km/h (1 Bft) SW 236 ° 1 min 341 W/m² -7,4 °C -2,9 °C 4,8 km/h (1 Bft)
11.01.2026 12:31 23,7 °C -2,8 °C 44 % 71 % 1025,6 hPa 0,0 l/m² 2,7 km/h (1 Bft) W-SW 241 ° 2 min 341 W/m² -7,3 °C -2,8 °C 4,8 km/h (1 Bft)
11.01.2026 12:33 23,7 °C -2,7 °C 44 % 71 % 1025,7 hPa 0,0 l/m² 2,2 km/h (1 Bft) W-SW 239 ° 2 min 343 W/m² -7,2 °C -2,7 °C 4,8 km/h (1 Bft)
11.01.2026 12:34 23,7 °C -2,7 °C 44 % 70 % 1025,6 hPa 0,0 l/m² 4,0 km/h (1 Bft) SW 227 ° 1 min 341 W/m² -7,4 °C -2,7 °C 4,8 km/h (1 Bft)
11.01.2026 12:35 23,7 °C -2,6 °C 44 % 70 % 1025,6 hPa 0,0 l/m² 2,1 km/h (1 Bft) SW 229 ° 1 min 343 W/m² -7,3 °C -2,6 °C 4,8 km/h (1 Bft)
11.01.2026 12:36 23,7 °C -2,6 °C 44 % 70 % 1025,6 hPa 0,0 l/m² 1,5 km/h (1 Bft) SW 229 ° 1 min 341 W/m² -7,3 °C -2,6 °C 3,2 km/h (1 Bft)
11.01.2026 12:37 23,7 °C -2,6 °C 45 % 70 % 1025,6 hPa 0,0 l/m² 4,0 km/h (1 Bft) SW 229 ° 1 min 343 W/m² -7,3 °C -2,6 °C 6,4 km/h (2 Bft)
11.01.2026 12:38 23,7 °C -2,6 °C 45 % 70 % 1025,6 hPa 0,0 l/m² 2,3 km/h (1 Bft) SW 230 ° 1 min 341 W/m² -7,3 °C -2,6 °C 3,2 km/h (1 Bft)
11.01.2026 12:39 23,7 °C -2,5 °C 45 % 70 % 1025,6 hPa 0,0 l/m² 2,3 km/h (1 Bft) SW 231 ° 1 min 341 W/m² -7,2 °C -2,5 °C 3,2 km/h (1 Bft)
11.01.2026 12:41 23,7 °C -2,5 °C 45 % 70 % 1025,6 hPa 0,0 l/m² 0,8 km/h (0 Bft) SW 231 ° 2 min 341 W/m² -7,2 °C -2,5 °C 3,2 km/h (1 Bft)
11.01.2026 12:43 23,7 °C -2,4 °C 45 % 70 % 1025,6 hPa 0,0 l/m² 2,1 km/h (1 Bft) SW 230 ° 2 min 341 W/m² -7,1 °C -2,4 °C 4,8 km/h (1 Bft)
11.01.2026 12:45 23,7 °C -2,4 °C 45 % 69 % 1025,6 hPa 0,0 l/m² 0,8 km/h (0 Bft) SW 230 ° 2 min 341 W/m² -7,3 °C -2,4 °C 3,2 km/h (1 Bft)
11.01.2026 12:46 23,7 °C -2,4 °C 45 % 69 % 1025,7 hPa 0,0 l/m² 0,2 km/h (0 Bft) SW 230 ° 1 min 339 W/m² -7,3 °C -2,4 °C 1,6 km/h (1 Bft)
11.01.2026 12:47 23,7 °C -2,4 °C 45 % 69 % 1025,7 hPa 0,0 l/m² 0,0 km/h (0 Bft) SW 230 ° 1 min 339 W/m² -7,3 °C -2,4 °C 0,0 km/h (0 Bft)
11.01.2026 12:48 23,7 °C -2,4 °C 45 % 69 % 1025,7 hPa 0,0 l/m² 0,0 km/h (0 Bft) SW 230 ° 1 min 339 W/m² -7,3 °C -2,4 °C 0,0 km/h (0 Bft)
11.01.2026 12:49 23,7 °C -2,4 °C 45 % 69 % 1025,6 hPa 0,0 l/m² 0,0 km/h (0 Bft) SW 230 ° 1 min 339 W/m² -7,3 °C -2,4 °C 0,0 km/h (0 Bft)
11.01.2026 12:51 23,7 °C -2,3 °C 45 % 70 % 1025,7 hPa 0,2 l/m² 0,4 km/h (0 Bft) SW 230 ° 2 min 339 W/m² -7,0 °C -2,3 °C 1,6 km/h (1 Bft)
11.01.2026 12:53 23,7 °C -2,3 °C 45 % 69 % 1025,7 hPa 0,0 l/m² 2,5 km/h (1 Bft) S-SW 212 ° 2 min 338 W/m² -7,2 °C -2,3 °C 4,8 km/h (1 Bft)
11.01.2026 12:54 23,6 °C -2,2 °C 45 % 69 % 1025,6 hPa 0,0 l/m² 4,6 km/h (1 Bft) S-SW 207 ° 1 min 338 W/m² -7,1 °C -2,2 °C 8,0 km/h (2 Bft)
11.01.2026 12:55 23,6 °C -2,2 °C 45 % 69 % 1025,7 hPa 0,0 l/m² 6,5 km/h (2 Bft) SW 219 ° 1 min 338 W/m² -7,1 °C -2,3 °C 8,0 km/h (2 Bft)
11.01.2026 12:56 23,6 °C -2,2 °C 44 % 69 % 1025,7 hPa 0,0 l/m² 4,2 km/h (1 Bft) SW 219 ° 1 min 338 W/m² -7,1 °C -2,2 °C 6,4 km/h (2 Bft)
11.01.2026 12:57 23,6 °C -2,2 °C 43 % 69 % 1025,6 hPa 0,0 l/m² 3,2 km/h (1 Bft) SW 218 ° 1 min 336 W/m² -7,1 °C -2,2 °C 4,8 km/h (1 Bft)
11.01.2026 12:58 23,6 °C -2,2 °C 43 % 69 % 1025,7 hPa 0,0 l/m² 3,5 km/h (1 Bft) S-SW 199 ° 1 min 336 W/m² -7,1 °C -2,2 °C 6,4 km/h (2 Bft)
11.01.2026 12:59 23,6 °C -2,2 °C 43 % 68 % 1025,6 hPa 0,0 l/m² 2,8 km/h (1 Bft) S-SW 202 ° 1 min 336 W/m² -7,3 °C -2,2 °C 4,8 km/h (1 Bft)
11.01.2026 13:01 23,5 °C -2,2 °C 43 % 68 % 1025,7 hPa 0,0 l/m² 2,4 km/h (1 Bft) S-SW 202 ° 2 min 334 W/m² -7,3 °C -2,2 °C 4,8 km/h (1 Bft)
11.01.2026 13:03 23,4 °C -2,2 °C 42 % 69 % 1025,5 hPa 0,0 l/m² 1,3 km/h (1 Bft) S-SW 202 ° 2 min 332 W/m² -7,1 °C -2,2 °C 3,2 km/h (1 Bft)
11.01.2026 13:04 23,4 °C -2,1 °C 42 % 69 % 1025,5 hPa 0,0 l/m² 1,3 km/h (1 Bft) S-SW 202 ° 1 min 330 W/m² -7,0 °C -2,1 °C 4,8 km/h (1 Bft)
11.01.2026 13:05 23,4 °C -2,1 °C 42 % 69 % 1025,6 hPa 0,0 l/m² 1,5 km/h (1 Bft) S-SW 202 ° 1 min 330 W/m² -7,0 °C -2,1 °C 3,2 km/h (1 Bft)
11.01.2026 13:06 23,4 °C -2,1 °C 42 % 69 % 1025,5 hPa 0,0 l/m² 0,3 km/h (0 Bft) S-SW 202 ° 1 min 330 W/m² -7,0 °C -2,1 °C 3,2 km/h (1 Bft)
11.01.2026 13:07 23,4 °C -2,1 °C 42 % 69 % 1025,4 hPa 0,0 l/m² 0,0 km/h (0 Bft) S-SW 202 ° 1 min 329 W/m² -7,0 °C -2,1 °C 0,0 km/h (0 Bft)
11.01.2026 13:08 23,4 °C -2,1 °C 42 % 69 % 1025,5 hPa 0,0 l/m² 0,1 km/h (0 Bft) S-SW 201 ° 1 min 329 W/m² -7,0 °C -2,1 °C 1,6 km/h (1 Bft)
11.01.2026 13:09 23,4 °C -2,1 °C 42 % 69 % 1025,4 hPa 0,0 l/m² 0,0 km/h (0 Bft) S-SW 201 ° 1 min 329 W/m² -7,0 °C -2,1 °C 0,0 km/h (0 Bft)
11.01.2026 13:11 23,3 °C -2,2 °C 43 % 69 % 1025,5 hPa 0,0 l/m² 0,0 km/h (0 Bft) S-SW 201 ° 2 min 327 W/m² -7,1 °C -2,2 °C 0,0 km/h (0 Bft)
11.01.2026 13:13 23,3 °C -2,2 °C 43 % 69 % 1025,4 hPa 0,0 l/m² 0,0 km/h (0 Bft) S-SW 201 ° 2 min 325 W/m² -7,1 °C -2,2 °C 0,0 km/h (0 Bft)
11.01.2026 13:14 23,3 °C -2,2 °C 43 % 69 % 1025,5 hPa 0,0 l/m² 0,0 km/h (0 Bft) S-SW 201 ° 1 min 325 W/m² -7,1 °C -2,2 °C 0,0 km/h (0 Bft)
11.01.2026 13:15 23,3 °C -2,3 °C 43 % 69 % 1025,5 hPa 0,0 l/m² 0,2 km/h (0 Bft) S-SW 201 ° 1 min 323 W/m² -7,2 °C -2,3 °C 1,6 km/h (1 Bft)
11.01.2026 13:16 23,3 °C -2,3 °C 43 % 69 % 1025,5 hPa 0,0 l/m² 2,1 km/h (1 Bft) S-SW 196 ° 1 min 323 W/m² -7,2 °C -2,3 °C 3,2 km/h (1 Bft)
11.01.2026 13:17 23,3 °C -2,2 °C 43 % 69 % 1025,4 hPa 0,0 l/m² 3,5 km/h (1 Bft) S 190 ° 1 min 322 W/m² -7,1 °C -2,2 °C 4,8 km/h (1 Bft)
11.01.2026 13:18 23,3 °C -2,2 °C 43 % 69 % 1025,5 hPa 0,0 l/m² 5,6 km/h (2 Bft) S 178 ° 1 min 322 W/m² -7,1 °C -2,2 °C 8,0 km/h (2 Bft)
11.01.2026 13:19 23,3 °C -2,2 °C 43 % 69 % 1025,5 hPa 0,0 l/m² 7,3 km/h (2 Bft) S 176 ° 1 min 322 W/m² -7,1 °C -3,2 °C 8,0 km/h (2 Bft)
11.01.2026 13:21 23,2 °C -2,2 °C 43 % 68 % 1025,5 hPa 0,0 l/m² 5,3 km/h (1 Bft) S 176 ° 2 min 320 W/m² -7,3 °C -2,2 °C 6,4 km/h (2 Bft)
11.01.2026 13:23 23,3 °C -2,2 °C 43 % 68 % 1025,5 hPa 0,0 l/m² 4,7 km/h (1 Bft) S 176 ° 2 min 316 W/m² -7,3 °C -2,2 °C 6,4 km/h (2 Bft)
11.01.2026 13:24 23,2 °C -2,2 °C 43 % 68 % 1025,4 hPa 0,0 l/m² 4,7 km/h (1 Bft) S 176 ° 1 min 316 W/m² -7,3 °C -2,2 °C 4,8 km/h (1 Bft)
11.01.2026 13:25 23,2 °C -2,2 °C 43 % 68 % 1025,5 hPa 0,0 l/m² 3,2 km/h (1 Bft) S 176 ° 1 min 315 W/m² -7,3 °C -2,2 °C 4,8 km/h (1 Bft)
11.01.2026 13:26 23,2 °C -2,2 °C 43 % 68 % 1025,5 hPa 0,0 l/m² 1,9 km/h (1 Bft) S 176 ° 1 min 315 W/m² -7,3 °C -2,2 °C 4,8 km/h (1 Bft)
11.01.2026 13:27 23,2 °C -2,2 °C 43 % 68 % 1025,5 hPa 0,0 l/m² 0,2 km/h (0 Bft) S 176 ° 1 min 313 W/m² -7,3 °C -2,2 °C 1,6 km/h (1 Bft)
11.01.2026 13:28 23,2 °C -2,2 °C 43 % 69 % 1025,4 hPa 0,0 l/m² 0,2 km/h (0 Bft) S 176 ° 1 min 311 W/m² -7,1 °C -2,2 °C 1,6 km/h (1 Bft)
11.01.2026 13:29 23,2 °C -2,2 °C 44 % 69 % 1025,5 hPa 0,0 l/m² 1,3 km/h (1 Bft) S 176 ° 1 min 309 W/m² -7,1 °C -2,2 °C 3,2 km/h (1 Bft)
11.01.2026 13:31 23,2 °C -2,2 °C 44 % 69 % 1025,4 hPa 0,0 l/m² 2,1 km/h (1 Bft) S 176 ° 2 min 309 W/m² -7,1 °C -2,2 °C 3,2 km/h (1 Bft)
11.01.2026 13:33 23,2 °C -2,2 °C 44 % 69 % 1025,4 hPa 0,0 l/m² 1,9 km/h (1 Bft) S 178 ° 2 min 308 W/m² -7,1 °C -2,2 °C 4,8 km/h (1 Bft)
11.01.2026 13:34 23,2 °C -2,2 °C 44 % 69 % 1025,4 hPa 0,0 l/m² 2,3 km/h (1 Bft) S 181 ° 1 min 306 W/m² -7,1 °C -2,2 °C 3,2 km/h (1 Bft)
11.01.2026 13:35 23,2 °C -2,1 °C 44 % 69 % 1025,5 hPa 0,0 l/m² 3,4 km/h (1 Bft) S-SW 201 ° 1 min 304 W/m² -7,0 °C -2,1 °C 4,8 km/h (1 Bft)
11.01.2026 13:36 23,2 °C -2,1 °C 44 % 69 % 1025,5 hPa 0,0 l/m² 7,7 km/h (2 Bft) S-SW 209 ° 1 min 304 W/m² -7,0 °C -3,5 °C 9,7 km/h (2 Bft)
11.01.2026 13:37 23,2 °C -2,2 °C 44 % 69 % 1025,5 hPa 0,0 l/m² 7,6 km/h (2 Bft) SW 215 ° 1 min 302 W/m² -7,1 °C -3,5 °C 8,0 km/h (2 Bft)
11.01.2026 13:38 23,2 °C -2,2 °C 44 % 69 % 1025,5 hPa 0,0 l/m² 8,2 km/h (2 Bft) SW 215 ° 1 min 302 W/m² -7,1 °C -4,2 °C 9,7 km/h (2 Bft)
11.01.2026 13:39 23,2 °C -2,2 °C 44 % 69 % 1025,5 hPa 0,0 l/m² 7,2 km/h (2 Bft) SW 215 ° 1 min 302 W/m² -7,1 °C -3,1 °C 8,0 km/h (2 Bft)
11.01.2026 13:41 23,2 °C -2,3 °C 44 % 69 % 1025,5 hPa 0,0 l/m² 6,3 km/h (2 Bft) SW 215 ° 2 min 299 W/m² -7,2 °C -2,3 °C 8,0 km/h (2 Bft)
11.01.2026 13:43 23,2 °C -2,4 °C 44 % 69 % 1025,5 hPa 0,0 l/m² 5,7 km/h (2 Bft) SW 215 ° 2 min 295 W/m² -7,3 °C -2,4 °C 6,4 km/h (2 Bft)
11.01.2026 13:44 23,2 °C -2,4 °C 44 % 69 % 1025,5 hPa 0,0 l/m² 6,8 km/h (2 Bft) S-SW 212 ° 1 min 295 W/m² -7,3 °C -2,8 °C 8,0 km/h (2 Bft)
11.01.2026 13:45 23,2 °C -2,4 °C 44 % 69 % 1025,5 hPa 0,0 l/m² 6,4 km/h (2 Bft) S-SW 213 ° 1 min 294 W/m² -7,3 °C -2,4 °C 6,4 km/h (2 Bft)
11.01.2026 13:46 23,2 °C -2,5 °C 44 % 69 % 1025,6 hPa 0,0 l/m² 7,9 km/h (2 Bft) S-SW 211 ° 1 min 294 W/m² -7,4 °C -4,2 °C 9,7 km/h (2 Bft)
11.01.2026 13:47 23,2 °C -2,6 °C 44 % 70 % 1025,5 hPa 0,0 l/m² 6,8 km/h (2 Bft) S-SW 209 ° 1 min 290 W/m² -7,3 °C -3,0 °C 9,7 km/h (2 Bft)
11.01.2026 13:48 23,2 °C -2,6 °C 44 % 69 % 1025,6 hPa 0,0 l/m² 6,5 km/h (2 Bft) S-SW 210 ° 1 min 288 W/m² -7,5 °C -2,7 °C 8,0 km/h (2 Bft)
11.01.2026 13:49 23,1 °C -2,7 °C 44 % 70 % 1025,5 hPa 0,0 l/m² 6,7 km/h (2 Bft) S-SW 208 ° 1 min 288 W/m² -7,4 °C -3,0 °C 8,0 km/h (2 Bft)
11.01.2026 13:51 23,2 °C -2,7 °C 44 % 70 % 1025,6 hPa 0,0 l/m² 7,5 km/h (2 Bft) SW 217 ° 2 min 285 W/m² -7,4 °C -3,9 °C 9,7 km/h (2 Bft)
11.01.2026 13:53 23,2 °C -2,8 °C 44 % 70 % 1025,6 hPa 0,0 l/m² 6,4 km/h (2 Bft) SW 217 ° 2 min 281 W/m² -7,5 °C -2,8 °C 8,0 km/h (2 Bft)
11.01.2026 13:54 23,1 °C -2,8 °C 44 % 70 % 1025,6 hPa 0,0 l/m² 8,4 km/h (2 Bft) SW 217 ° 1 min 279 W/m² -7,5 °C -5,0 °C 9,7 km/h (2 Bft)
11.01.2026 13:55 23,1 °C -2,8 °C 44 % 70 % 1025,7 hPa 0,0 l/m² 8,0 km/h (2 Bft) SW 217 ° 1 min 278 W/m² -7,5 °C -4,6 °C 9,7 km/h (2 Bft)
11.01.2026 13:56 23,1 °C -2,9 °C 44 % 71 % 1025,6 hPa 0,0 l/m² 7,9 km/h (2 Bft) SW 221 ° 1 min 278 W/m² -7,4 °C -4,6 °C 9,7 km/h (2 Bft)
11.01.2026 13:57 23,1 °C -2,9 °C 44 % 71 % 1025,6 hPa 0,0 l/m² 7,4 km/h (2 Bft) SW 220 ° 1 min 276 W/m² -7,4 °C -4,0 °C 8,0 km/h (2 Bft)
11.01.2026 13:58 23,1 °C -3,0 °C 44 % 71 % 1025,6 hPa 0,0 l/m² 7,3 km/h (2 Bft) SW 218 ° 1 min 274 W/m² -7,5 °C -4,0 °C 8,0 km/h (2 Bft)
11.01.2026 13:59 23,1 °C -3,1 °C 44 % 71 % 1025,6 hPa 0,0 l/m² 6,6 km/h (2 Bft) SW 219 ° 1 min 272 W/m² -7,6 °C -3,3 °C 8,0 km/h (2 Bft)
11.01.2026 14:01 23,1 °C -3,1 °C 44 % 71 % 1025,5 hPa 0,0 l/m² 6,0 km/h (2 Bft) SW 218 ° 2 min 269 W/m² -7,6 °C -3,1 °C 8,0 km/h (2 Bft)
11.01.2026 14:03 23,1 °C -3,2 °C 44 % 72 % 1025,6 hPa 0,0 l/m² 6,5 km/h (2 Bft) SW 217 ° 2 min 265 W/m² -7,5 °C -3,3 °C 9,7 km/h (2 Bft)
11.01.2026 14:04 23,1 °C -3,2 °C 44 % 72 % 1025,6 hPa 0,0 l/m² 7,4 km/h (2 Bft) SW 217 ° 1 min 262 W/m² -7,5 °C -4,3 °C 8,0 km/h (2 Bft)
11.01.2026 14:05 23,1 °C -3,3 °C 44 % 72 % 1025,6 hPa 0,0 l/m² 8,2 km/h (2 Bft) SW 217 ° 1 min 262 W/m² -7,6 °C -5,3 °C 9,7 km/h (2 Bft)
11.01.2026 14:06 23,1 °C -3,3 °C 44 % 72 % 1025,6 hPa 0,0 l/m² 7,5 km/h (2 Bft) SW 217 ° 1 min 260 W/m² -7,6 °C -4,6 °C 9,7 km/h (2 Bft)
11.01.2026 14:08 23,1 °C -3,3 °C 45 % 72 % 1025,6 hPa 0,0 l/m² 6,9 km/h (2 Bft) SW 215 ° 2 min 258 W/m² -7,6 °C -3,9 °C 9,7 km/h (2 Bft)
11.01.2026 14:09 23,1 °C -3,3 °C 45 % 72 % 1025,6 hPa 0,0 l/m² 5,9 km/h (2 Bft) SW 215 ° 1 min 255 W/m² -7,6 °C -3,3 °C 6,4 km/h (2 Bft)
11.01.2026 14:11 23,1 °C -3,4 °C 45 % 72 % 1025,5 hPa 0,0 l/m² 7,9 km/h (2 Bft) SW 214 ° 2 min 251 W/m² -7,7 °C -5,1 °C 11,3 km/h (2 Bft)
11.01.2026 14:12 23,1 °C -3,4 °C 45 % 72 % 1025,5 hPa 0,0 l/m² 6,4 km/h (2 Bft) SW 214 ° 1 min 250 W/m² -7,7 °C -3,3 °C 8,0 km/h (2 Bft)
11.01.2026 14:13 23,1 °C -3,4 °C 45 % 72 % 1025,5 hPa 0,0 l/m² 6,0 km/h (2 Bft) SW 214 ° 1 min 248 W/m² -7,7 °C -3,4 °C 8,0 km/h (2 Bft)
11.01.2026 14:14 23,1 °C -3,4 °C 45 % 72 % 1025,5 hPa 0,0 l/m² 7,6 km/h (2 Bft) S-SW 213 ° 1 min 248 W/m² -7,7 °C -4,8 °C 8,0 km/h (2 Bft)
11.01.2026 14:15 23,1 °C -3,5 °C 45 % 72 % 1025,5 hPa 0,0 l/m² 7,1 km/h (2 Bft) S-SW 213 ° 1 min 246 W/m² -7,8 °C -4,3 °C 8,0 km/h (2 Bft)
11.01.2026 14:16 23,1 °C -3,5 °C 45 % 73 % 1025,5 hPa 0,0 l/m² 6,4 km/h (2 Bft) S-SW 213 ° 1 min 243 W/m² -7,6 °C -3,4 °C 8,0 km/h (2 Bft)
11.01.2026 14:17 23,1 °C -3,6 °C 45 % 73 % 1025,5 hPa 0,0 l/m² 7,6 km/h (2 Bft) SW 215 ° 1 min 241 W/m² -7,7 °C -5,0 °C 8,0 km/h (2 Bft)
11.01.2026 14:18 23,1 °C -3,6 °C 45 % 73 % 1025,5 hPa 0,0 l/m² 7,3 km/h (2 Bft) SW 215 ° 1 min 239 W/m² -7,7 °C -4,6 °C 9,7 km/h (2 Bft)
11.01.2026 14:19 23,1 °C -3,7 °C 45 % 73 % 1025,6 hPa 0,0 l/m² 8,9 km/h (2 Bft) SW 215 ° 1 min 237 W/m² -7,8 °C -6,5 °C 9,7 km/h (2 Bft)
11.01.2026 14:21 23,1 °C -3,7 °C 45 % 73 % 1025,6 hPa 0,0 l/m² 8,8 km/h (2 Bft) SW 216 ° 2 min 236 W/m² -7,8 °C -6,4 °C 9,7 km/h (2 Bft)
11.01.2026 14:23 23,1 °C -3,8 °C 45 % 73 % 1025,7 hPa 0,0 l/m² 8,3 km/h (2 Bft) S-SW 213 ° 2 min 230 W/m² -7,9 °C -6,0 °C 11,3 km/h (2 Bft)
11.01.2026 14:24 23,1 °C -3,8 °C 45 % 73 % 1025,6 hPa 0,0 l/m² 9,6 km/h (2 Bft) SW 215 ° 1 min 229 W/m² -7,9 °C -7,3 °C 11,3 km/h (2 Bft)
11.01.2026 14:25 23,1 °C -3,8 °C 45 % 73 % 1025,6 hPa 0,0 l/m² 7,3 km/h (2 Bft) SW 216 ° 1 min 227 W/m² -7,9 °C -4,8 °C 8,0 km/h (2 Bft)
11.01.2026 14:26 23,1 °C -3,8 °C 45 % 73 % 1025,6 hPa 0,0 l/m² 6,6 km/h (2 Bft) SW 217 ° 1 min 225 W/m² -7,9 °C -4,0 °C 8,0 km/h (2 Bft)
11.01.2026 14:27 23,1 °C -3,9 °C 45 % 74 % 1025,5 hPa 0,0 l/m² 6,2 km/h (2 Bft) SW 217 ° 1 min 220 W/m² -7,8 °C -3,9 °C 6,4 km/h (2 Bft)
11.01.2026 14:28 23,1 °C -3,9 °C 45 % 74 % 1025,6 hPa 0,0 l/m² 6,1 km/h (2 Bft) SW 217 ° 1 min 195 W/m² -7,8 °C -3,9 °C 6,4 km/h (2 Bft)
11.01.2026 14:29 23,1 °C -3,9 °C 45 % 74 % 1025,6 hPa 0,0 l/m² 4,6 km/h (1 Bft) SW 217 ° 1 min 183 W/m² -7,8 °C -3,9 °C 6,4 km/h (2 Bft)
11.01.2026 14:31 23,1 °C -3,9 °C 45 % 74 % 1025,6 hPa 0,0 l/m² 5,2 km/h (1 Bft) SW 217 ° 2 min 202 W/m² -7,8 °C -3,9 °C 6,4 km/h (2 Bft)
11.01.2026 14:33 23,1 °C -3,9 °C 45 % 74 % 1025,6 hPa 0,0 l/m² 5,8 km/h (2 Bft) SW 217 ° 2 min 197 W/m² -7,8 °C -3,9 °C 8,0 km/h (2 Bft)
11.01.2026 14:34 23,1 °C -3,9 °C 45 % 74 % 1025,6 hPa 0,0 l/m² 4,8 km/h (1 Bft) SW 217 ° 1 min 204 W/m² -7,8 °C -3,9 °C 4,8 km/h (1 Bft)
11.01.2026 14:35 23,1 °C -3,9 °C 45 % 74 % 1025,6 hPa 0,0 l/m² 5,9 km/h (2 Bft) SW 217 ° 1 min 204 W/m² -7,8 °C -3,9 °C 6,4 km/h (2 Bft)
11.01.2026 14:36 23,1 °C -3,9 °C 45 % 74 % 1025,7 hPa 0,0 l/m² 5,3 km/h (1 Bft) SW 217 ° 1 min 202 W/m² -7,8 °C -3,9 °C 8,0 km/h (2 Bft)
11.01.2026 14:37 23,1 °C -3,9 °C 45 % 74 % 1025,6 hPa 0,0 l/m² 6,6 km/h (2 Bft) SW 217 ° 1 min 200 W/m² -7,8 °C -4,1 °C 8,0 km/h (2 Bft)
11.01.2026 14:38 23,1 °C -3,9 °C 45 % 74 % 1025,7 hPa 0,0 l/m² 6,6 km/h (2 Bft) SW 217 ° 1 min 199 W/m² -7,8 °C -4,1 °C 8,0 km/h (2 Bft)
11.01.2026 14:39 23,1 °C -3,9 °C 45 % 74 % 1025,6 hPa 0,0 l/m² 6,7 km/h (2 Bft) SW 217 ° 1 min 195 W/m² -7,8 °C -4,2 °C 8,0 km/h (2 Bft)
11.01.2026 14:41 23,1 °C -3,9 °C 43 % 74 % 1025,6 hPa 0,0 l/m² 5,9 km/h (2 Bft) SW 217 ° 2 min 183 W/m² -7,8 °C -3,9 °C 8,0 km/h (2 Bft)
11.01.2026 14:43 23,0 °C -3,9 °C 41 % 74 % 1025,6 hPa 0,0 l/m² 4,5 km/h (1 Bft) SW 217 ° 2 min 188 W/m² -7,8 °C -3,9 °C 6,4 km/h (2 Bft)
11.01.2026 14:44 23,0 °C -3,9 °C 41 % 74 % 1025,6 hPa 0,0 l/m² 4,8 km/h (1 Bft) SW 217 ° 1 min 185 W/m² -7,8 °C -3,9 °C 6,4 km/h (2 Bft)
11.01.2026 14:45 22,9 °C -3,9 °C 41 % 74 % 1025,6 hPa 0,0 l/m² 6,8 km/h (2 Bft) SW 216 ° 1 min 174 W/m² -7,8 °C -4,4 °C 8,0 km/h (2 Bft)
11.01.2026 14:46 22,9 °C -3,9 °C 42 % 74 % 1025,6 hPa 0,0 l/m² 7,5 km/h (2 Bft) SW 216 ° 1 min 179 W/m² -7,8 °C -5,2 °C 9,7 km/h (2 Bft)
11.01.2026 14:47 22,9 °C -3,9 °C 41 % 74 % 1025,6 hPa 0,0 l/m² 6,7 km/h (2 Bft) SW 216 ° 1 min 178 W/m² -7,8 °C -4,2 °C 8,0 km/h (2 Bft)
11.01.2026 14:48 22,9 °C -3,9 °C 42 % 74 % 1025,8 hPa 0,0 l/m² 5,8 km/h (2 Bft) SW 216 ° 1 min 176 W/m² -7,8 °C -3,9 °C 6,4 km/h (2 Bft)
11.01.2026 14:49 22,9 °C -3,9 °C 42 % 74 % 1025,5 hPa 0,0 l/m² 4,3 km/h (1 Bft) S-SW 211 ° 1 min 174 W/m² -7,8 °C -3,9 °C 6,4 km/h (2 Bft)
11.01.2026 14:51 22,9 °C -3,9 °C 42 % 74 % 1025,5 hPa 0,0 l/m² 1,6 km/h (1 Bft) S-SW 211 ° 2 min 167 W/m² -7,8 °C -3,9 °C 4,8 km/h (1 Bft)
11.01.2026 14:53 22,9 °C -3,8 °C 42 % 74 % 1025,5 hPa 0,0 l/m² 4,9 km/h (1 Bft) S-SW 210 ° 2 min 165 W/m² -7,7 °C -3,8 °C 6,4 km/h (2 Bft)
11.01.2026 14:54 22,8 °C -3,8 °C 42 % 74 % 1025,5 hPa 0,0 l/m² 4,5 km/h (1 Bft) S-SW 210 ° 1 min 163 W/m² -7,7 °C -3,8 °C 6,4 km/h (2 Bft)
11.01.2026 14:55 22,8 °C -3,8 °C 42 % 74 % 1025,5 hPa 0,0 l/m² 2,2 km/h (1 Bft) S-SW 210 ° 1 min 162 W/m² -7,7 °C -3,8 °C 4,8 km/h (1 Bft)
11.01.2026 14:56 22,9 °C -3,8 °C 42 % 74 % 1025,5 hPa 0,0 l/m² 3,0 km/h (1 Bft) S-SW 210 ° 1 min 158 W/m² -7,7 °C -3,8 °C 4,8 km/h (1 Bft)
11.01.2026 14:57 22,8 °C -3,8 °C 42 % 74 % 1025,6 hPa 0,0 l/m² 2,7 km/h (1 Bft) S-SW 210 ° 1 min 155 W/m² -7,7 °C -3,8 °C 4,8 km/h (1 Bft)
11.01.2026 14:58 22,9 °C -3,7 °C 42 % 74 % 1025,6 hPa 0,0 l/m² 2,0 km/h (1 Bft) S-SW 210 ° 1 min 153 W/m² -7,6 °C -3,7 °C 6,4 km/h (2 Bft)
11.01.2026 14:59 22,8 °C -3,7 °C 42 % 74 % 1025,6 hPa 0,0 l/m² 1,7 km/h (1 Bft) S-SW 210 ° 1 min 151 W/m² -7,6 °C -3,7 °C 3,2 km/h (1 Bft)
11.01.2026 15:01 22,8 °C -3,7 °C 42 % 75 % 1025,6 hPa 0,0 l/m² 1,2 km/h (1 Bft) S-SW 210 ° 2 min 148 W/m² -7,5 °C -3,7 °C 4,8 km/h (1 Bft)
11.01.2026 15:03 22,8 °C -3,6 °C 42 % 75 % 1025,6 hPa 0,0 l/m² 0,8 km/h (0 Bft) S-SW 210 ° 2 min 141 W/m² -7,4 °C -3,6 °C 3,2 km/h (1 Bft)
11.01.2026 15:04 22,8 °C -3,6 °C 42 % 74 % 1025,6 hPa 0,0 l/m² 0,1 km/h (0 Bft) S-SW 210 ° 1 min 139 W/m² -7,5 °C -3,6 °C 1,6 km/h (1 Bft)
11.01.2026 15:05 22,8 °C -3,6 °C 42 % 74 % 1025,6 hPa 0,0 l/m² 0,1 km/h (0 Bft) S-SW 210 ° 1 min 135 W/m² -7,5 °C -3,6 °C 1,6 km/h (1 Bft)
11.01.2026 15:06 22,8 °C -3,5 °C 42 % 74 % 1025,5 hPa 0,0 l/m² 0,0 km/h (0 Bft) S-SW 210 ° 1 min 134 W/m² -7,4 °C -3,5 °C 0,0 km/h (0 Bft)
11.01.2026 15:07 22,8 °C -3,4 °C 42 % 74 % 1025,6 hPa 0,0 l/m² 0,0 km/h (0 Bft) S-SW 210 ° 1 min 132 W/m² -7,4 °C -3,4 °C 0,0 km/h (0 Bft)
11.01.2026 15:08 22,8 °C -3,4 °C 42 % 74 % 1025,5 hPa 0,0 l/m² 0,0 km/h (0 Bft) S-SW 210 ° 1 min 127 W/m² -7,4 °C -3,4 °C 0,0 km/h (0 Bft)
11.01.2026 15:09 22,8 °C -3,4 °C 42 % 74 % 1025,5 hPa 0,0 l/m² 0,0 km/h (0 Bft) S-SW 210 ° 1 min 125 W/m² -7,4 °C -3,4 °C 0,0 km/h (0 Bft)
11.01.2026 15:11 22,8 °C -3,3 °C 42 % 73 % 1025,5 hPa 0,0 l/m² 0,0 km/h (0 Bft) S-SW 210 ° 2 min 121 W/m² -7,4 °C -3,3 °C 0,0 km/h (0 Bft)
11.01.2026 15:13 22,8 °C -3,4 °C 42 % 73 % 1025,5 hPa 0,0 l/m² 0,0 km/h (0 Bft) S-SW 210 ° 2 min 118 W/m² -7,5 °C -3,4 °C 0,0 km/h (0 Bft)
11.01.2026 15:14 22,8 °C -3,4 °C 42 % 73 % 1025,5 hPa 0,0 l/m² 0,0 km/h (0 Bft) S-SW 210 ° 1 min 114 W/m² -7,5 °C -3,4 °C 0,0 km/h (0 Bft)
11.01.2026 15:15 22,8 °C -3,4 °C 42 % 73 % 1025,5 hPa 0,0 l/m² 0,0 km/h (0 Bft) S-SW 210 ° 1 min 113 W/m² -7,5 °C -3,4 °C 0,0 km/h (0 Bft)
11.01.2026 15:16 22,8 °C -3,5 °C 42 % 73 % 1025,5 hPa 0,0 l/m² 0,0 km/h (0 Bft) S-SW 210 ° 1 min 111 W/m² -7,6 °C -3,5 °C 0,0 km/h (0 Bft)
11.01.2026 15:17 22,8 °C -3,4 °C 42 % 73 % 1025,4 hPa 0,0 l/m² 0,0 km/h (0 Bft) S-SW 210 ° 1 min 107 W/m² -7,5 °C -3,4 °C 0,0 km/h (0 Bft)
11.01.2026 15:18 22,8 °C -3,4 °C 42 % 73 % 1025,4 hPa 0,0 l/m² 0,0 km/h (0 Bft) S-SW 210 ° 1 min 105 W/m² -7,5 °C -3,4 °C 0,0 km/h (0 Bft)
11.01.2026 15:19 22,8 °C -3,4 °C 42 % 73 % 1025,5 hPa 0,0 l/m² 0,0 km/h (0 Bft) S-SW 210 ° 1 min 104 W/m² -7,5 °C -3,4 °C 0,0 km/h (0 Bft)
11.01.2026 15:21 22,8 °C -3,3 °C 43 % 73 % 1025,5 hPa 0,0 l/m² 0,0 km/h (0 Bft) S-SW 210 ° 2 min 97 W/m² -7,4 °C -3,3 °C 0,0 km/h (0 Bft)
11.01.2026 15:23 22,8 °C -3,2 °C 43 % 73 % 1025,5 hPa 0,0 l/m² 0,0 km/h (0 Bft) S-SW 210 ° 2 min 93 W/m² -7,3 °C -3,2 °C 0,0 km/h (0 Bft)
11.01.2026 15:24 22,8 °C -3,2 °C 43 % 72 % 1025,5 hPa 0,0 l/m² 0,0 km/h (0 Bft) S-SW 210 ° 1 min 91 W/m² -7,5 °C -3,2 °C 0,0 km/h (0 Bft)
11.01.2026 15:25 22,8 °C -3,2 °C 43 % 72 % 1025,4 hPa 0,0 l/m² 0,0 km/h (0 Bft) S-SW 210 ° 1 min 90 W/m² -7,5 °C -3,2 °C 0,0 km/h (0 Bft)
11.01.2026 15:26 22,8 °C -3,1 °C 43 % 72 % 1025,5 hPa 0,0 l/m² 0,0 km/h (0 Bft) S-SW 210 ° 1 min 86 W/m² -7,4 °C -3,1 °C 0,0 km/h (0 Bft)
11.01.2026 15:27 22,8 °C -3,1 °C 43 % 72 % 1025,5 hPa 0,0 l/m² 0,0 km/h (0 Bft) S-SW 210 ° 1 min 84 W/m² -7,4 °C -3,1 °C 0,0 km/h (0 Bft)
11.01.2026 15:28 22,8 °C -3,1 °C 43 % 72 % 1025,5 hPa 0,0 l/m² 0,0 km/h (0 Bft) S-SW 210 ° 1 min 83 W/m² -7,4 °C -3,1 °C 0,0 km/h (0 Bft)
11.01.2026 15:29 22,8 °C -3,1 °C 43 % 72 % 1025,5 hPa 0,0 l/m² 0,0 km/h (0 Bft) S-SW 210 ° 1 min 81 W/m² -7,4 °C -3,1 °C 0,0 km/h (0 Bft)
11.01.2026 15:31 22,7 °C -3,0 °C 43 % 72 % 1025,4 hPa 0,0 l/m² 0,0 km/h (0 Bft) S-SW 210 ° 2 min 77 W/m² -7,3 °C -3,0 °C 0,0 km/h (0 Bft)
11.01.2026 15:33 22,8 °C -2,9 °C 43 % 72 % 1025,5 hPa 0,0 l/m² 0,0 km/h (0 Bft) S-SW 210 ° 2 min 74 W/m² -7,2 °C -2,9 °C 0,0 km/h (0 Bft)
11.01.2026 15:34 22,7 °C -2,9 °C 43 % 72 % 1025,5 hPa 0,0 l/m² 0,0 km/h (0 Bft) S-SW 210 ° 1 min 72 W/m² -7,2 °C -2,9 °C 0,0 km/h (0 Bft)
11.01.2026 15:35 22,8 °C -2,9 °C 43 % 72 % 1025,5 hPa 0,0 l/m² 0,0 km/h (0 Bft) S-SW 210 ° 1 min 70 W/m² -7,2 °C -2,9 °C 0,0 km/h (0 Bft)
11.01.2026 15:36 22,7 °C -2,9 °C 43 % 72 % 1025,5 hPa 0,0 l/m² 0,0 km/h (0 Bft) S-SW 210 ° 1 min 69 W/m² -7,2 °C -2,9 °C 0,0 km/h (0 Bft)
11.01.2026 15:37 22,7 °C -2,8 °C 43 % 72 % 1025,5 hPa 0,0 l/m² 1,0 km/h (0 Bft) S-SW 211 ° 1 min 67 W/m² -7,1 °C -2,8 °C 4,8 km/h (1 Bft)
11.01.2026 15:38 22,7 °C -2,8 °C 43 % 72 % 1025,5 hPa 0,0 l/m² 0,3 km/h (0 Bft) S-SW 211 ° 1 min 63 W/m² -7,1 °C -2,8 °C 3,2 km/h (1 Bft)
11.01.2026 15:39 22,7 °C -2,8 °C 42 % 72 % 1025,5 hPa 0,0 l/m² 0,3 km/h (0 Bft) S-SW 211 ° 1 min 63 W/m² -7,1 °C -2,8 °C 1,6 km/h (1 Bft)
11.01.2026 15:41 22,7 °C -2,8 °C 42 % 71 % 1025,5 hPa 0,0 l/m² 2,7 km/h (1 Bft) S-SW 211 ° 2 min 60 W/m² -7,3 °C -2,8 °C 4,8 km/h (1 Bft)
11.01.2026 15:43 22,7 °C -2,8 °C 42 % 71 % 1025,5 hPa 0,0 l/m² 2,7 km/h (1 Bft) S-SW 211 ° 2 min 56 W/m² -7,3 °C -2,8 °C 4,8 km/h (1 Bft)
11.01.2026 15:44 22,7 °C -2,8 °C 42 % 71 % 1025,4 hPa 0,0 l/m² 0,7 km/h (0 Bft) S-SW 211 ° 1 min 53 W/m² -7,3 °C -2,8 °C 3,2 km/h (1 Bft)
11.01.2026 15:46 22,7 °C -2,8 °C 42 % 71 % 1025,5 hPa 0,0 l/m² 1,3 km/h (1 Bft) S-SW 211 ° 0 min 49 W/m² -7,3 °C -2,8 °C 3,2 km/h (1 Bft)
11.01.2026 15:47 22,7 °C -2,8 °C 42 % 71 % 1025,5 hPa 0,0 l/m² 0,8 km/h (0 Bft) S-SW 211 ° 0 min 47 W/m² -7,3 °C -2,8 °C 1,6 km/h (1 Bft)
11.01.2026 15:48 22,7 °C -2,9 °C 42 % 71 % 1025,6 hPa 0,0 l/m² 0,2 km/h (0 Bft) S-SW 211 ° 0 min 46 W/m² -7,4 °C -2,9 °C 1,6 km/h (1 Bft)
11.01.2026 15:49 22,7 °C -2,9 °C 42 % 71 % 1025,5 hPa 0,0 l/m² 0,2 km/h (0 Bft) S-SW 211 ° 0 min 37 W/m² -7,4 °C -2,9 °C 1,6 km/h (1 Bft)
11.01.2026 15:51 22,7 °C -2,9 °C 42 % 71 % 1025,5 hPa 0,0 l/m² 0,2 km/h (0 Bft) S-SW 211 ° 0 min 35 W/m² -7,4 °C -2,9 °C 1,6 km/h (1 Bft)
11.01.2026 15:53 22,7 °C -3,0 °C 42 % 71 % 1025,6 hPa 0,0 l/m² 0,0 km/h (0 Bft) S-SW 211 ° 0 min 33 W/m² -7,5 °C -3,0 °C 0,0 km/h (0 Bft)
11.01.2026 15:54 22,7 °C -3,1 °C 43 % 71 % 1025,5 hPa 0,0 l/m² 0,0 km/h (0 Bft) S-SW 211 ° 0 min 30 W/m² -7,6 °C -3,1 °C 0,0 km/h (0 Bft)
11.01.2026 15:55 22,7 °C -3,1 °C 43 % 71 % 1025,5 hPa 0,0 l/m² 0,0 km/h (0 Bft) S-SW 211 ° 0 min 23 W/m² -7,6 °C -3,1 °C 0,0 km/h (0 Bft)
11.01.2026 15:56 22,7 °C -3,1 °C 43 % 71 % 1025,5 hPa 0,0 l/m² 0,0 km/h (0 Bft) S-SW 211 ° 0 min 19 W/m² -7,6 °C -3,1 °C 0,0 km/h (0 Bft)
11.01.2026 15:57 22,7 °C -3,2 °C 43 % 71 % 1025,5 hPa 0,0 l/m² 0,0 km/h (0 Bft) S-SW 211 ° 0 min 19 W/m² -7,7 °C -3,2 °C 0,0 km/h (0 Bft)
11.01.2026 15:58 22,7 °C -3,2 °C 43 % 71 % 1025,5 hPa 0,0 l/m² 0,0 km/h (0 Bft) S-SW 211 ° 0 min 19 W/m² -7,7 °C -3,2 °C 0,0 km/h (0 Bft)
11.01.2026 15:59 22,7 °C -3,3 °C 43 % 71 % 1025,6 hPa 0,0 l/m² 0,0 km/h (0 Bft) S-SW 211 ° 0 min 19 W/m² -7,8 °C -3,3 °C 0,0 km/h (0 Bft)
11.01.2026 16:01 22,7 °C -3,4 °C 43 % 70 % 1025,5 hPa 0,0 l/m² 0,0 km/h (0 Bft) S-SW 211 ° 0 min 18 W/m² -8,1 °C -3,4 °C 0,0 km/h (0 Bft)
11.01.2026 16:03 22,7 °C -3,6 °C 43 % 70 % 1025,5 hPa 0,0 l/m² 0,0 km/h (0 Bft) S-SW 211 ° 0 min 16 W/m² -8,3 °C -3,6 °C 0,0 km/h (0 Bft)
11.01.2026 16:04 22,7 °C -3,6 °C 43 % 70 % 1025,5 hPa 0,0 l/m² 0,0 km/h (0 Bft) S-SW 211 ° 0 min 16 W/m² -8,3 °C -3,6 °C 0,0 km/h (0 Bft)
11.01.2026 16:05 22,7 °C -3,7 °C 43 % 70 % 1025,5 hPa 0,0 l/m² 0,0 km/h (0 Bft) S-SW 211 ° 0 min 16 W/m² -8,4 °C -3,7 °C 0,0 km/h (0 Bft)
11.01.2026 16:06 22,7 °C -3,8 °C 43 % 70 % 1025,5 hPa 0,0 l/m² 0,0 km/h (0 Bft) S-SW 211 ° 0 min 14 W/m² -8,4 °C -3,8 °C 0,0 km/h (0 Bft)
11.01.2026 16:08 22,7 °C -3,8 °C 44 % 71 % 1025,6 hPa 0,0 l/m² 0,1 km/h (0 Bft) S-SW 211 ° 0 min 12 W/m² -8,3 °C -3,8 °C 1,6 km/h (1 Bft)
11.01.2026 16:09 22,7 °C -3,8 °C 44 % 71 % 1025,6 hPa 0,0 l/m² 0,0 km/h (0 Bft) S-SW 211 ° 0 min 12 W/m² -8,3 °C -3,8 °C 0,0 km/h (0 Bft)
11.01.2026 16:11 22,7 °C -3,9 °C 44 % 71 % 1025,6 hPa 0,0 l/m² 0,3 km/h (0 Bft) S-SW 211 ° 0 min 12 W/m² -8,4 °C -3,9 °C 3,2 km/h (1 Bft)
11.01.2026 16:13 22,7 °C -3,9 °C 44 % 72 % 1025,5 hPa 0,0 l/m² 0,1 km/h (0 Bft) S-SW 211 ° 0 min 11 W/m² -8,2 °C -3,9 °C 1,6 km/h (1 Bft)
11.01.2026 16:14 22,7 °C -4,0 °C 44 % 72 % 1025,6 hPa 0,0 l/m² 0,2 km/h (0 Bft) S-SW 211 ° 0 min 11 W/m² -8,3 °C -4,0 °C 1,6 km/h (1 Bft)
11.01.2026 16:15 22,8 °C -4,0 °C 44 % 72 % 1025,6 hPa 0,0 l/m² 0,1 km/h (0 Bft) S-SW 211 ° 0 min 11 W/m² -8,3 °C -4,0 °C 1,6 km/h (1 Bft)
11.01.2026 16:16 22,7 °C -4,1 °C 44 % 71 % 1025,6 hPa 0,0 l/m² 0,0 km/h (0 Bft) S-SW 211 ° 0 min 11 W/m² -8,6 °C -4,1 °C 0,0 km/h (0 Bft)
11.01.2026 16:17 22,8 °C -4,2 °C 44 % 71 % 1025,6 hPa 0,0 l/m² 0,0 km/h (0 Bft) S-SW 211 ° 0 min 9 W/m² -8,7 °C -4,2 °C 0,0 km/h (0 Bft)
11.01.2026 16:18 22,7 °C -4,3 °C 44 % 71 % 1025,6 hPa 0,0 l/m² 0,3 km/h (0 Bft) S-SW 211 ° 0 min 9 W/m² -8,7 °C -4,3 °C 1,6 km/h (1 Bft)
11.01.2026 16:19 22,7 °C -4,4 °C 44 % 71 % 1025,6 hPa 0,0 l/m² 0,0 km/h (0 Bft) S-SW 211 ° 0 min 9 W/m² -8,8 °C -4,4 °C 0,0 km/h (0 Bft)
11.01.2026 16:21 22,7 °C -4,6 °C 44 % 71 % 1025,6 hPa 0,0 l/m² 0,0 km/h (0 Bft) S-SW 211 ° 0 min 7 W/m² -9,0 °C -4,6 °C 0,0 km/h (0 Bft)
11.01.2026 16:23 22,8 °C -4,7 °C 44 % 71 % 1025,6 hPa 0,0 l/m² 0,0 km/h (0 Bft) S-SW 211 ° 0 min 7 W/m² -9,1 °C -4,7 °C 0,0 km/h (0 Bft)
11.01.2026 16:24 22,8 °C -4,8 °C 44 % 71 % 1025,6 hPa 0,0 l/m² 0,0 km/h (0 Bft) S-SW 211 ° 0 min 5 W/m² -9,2 °C -4,8 °C 0,0 km/h (0 Bft)
11.01.2026 16:25 22,7 °C -4,9 °C 44 % 71 % 1025,7 hPa 0,0 l/m² 0,0 km/h (0 Bft) S-SW 211 ° 0 min 5 W/m² -9,3 °C -4,9 °C 0,0 km/h (0 Bft)
11.01.2026 16:26 22,8 °C -5,0 °C 44 % 71 % 1025,6 hPa 0,0 l/m² 0,0 km/h (0 Bft) S-SW 211 ° 0 min 5 W/m² -9,4 °C -5,0 °C 0,0 km/h (0 Bft)
11.01.2026 16:27 22,8 °C -5,1 °C 44 % 71 % 1025,7 hPa 0,0 l/m² 0,0 km/h (0 Bft) S-SW 211 ° 0 min 5 W/m² -9,5 °C -5,1 °C 0,0 km/h (0 Bft)
11.01.2026 16:28 22,8 °C -5,2 °C 45 % 71 % 1025,6 hPa 0,0 l/m² 0,0 km/h (0 Bft) S-SW 211 ° 0 min 5 W/m² -9,6 °C -5,2 °C 0,0 km/h (0 Bft)
11.01.2026 16:29 22,8 °C -5,3 °C 45 % 71 % 1025,7 hPa 0,0 l/m² 0,0 km/h (0 Bft) S-SW 211 ° 0 min 0 W/m² -9,7 °C -5,3 °C 0,0 km/h (0 Bft)
11.01.2026 16:31 22,8 °C -5,4 °C 45 % 71 % 1025,6 hPa 0,0 l/m² 0,0 km/h (0 Bft) S-SW 211 ° 0 min 0 W/m² -9,8 °C -5,4 °C 0,0 km/h (0 Bft)
11.01.2026 16:33 22,8 °C -5,7 °C 45 % 71 % 1025,6 hPa 0,0 l/m² 0,0 km/h (0 Bft) S-SW 211 ° 0 min 0 W/m² -10,1 °C -5,7 °C 0,0 km/h (0 Bft)
11.01.2026 16:34 22,8 °C -5,7 °C 45 % 71 % 1025,6 hPa 0,0 l/m² 0,0 km/h (0 Bft) S-SW 211 ° 0 min 0 W/m² -10,1 °C -5,7 °C 0,0 km/h (0 Bft)
11.01.2026 16:35 22,8 °C -5,8 °C 45 % 72 % 1025,6 hPa 0,0 l/m² 0,0 km/h (0 Bft) S-SW 211 ° 0 min 0 W/m² -10,0 °C -5,8 °C 0,0 km/h (0 Bft)
11.01.2026 16:36 22,8 °C -5,9 °C 45 % 72 % 1025,6 hPa 0,0 l/m² 0,0 km/h (0 Bft) S-SW 211 ° 0 min 0 W/m² -10,1 °C -5,9 °C 0,0 km/h (0 Bft)
11.01.2026 16:37 22,7 °C -5,9 °C 45 % 72 % 1025,6 hPa 0,0 l/m² 0,0 km/h (0 Bft) S-SW 211 ° 0 min 0 W/m² -10,1 °C -5,9 °C 0,0 km/h (0 Bft)
11.01.2026 16:38 22,8 °C -6,1 °C 45 % 72 % 1025,6 hPa 0,0 l/m² 0,0 km/h (0 Bft) S-SW 211 ° 0 min 0 W/m² -10,3 °C -6,1 °C 0,0 km/h (0 Bft)
11.01.2026 16:39 22,7 °C -6,1 °C 45 % 72 % 1025,6 hPa 0,0 l/m² 0,0 km/h (0 Bft) S-SW 211 ° 0 min 0 W/m² -10,3 °C -6,1 °C 0,0 km/h (0 Bft)
11.01.2026 16:41 22,8 °C -6,3 °C 45 % 72 % 1025,7 hPa 0,0 l/m² 0,0 km/h (0 Bft) S-SW 211 ° 0 min 0 W/m² -10,5 °C -6,3 °C 0,0 km/h (0 Bft)
11.01.2026 16:43 22,7 °C -6,4 °C 45 % 72 % 1025,7 hPa 0,0 l/m² 0,0 km/h (0 Bft) S-SW 211 ° 0 min 0 W/m² -10,6 °C -6,4 °C 0,0 km/h (0 Bft)
11.01.2026 16:44 22,7 °C -6,5 °C 45 % 72 % 1025,7 hPa 0,0 l/m² 0,0 km/h (0 Bft) S-SW 211 ° 0 min 0 W/m² -10,7 °C -6,5 °C 0,0 km/h (0 Bft)
11.01.2026 16:45 22,7 °C -6,6 °C 45 % 72 % 1025,7 hPa 0,0 l/m² 0,0 km/h (0 Bft) S-SW 211 ° 0 min 0 W/m² -10,8 °C -6,6 °C 0,0 km/h (0 Bft)
11.01.2026 16:46 22,7 °C -6,7 °C 45 % 72 % 1025,7 hPa 0,0 l/m² 0,0 km/h (0 Bft) S-SW 211 ° 0 min 0 W/m² -10,9 °C -6,7 °C 0,0 km/h (0 Bft)
11.01.2026 16:47 22,7 °C -6,7 °C 45 % 72 % 1025,7 hPa 0,0 l/m² 0,0 km/h (0 Bft) S-SW 211 ° 0 min 0 W/m² -10,9 °C -6,7 °C 0,0 km/h (0 Bft)
11.01.2026 16:48 22,7 °C -6,8 °C 45 % 72 % 1025,6 hPa 0,0 l/m² 0,0 km/h (0 Bft) S-SW 211 ° 0 min 0 W/m² -11,0 °C -6,8 °C 0,0 km/h (0 Bft)
11.01.2026 16:49 22,7 °C -6,8 °C 45 % 72 % 1025,6 hPa 0,0 l/m² 0,0 km/h (0 Bft) S-SW 211 ° 0 min 0 W/m² -11,0 °C -6,8 °C 0,0 km/h (0 Bft)
11.01.2026 16:51 22,7 °C -6,9 °C 45 % 73 % 1025,7 hPa 0,0 l/m² 0,0 km/h (0 Bft) S-SW 211 ° 0 min 0 W/m² -10,9 °C -6,9 °C 0,0 km/h (0 Bft)
11.01.2026 16:53 22,7 °C -7,1 °C 45 % 73 % 1025,7 hPa 0,0 l/m² 0,0 km/h (0 Bft) S-SW 211 ° 0 min 0 W/m² -11,1 °C -7,1 °C 0,0 km/h (0 Bft)
11.01.2026 16:54 22,7 °C -7,2 °C 45 % 73 % 1025,7 hPa 0,0 l/m² 0,8 km/h (0 Bft) S-SW 211 ° 0 min 0 W/m² -11,2 °C -7,2 °C 1,6 km/h (1 Bft)
11.01.2026 16:55 22,7 °C -7,2 °C 45 % 73 % 1025,7 hPa 0,0 l/m² 1,6 km/h (1 Bft) S-SW 211 ° 0 min 0 W/m² -11,2 °C -7,2 °C 3,2 km/h (1 Bft)
11.01.2026 16:56 22,7 °C -7,3 °C 45 % 73 % 1025,7 hPa 0,0 l/m² 1,2 km/h (1 Bft) S-SW 211 ° 0 min 0 W/m² -11,3 °C -7,3 °C 3,2 km/h (1 Bft)
11.01.2026 16:57 22,7 °C -7,3 °C 45 % 73 % 1025,7 hPa 0,0 l/m² 0,4 km/h (0 Bft) S-SW 211 ° 0 min 0 W/m² -11,3 °C -7,3 °C 1,6 km/h (1 Bft)
11.01.2026 16:58 22,7 °C -7,4 °C 45 % 73 % 1025,7 hPa 0,0 l/m² 0,0 km/h (0 Bft) S-SW 211 ° 0 min 0 W/m² -11,4 °C -7,4 °C 0,0 km/h (0 Bft)
11.01.2026 16:59 22,7 °C -7,5 °C 45 % 73 % 1025,7 hPa 0,0 l/m² 0,0 km/h (0 Bft) S-SW 211 ° 0 min 0 W/m² -11,5 °C -7,5 °C 0,0 km/h (0 Bft)
11.01.2026 17:01 22,7 °C -7,7 °C 45 % 73 % 1025,5 hPa 0,0 l/m² 0,4 km/h (0 Bft) S-SW 211 ° 0 min 0 W/m² -11,7 °C -7,7 °C 3,2 km/h (1 Bft)
11.01.2026 17:03 22,7 °C -7,8 °C 45 % 74 % 1025,3 hPa 0,0 l/m² 2,1 km/h (1 Bft) S-SW 211 ° 0 min 0 W/m² -11,6 °C -7,8 °C 3,2 km/h (1 Bft)
11.01.2026 17:04 22,7 °C -7,8 °C 45 % 74 % 1025,3 hPa 0,0 l/m² 2,7 km/h (1 Bft) S-SW 211 ° 0 min 0 W/m² -11,6 °C -7,8 °C 3,2 km/h (1 Bft)
11.01.2026 17:05 22,7 °C -7,8 °C 45 % 74 % 1025,3 hPa 0,0 l/m² 2,0 km/h (1 Bft) S-SW 211 ° 0 min 0 W/m² -11,6 °C -7,8 °C 3,2 km/h (1 Bft)
11.01.2026 17:06 22,7 °C -7,9 °C 45 % 74 % 1025,3 hPa 0,0 l/m² 2,0 km/h (1 Bft) S-SW 211 ° 0 min 0 W/m² -11,7 °C -7,9 °C 3,2 km/h (1 Bft)
11.01.2026 17:07 22,7 °C -8,0 °C 45 % 74 % 1025,7 hPa 0,0 l/m² 2,3 km/h (1 Bft) S-SW 211 ° 0 min 0 W/m² -11,8 °C -8,0 °C 3,2 km/h (1 Bft)
11.01.2026 17:08 22,7 °C -8,1 °C 45 % 74 % 1025,7 hPa 0,0 l/m² 0,6 km/h (0 Bft) S-SW 211 ° 0 min 0 W/m² -11,9 °C -8,1 °C 1,6 km/h (1 Bft)
11.01.2026 17:09 22,7 °C -8,1 °C 45 % 75 % 1025,4 hPa 0,0 l/m² 0,1 km/h (0 Bft) S-SW 211 ° 0 min 0 W/m² -11,7 °C -8,1 °C 1,6 km/h (1 Bft)
11.01.2026 17:11 22,6 °C -8,2 °C 41 % 75 % 1025,6 hPa 0,0 l/m² 0,7 km/h (0 Bft) S-SW 211 ° 0 min 0 W/m² -11,8 °C -8,2 °C 3,2 km/h (1 Bft)
11.01.2026 17:13 22,6 °C -8,3 °C 41 % 75 % 1025,6 hPa 0,0 l/m² 0,0 km/h (0 Bft) S-SW 211 ° 0 min 0 W/m² -11,9 °C -8,3 °C 0,0 km/h (0 Bft)
11.01.2026 17:14 22,6 °C -8,3 °C 41 % 75 % 1025,6 hPa 0,0 l/m² 0,0 km/h (0 Bft) S-SW 211 ° 0 min 0 W/m² -11,9 °C -8,3 °C 0,0 km/h (0 Bft)
11.01.2026 17:15 22,6 °C -8,4 °C 42 % 75 % 1025,6 hPa 0,0 l/m² 0,0 km/h (0 Bft) S-SW 211 ° 0 min 0 W/m² -12,0 °C -8,4 °C 0,0 km/h (0 Bft)
11.01.2026 17:16 22,6 °C -8,4 °C 42 % 75 % 1025,6 hPa 0,0 l/m² 0,0 km/h (0 Bft) S-SW 211 ° 0 min 0 W/m² -12,0 °C -8,4 °C 0,0 km/h (0 Bft)
11.01.2026 17:17 22,6 °C -8,5 °C 42 % 75 % 1025,7 hPa 0,0 l/m² 0,0 km/h (0 Bft) S-SW 211 ° 0 min 0 W/m² -12,1 °C -8,5 °C 0,0 km/h (0 Bft)
11.01.2026 17:18 22,5 °C -8,6 °C 42 % 76 % 1025,5 hPa 0,0 l/m² 0,0 km/h (0 Bft) S-SW 211 ° 0 min 0 W/m² -12,0 °C -8,6 °C 0,0 km/h (0 Bft)
11.01.2026 17:19 22,5 °C -8,6 °C 42 % 76 % 1025,5 hPa 0,0 l/m² 0,0 km/h (0 Bft) S-SW 211 ° 0 min 0 W/m² -12,0 °C -8,6 °C 0,0 km/h (0 Bft)
11.01.2026 17:21 22,5 °C -8,7 °C 42 % 76 % 1025,2 hPa 0,0 l/m² 0,0 km/h (0 Bft) S-SW 211 ° 0 min 0 W/m² -12,1 °C -8,7 °C 0,0 km/h (0 Bft)
11.01.2026 17:23 22,5 °C -8,8 °C 42 % 76 % 1025,3 hPa 0,0 l/m² 0,0 km/h (0 Bft) S-SW 211 ° 0 min 0 W/m² -12,2 °C -8,8 °C 0,0 km/h (0 Bft)
11.01.2026 17:24 22,4 °C -8,8 °C 42 % 76 % 1025,2 hPa 0,0 l/m² 0,0 km/h (0 Bft) S-SW 211 ° 0 min 0 W/m² -12,2 °C -8,8 °C 0,0 km/h (0 Bft)
11.01.2026 17:25 22,4 °C -8,9 °C 42 % 76 % 1025,3 hPa 0,0 l/m² 0,0 km/h (0 Bft) S-SW 211 ° 0 min 0 W/m² -12,3 °C -8,9 °C 0,0 km/h (0 Bft)
11.01.2026 17:26 22,5 °C -9,0 °C 42 % 76 % 1025,2 hPa 0,0 l/m² 0,0 km/h (0 Bft) S-SW 211 ° 0 min 0 W/m² -12,4 °C -9,0 °C 0,0 km/h (0 Bft)
11.01.2026 17:27 22,4 °C -9,0 °C 42 % 76 % 1025,2 hPa 0,0 l/m² 0,0 km/h (0 Bft) S-SW 211 ° 0 min 0 W/m² -12,4 °C -9,0 °C 0,0 km/h (0 Bft)
11.01.2026 17:28 22,5 °C -9,1 °C 42 % 76 % 1025,3 hPa 0,0 l/m² 0,0 km/h (0 Bft) S-SW 211 ° 0 min 0 W/m² -12,5 °C -9,1 °C 0,0 km/h (0 Bft)
11.01.2026 17:29 22,5 °C -9,1 °C 42 % 76 % 1025,2 hPa 0,0 l/m² 0,0 km/h (0 Bft) S-SW 211 ° 0 min 0 W/m² -12,5 °C -9,1 °C 0,0 km/h (0 Bft)
11.01.2026 17:31 22,5 °C -9,2 °C 42 % 76 % 1025,2 hPa 0,0 l/m² 0,0 km/h (0 Bft) S-SW 211 ° 0 min 0 W/m² -12,6 °C -9,2 °C 0,0 km/h (0 Bft)
11.01.2026 17:33 22,4 °C -9,3 °C 42 % 77 % 1025,4 hPa 0,0 l/m² 0,0 km/h (0 Bft) S-SW 211 ° 0 min 0 W/m² -12,6 °C -9,3 °C 0,0 km/h (0 Bft)
11.01.2026 17:34 22,5 °C -9,3 °C 42 % 77 % 1025,5 hPa 0,0 l/m² 0,0 km/h (0 Bft) S-SW 211 ° 0 min 0 W/m² -12,6 °C -9,3 °C 0,0 km/h (0 Bft)
11.01.2026 17:35 22,5 °C -9,4 °C 42 % 77 % 1025,5 hPa 0,0 l/m² 0,0 km/h (0 Bft) S-SW 211 ° 0 min 0 W/m² -12,7 °C -9,4 °C 0,0 km/h (0 Bft)
11.01.2026 17:36 22,5 °C -9,4 °C 42 % 77 % 1025,5 hPa 0,0 l/m² 0,0 km/h (0 Bft) S-SW 211 ° 0 min 0 W/m² -12,7 °C -9,4 °C 0,0 km/h (0 Bft)
11.01.2026 17:37 22,5 °C -9,5 °C 42 % 77 % 1025,4 hPa 0,0 l/m² 0,0 km/h (0 Bft) S-SW 211 ° 0 min 0 W/m² -12,8 °C -9,5 °C 0,0 km/h (0 Bft)
11.01.2026 17:38 22,5 °C -9,5 °C 42 % 77 % 1025,4 hPa 0,0 l/m² 0,0 km/h (0 Bft) S-SW 211 ° 0 min 0 W/m² -12,8 °C -9,5 °C 0,0 km/h (0 Bft)
11.01.2026 17:39 22,4 °C -9,6 °C 42 % 77 % 1025,4 hPa 0,0 l/m² 0,0 km/h (0 Bft) S-SW 211 ° 0 min 0 W/m² -12,9 °C -9,6 °C 0,0 km/h (0 Bft)
11.01.2026 17:41 22,5 °C -9,7 °C 42 % 77 % 1025,4 hPa 0,0 l/m² 0,0 km/h (0 Bft) S-SW 211 ° 0 min 0 W/m² -13,0 °C -9,7 °C 0,0 km/h (0 Bft)
11.01.2026 17:43 22,5 °C -9,8 °C 43 % 77 % 1025,4 hPa 0,0 l/m² 0,0 km/h (0 Bft) S-SW 211 ° 0 min 0 W/m² -13,1 °C -9,8 °C 0,0 km/h (0 Bft)
11.01.2026 17:44 22,4 °C -9,8 °C 43 % 77 % 1025,4 hPa 0,0 l/m² 0,0 km/h (0 Bft) S-SW 211 ° 0 min 0 W/m² -13,1 °C -9,8 °C 0,0 km/h (0 Bft)
11.01.2026 17:45 22,4 °C -9,8 °C 43 % 77 % 1025,4 hPa 0,0 l/m² 0,0 km/h (0 Bft) S-SW 211 ° 0 min 0 W/m² -13,1 °C -9,8 °C 0,0 km/h (0 Bft)
11.01.2026 17:46 22,5 °C -9,9 °C 43 % 77 % 1025,4 hPa 0,0 l/m² 0,0 km/h (0 Bft) S-SW 211 ° 0 min 0 W/m² -13,1 °C -9,9 °C 0,0 km/h (0 Bft)
11.01.2026 17:47 22,4 °C -9,9 °C 43 % 78 % 1025,4 hPa 0,0 l/m² 0,0 km/h (0 Bft) S-SW 211 ° 0 min 0 W/m² -13,0 °C -9,9 °C 0,0 km/h (0 Bft)
11.01.2026 17:48 22,4 °C -10,0 °C 41 % 78 % 1025,4 hPa 0,0 l/m² 0,0 km/h (0 Bft) S-SW 211 ° 0 min 0 W/m² -13,1 °C -10,0 °C 0,0 km/h (0 Bft)
11.01.2026 17:49 22,4 °C -10,1 °C 41 % 78 % 1025,4 hPa 0,0 l/m² 0,0 km/h (0 Bft) S-SW 211 ° 0 min 0 W/m² -13,2 °C -10,1 °C 0,0 km/h (0 Bft)
11.01.2026 17:51 22,4 °C -10,1 °C 41 % 78 % 1025,5 hPa 0,0 l/m² 0,0 km/h (0 Bft) S-SW 211 ° 0 min 0 W/m² -13,2 °C -10,1 °C 0,0 km/h (0 Bft)
11.01.2026 17:53 22,4 °C -10,2 °C 40 % 78 % 1025,4 hPa 0,0 l/m² 0,0 km/h (0 Bft) S-SW 211 ° 0 min 0 W/m² -13,3 °C -10,2 °C 0,0 km/h (0 Bft)
11.01.2026 17:54 22,4 °C -10,2 °C 40 % 78 % 1025,4 hPa 0,0 l/m² 0,0 km/h (0 Bft) S-SW 211 ° 0 min 0 W/m² -13,3 °C -10,2 °C 0,0 km/h (0 Bft)
11.01.2026 17:55 22,3 °C -10,2 °C 40 % 78 % 1025,3 hPa 0,0 l/m² 0,0 km/h (0 Bft) S-SW 211 ° 0 min 0 W/m² -13,3 °C -10,2 °C 0,0 km/h (0 Bft)
11.01.2026 17:56 22,3 °C -10,3 °C 40 % 79 % 1025,4 hPa 0,0 l/m² 0,0 km/h (0 Bft) S-SW 211 ° 0 min 0 W/m² -13,2 °C -10,3 °C 0,0 km/h (0 Bft)
11.01.2026 17:57 22,3 °C -10,3 °C 40 % 79 % 1025,4 hPa 0,0 l/m² 0,0 km/h (0 Bft) S-SW 211 ° 0 min 0 W/m² -13,2 °C -10,3 °C 0,0 km/h (0 Bft)
11.01.2026 17:58 22,3 °C -10,3 °C 40 % 79 % 1025,4 hPa 0,0 l/m² 0,0 km/h (0 Bft) S-SW 211 ° 0 min 0 W/m² -13,2 °C -10,3 °C 0,0 km/h (0 Bft)
11.01.2026 17:59 22,3 °C -10,4 °C 40 % 79 % 1025,4 hPa 0,0 l/m² 0,0 km/h (0 Bft) S-SW 211 ° 0 min 0 W/m² -13,3 °C -10,4 °C 0,0 km/h (0 Bft)
11.01.2026 18:01 22,3 °C -10,4 °C 40 % 79 % 1025,4 hPa 0,0 l/m² 0,0 km/h (0 Bft) S-SW 211 ° 0 min 0 W/m² -13,3 °C -10,4 °C 0,0 km/h (0 Bft)
11.01.2026 18:03 22,3 °C -10,5 °C 41 % 79 % 1025,3 hPa 0,0 l/m² 0,0 km/h (0 Bft) S-SW 211 ° 0 min 0 W/m² -13,4 °C -10,5 °C 0,0 km/h (0 Bft)
11.01.2026 18:04 22,3 °C -10,6 °C 41 % 79 % 1025,4 hPa 0,0 l/m² 0,0 km/h (0 Bft) S-SW 211 ° 0 min 0 W/m² -13,5 °C -10,6 °C 0,0 km/h (0 Bft)
11.01.2026 18:05 22,3 °C -10,6 °C 41 % 79 % 1025,4 hPa 0,0 l/m² 0,0 km/h (0 Bft) S-SW 211 ° 0 min 0 W/m² -13,5 °C -10,6 °C 0,0 km/h (0 Bft)
11.01.2026 18:06 22,3 °C -10,6 °C 41 % 79 % 1025,3 hPa 0,0 l/m² 0,0 km/h (0 Bft) S-SW 211 ° 0 min 0 W/m² -13,5 °C -10,6 °C 0,0 km/h (0 Bft)
11.01.2026 18:08 22,3 °C -10,7 °C 41 % 79 % 1025,2 hPa 0,0 l/m² 0,0 km/h (0 Bft) S-SW 211 ° 0 min 0 W/m² -13,6 °C -10,7 °C 0,0 km/h (0 Bft)
11.01.2026 18:09 22,3 °C -10,7 °C 41 % 79 % 1025,2 hPa 0,0 l/m² 0,0 km/h (0 Bft) S-SW 211 ° 0 min 0 W/m² -13,6 °C -10,7 °C 0,0 km/h (0 Bft)
11.01.2026 18:11 22,3 °C -10,8 °C 41 % 79 % 1025,2 hPa 0,0 l/m² 0,0 km/h (0 Bft) S-SW 211 ° 0 min 0 W/m² -13,7 °C -10,8 °C 0,0 km/h (0 Bft)
11.01.2026 18:13 22,3 °C -10,9 °C 41 % 79 % 1025,3 hPa 0,0 l/m² 0,0 km/h (0 Bft) S-SW 211 ° 0 min 0 W/m² -13,8 °C -10,9 °C 0,0 km/h (0 Bft)
11.01.2026 18:14 22,3 °C -10,9 °C 41 % 79 % 1025,3 hPa 0,0 l/m² 0,0 km/h (0 Bft) S-SW 211 ° 0 min 0 W/m² -13,8 °C -10,9 °C 0,0 km/h (0 Bft)
11.01.2026 18:15 22,3 °C -10,9 °C 41 % 79 % 1025,3 hPa 0,0 l/m² 0,0 km/h (0 Bft) S-SW 211 ° 0 min 0 W/m² -13,8 °C -10,9 °C 0,0 km/h (0 Bft)
11.01.2026 18:16 22,3 °C -11,0 °C 41 % 79 % 1025,3 hPa 0,0 l/m² 0,0 km/h (0 Bft) S-SW 211 ° 0 min 0 W/m² -13,9 °C -11,0 °C 0,0 km/h (0 Bft)
11.01.2026 18:17 22,3 °C -11,0 °C 41 % 79 % 1025,3 hPa 0,0 l/m² 0,0 km/h (0 Bft) S-SW 211 ° 0 min 0 W/m² -13,9 °C -11,0 °C 0,0 km/h (0 Bft)
11.01.2026 18:18 22,3 °C -11,1 °C 41 % 79 % 1025,2 hPa 0,0 l/m² 0,0 km/h (0 Bft) S-SW 211 ° 0 min 0 W/m² -14,0 °C -11,1 °C 0,0 km/h (0 Bft)
11.01.2026 18:19 22,3 °C -11,1 °C 41 % 79 % 1025,2 hPa 0,0 l/m² 0,0 km/h (0 Bft) S-SW 211 ° 0 min 0 W/m² -14,0 °C -11,1 °C 0,0 km/h (0 Bft)
11.01.2026 18:21 22,3 °C -11,1 °C 42 % 79 % 1025,2 hPa 0,0 l/m² 0,0 km/h (0 Bft) S-SW 211 ° 0 min 0 W/m² -14,0 °C -11,1 °C 0,0 km/h (0 Bft)
11.01.2026 18:23 22,3 °C -11,2 °C 42 % 79 % 1025,2 hPa 0,0 l/m² 0,0 km/h (0 Bft) S-SW 211 ° 0 min 0 W/m² -14,1 °C -11,2 °C 0,0 km/h (0 Bft)
11.01.2026 18:24 22,3 °C -11,3 °C 42 % 80 % 1025,3 hPa 0,0 l/m² 0,0 km/h (0 Bft) S-SW 211 ° 0 min 0 W/m² -14,0 °C -11,3 °C 0,0 km/h (0 Bft)
11.01.2026 18:25 22,3 °C -11,3 °C 42 % 80 % 1025,3 hPa 0,0 l/m² 0,0 km/h (0 Bft) S-SW 211 ° 0 min 0 W/m² -14,0 °C -11,3 °C 0,0 km/h (0 Bft)
11.01.2026 18:26 22,3 °C -11,3 °C 42 % 80 % 1025,3 hPa 0,0 l/m² 0,0 km/h (0 Bft) S-SW 211 ° 0 min 0 W/m² -14,0 °C -11,3 °C 0,0 km/h (0 Bft)
11.01.2026 18:27 22,3 °C -11,3 °C 42 % 80 % 1025,3 hPa 0,0 l/m² 0,0 km/h (0 Bft) S-SW 211 ° 0 min 0 W/m² -14,0 °C -11,3 °C 0,0 km/h (0 Bft)
11.01.2026 18:28 22,3 °C -11,3 °C 42 % 80 % 1025,2 hPa 0,0 l/m² 0,0 km/h (0 Bft) S-SW 211 ° 0 min 0 W/m² -14,0 °C -11,3 °C 0,0 km/h (0 Bft)
11.01.2026 18:29 22,3 °C -11,4 °C 42 % 80 % 1025,3 hPa 0,0 l/m² 0,0 km/h (0 Bft) S-SW 211 ° 0 min 0 W/m² -14,1 °C -11,4 °C 0,0 km/h (0 Bft)
11.01.2026 18:31 22,3 °C -11,4 °C 42 % 80 % 1025,3 hPa 0,0 l/m² 0,0 km/h (0 Bft) S-SW 211 ° 0 min 0 W/m² -14,1 °C -11,4 °C 0,0 km/h (0 Bft)
11.01.2026 18:33 22,3 °C -11,4 °C 42 % 80 % 1025,3 hPa 0,0 l/m² 0,0 km/h (0 Bft) S-SW 211 ° 0 min 0 W/m² -14,1 °C -11,4 °C 0,0 km/h (0 Bft)
11.01.2026 18:34 22,3 °C -11,5 °C 42 % 80 % 1025,3 hPa 0,0 l/m² 0,0 km/h (0 Bft) S-SW 211 ° 0 min 0 W/m² -14,2 °C -11,5 °C 0,0 km/h (0 Bft)
11.01.2026 18:35 22,3 °C -11,5 °C 42 % 80 % 1025,3 hPa 0,0 l/m² 0,0 km/h (0 Bft) S-SW 211 ° 0 min 0 W/m² -14,2 °C -11,5 °C 0,0 km/h (0 Bft)
11.01.2026 18:36 22,3 °C -11,6 °C 42 % 80 % 1025,2 hPa 0,0 l/m² 0,0 km/h (0 Bft) S-SW 211 ° 0 min 0 W/m² -14,3 °C -11,6 °C 0,0 km/h (0 Bft)
11.01.2026 18:37 22,3 °C -11,6 °C 42 % 80 % 1025,2 hPa 0,0 l/m² 0,0 km/h (0 Bft) S-SW 211 ° 0 min 0 W/m² -14,3 °C -11,6 °C 0,0 km/h (0 Bft)
11.01.2026 18:38 22,3 °C -11,6 °C 42 % 80 % 1025,2 hPa 0,0 l/m² 0,0 km/h (0 Bft) S-SW 211 ° 0 min 0 W/m² -14,3 °C -11,6 °C 0,0 km/h (0 Bft)
11.01.2026 18:39 22,3 °C -11,7 °C 42 % 80 % 1025,3 hPa 0,0 l/m² 0,0 km/h (0 Bft) S-SW 211 ° 0 min 0 W/m² -14,4 °C -11,7 °C 0,0 km/h (0 Bft)
11.01.2026 18:41 22,3 °C -11,7 °C 42 % 80 % 1025,3 hPa 0,0 l/m² 0,0 km/h (0 Bft) S-SW 211 ° 0 min 0 W/m² -14,4 °C -11,7 °C 0,0 km/h (0 Bft)
11.01.2026 18:43 22,2 °C -11,8 °C 42 % 81 % 1025,3 hPa 0,0 l/m² 0,0 km/h (0 Bft) S-SW 211 ° 0 min 0 W/m² -14,4 °C -11,8 °C 0,0 km/h (0 Bft)
11.01.2026 18:45 22,3 °C -11,8 °C 42 % 81 % 1025,3 hPa 0,0 l/m² 0,0 km/h (0 Bft) S-SW 211 ° 0 min 0 W/m² -14,4 °C -11,8 °C 0,0 km/h (0 Bft)
11.01.2026 18:46 22,3 °C -11,9 °C 42 % 81 % 1025,4 hPa 0,0 l/m² 0,0 km/h (0 Bft) S-SW 211 ° 0 min 0 W/m² -14,5 °C -11,9 °C 0,0 km/h (0 Bft)
11.01.2026 18:47 22,3 °C -11,9 °C 42 % 81 % 1025,3 hPa 0,0 l/m² 0,0 km/h (0 Bft) S-SW 211 ° 0 min 0 W/m² -14,5 °C -11,9 °C 0,0 km/h (0 Bft)
11.01.2026 18:48 22,3 °C -11,9 °C 42 % 81 % 1025,4 hPa 0,0 l/m² 0,0 km/h (0 Bft) S-SW 211 ° 0 min 0 W/m² -14,5 °C -11,9 °C 0,0 km/h (0 Bft)
11.01.2026 18:49 22,3 °C -11,9 °C 42 % 81 % 1025,3 hPa 0,0 l/m² 0,0 km/h (0 Bft) S-SW 211 ° 0 min 0 W/m² -14,5 °C -11,9 °C 0,0 km/h (0 Bft)
11.01.2026 18:51 22,2 °C -12,0 °C 42 % 81 % 1025,3 hPa 0,0 l/m² 0,0 km/h (0 Bft) S-SW 211 ° 0 min 0 W/m² -14,6 °C -12,0 °C 0,0 km/h (0 Bft)
11.01.2026 18:53 22,3 °C -12,1 °C 42 % 81 % 1025,3 hPa 0,0 l/m² 0,0 km/h (0 Bft) S-SW 211 ° 0 min 0 W/m² -14,7 °C -12,1 °C 0,0 km/h (0 Bft)
11.01.2026 18:54 22,2 °C -12,1 °C 42 % 81 % 1025,3 hPa 0,0 l/m² 0,2 km/h (0 Bft) S-SW 211 ° 0 min 0 W/m² -14,7 °C -12,1 °C 1,6 km/h (1 Bft)
11.01.2026 18:55 22,2 °C -12,1 °C 42 % 81 % 1025,3 hPa 0,0 l/m² 0,0 km/h (0 Bft) S-SW 211 ° 0 min 0 W/m² -14,7 °C -12,1 °C 0,0 km/h (0 Bft)
11.01.2026 18:56 22,3 °C -12,2 °C 43 % 81 % 1025,3 hPa 0,0 l/m² 0,0 km/h (0 Bft) S-SW 211 ° 0 min 0 W/m² -14,8 °C -12,2 °C 0,0 km/h (0 Bft)
11.01.2026 18:57 22,2 °C -12,2 °C 43 % 81 % 1025,3 hPa 0,0 l/m² 0,3 km/h (0 Bft) S-SW 211 ° 0 min 0 W/m² -14,8 °C -12,2 °C 1,6 km/h (1 Bft)
11.01.2026 18:58 22,3 °C -12,2 °C 43 % 82 % 1025,3 hPa 0,0 l/m² 0,0 km/h (0 Bft) S-SW 211 ° 0 min 0 W/m² -14,6 °C -12,2 °C 0,0 km/h (0 Bft)
11.01.2026 18:59 22,2 °C -12,2 °C 43 % 81 % 1025,3 hPa 0,0 l/m² 0,1 km/h (0 Bft) S-SW 211 ° 0 min 0 W/m² -14,8 °C -12,2 °C 1,6 km/h (1 Bft)
11.01.2026 19:01 22,2 °C -12,3 °C 43 % 82 % 1025,3 hPa 0,0 l/m² 0,0 km/h (0 Bft) S-SW 211 ° 0 min 0 W/m² -14,7 °C -12,3 °C 0,0 km/h (0 Bft)
11.01.2026 19:03 22,2 °C -12,3 °C 43 % 82 % 1025,3 hPa 0,0 l/m² 0,0 km/h (0 Bft) S-SW 211 ° 0 min 0 W/m² -14,7 °C -12,3 °C 0,0 km/h (0 Bft)
11.01.2026 19:04 22,2 °C -12,3 °C 43 % 82 % 1025,3 hPa 0,0 l/m² 0,0 km/h (0 Bft) S-SW 211 ° 0 min 0 W/m² -14,7 °C -12,3 °C 0,0 km/h (0 Bft)
11.01.2026 19:05 22,2 °C -12,3 °C 43 % 82 % 1025,2 hPa 0,0 l/m² 0,0 km/h (0 Bft) S-SW 211 ° 0 min 0 W/m² -14,7 °C -12,3 °C 0,0 km/h (0 Bft)
11.01.2026 19:06 22,2 °C -12,4 °C 43 % 82 % 1025,3 hPa 0,0 l/m² 0,0 km/h (0 Bft) S-SW 211 ° 0 min 0 W/m² -14,8 °C -12,4 °C 0,0 km/h (0 Bft)
11.01.2026 19:07 22,2 °C -12,4 °C 43 % 82 % 1025,3 hPa 0,0 l/m² 0,0 km/h (0 Bft) S-SW 211 ° 0 min 0 W/m² -14,8 °C -12,4 °C 0,0 km/h (0 Bft)
11.01.2026 19:08 22,2 °C -12,4 °C 43 % 82 % 1025,3 hPa 0,0 l/m² 0,0 km/h (0 Bft) S-SW 211 ° 0 min 0 W/m² -14,8 °C -12,4 °C 0,0 km/h (0 Bft)
11.01.2026 19:09 22,2 °C -12,4 °C 43 % 82 % 1025,4 hPa 0,0 l/m² 0,0 km/h (0 Bft) S-SW 211 ° 0 min 0 W/m² -14,8 °C -12,4 °C 0,0 km/h (0 Bft)
11.01.2026 19:11 22,2 °C -12,5 °C 43 % 82 % 1025,4 hPa 0,0 l/m² 1,1 km/h (1 Bft) S-SW 211 ° 0 min 0 W/m² -14,9 °C -12,5 °C 3,2 km/h (1 Bft)
11.01.2026 19:13 22,2 °C -12,6 °C 43 % 82 % 1025,3 hPa 0,0 l/m² 1,2 km/h (1 Bft) S-SW 209 ° 0 min 0 W/m² -15,0 °C -12,6 °C 3,2 km/h (1 Bft)
11.01.2026 19:14 22,2 °C -12,6 °C 43 % 82 % 1025,3 hPa 0,0 l/m² 0,0 km/h (0 Bft) S-SW 209 ° 0 min 0 W/m² -15,0 °C -12,6 °C 0,0 km/h (0 Bft)
11.01.2026 19:15 22,2 °C -12,6 °C 43 % 82 % 1025,4 hPa 0,0 l/m² 0,0 km/h (0 Bft) S-SW 209 ° 0 min 0 W/m² -15,0 °C -12,6 °C 0,0 km/h (0 Bft)
11.01.2026 19:16 22,2 °C -12,6 °C 43 % 82 % 1025,3 hPa 0,0 l/m² 0,0 km/h (0 Bft) S-SW 209 ° 0 min 0 W/m² -15,0 °C -12,6 °C 0,0 km/h (0 Bft)
11.01.2026 19:17 22,2 °C -12,6 °C 43 % 82 % 1025,3 hPa 0,0 l/m² 0,0 km/h (0 Bft) S-SW 209 ° 0 min 0 W/m² -15,0 °C -12,6 °C 0,0 km/h (0 Bft)
11.01.2026 19:18 22,2 °C -12,7 °C 43 % 82 % 1025,4 hPa 0,0 l/m² 0,0 km/h (0 Bft) S-SW 209 ° 0 min 0 W/m² -15,1 °C -12,7 °C 0,0 km/h (0 Bft)
11.01.2026 19:19 22,2 °C -12,7 °C 43 % 82 % 1025,3 hPa 0,0 l/m² 0,0 km/h (0 Bft) S-SW 209 ° 0 min 0 W/m² -15,1 °C -12,7 °C 0,0 km/h (0 Bft)
11.01.2026 19:21 22,2 °C -12,7 °C 43 % 82 % 1025,3 hPa 0,0 l/m² 0,0 km/h (0 Bft) S-SW 209 ° 0 min 0 W/m² -15,1 °C -12,7 °C 0,0 km/h (0 Bft)
11.01.2026 19:23 22,2 °C -12,7 °C 43 % 82 % 1025,3 hPa 0,0 l/m² 0,0 km/h (0 Bft) S-SW 209 ° 0 min 0 W/m² -15,1 °C -12,7 °C 0,0 km/h (0 Bft)
11.01.2026 19:24 22,2 °C -12,8 °C 43 % 82 % 1025,4 hPa 0,0 l/m² 0,0 km/h (0 Bft) S-SW 209 ° 0 min 0 W/m² -15,2 °C -12,8 °C 0,0 km/h (0 Bft)
11.01.2026 19:25 22,2 °C -12,8 °C 43 % 82 % 1025,4 hPa 0,0 l/m² 0,0 km/h (0 Bft) S-SW 209 ° 0 min 0 W/m² -15,2 °C -12,8 °C 0,0 km/h (0 Bft)
11.01.2026 19:26 22,2 °C -12,8 °C 43 % 82 % 1025,4 hPa 0,0 l/m² 0,0 km/h (0 Bft) S-SW 209 ° 0 min 0 W/m² -15,2 °C -12,8 °C 0,0 km/h (0 Bft)
11.01.2026 19:27 22,2 °C -12,8 °C 43 % 82 % 1025,4 hPa 0,0 l/m² 0,0 km/h (0 Bft) S-SW 209 ° 0 min 0 W/m² -15,2 °C -12,8 °C 0,0 km/h (0 Bft)
11.01.2026 19:28 22,2 °C -12,8 °C 43 % 82 % 1025,3 hPa 0,0 l/m² 0,0 km/h (0 Bft) S-SW 209 ° 0 min 0 W/m² -15,2 °C -12,8 °C 0,0 km/h (0 Bft)
11.01.2026 19:29 22,2 °C -12,8 °C 43 % 82 % 1025,3 hPa 0,0 l/m² 0,0 km/h (0 Bft) S-SW 209 ° 0 min 0 W/m² -15,2 °C -12,8 °C 0,0 km/h (0 Bft)
11.01.2026 19:31 22,3 °C -12,9 °C 43 % 82 % 1025,3 hPa 0,0 l/m² 0,0 km/h (0 Bft) S-SW 209 ° 0 min 0 W/m² -15,3 °C -12,9 °C 0,0 km/h (0 Bft)
11.01.2026 19:33 22,3 °C -12,9 °C 43 % 82 % 1025,2 hPa 0,0 l/m² 0,0 km/h (0 Bft) S-SW 209 ° 0 min 0 W/m² -15,3 °C -12,9 °C 0,0 km/h (0 Bft)
11.01.2026 19:34 22,3 °C -12,9 °C 43 % 82 % 1025,3 hPa 0,0 l/m² 0,0 km/h (0 Bft) S-SW 209 ° 0 min 0 W/m² -15,3 °C -12,9 °C 0,0 km/h (0 Bft)
11.01.2026 19:35 22,3 °C -12,9 °C 43 % 82 % 1025,3 hPa 0,0 l/m² 0,0 km/h (0 Bft) S-SW 209 ° 0 min 0 W/m² -15,3 °C -12,9 °C 0,0 km/h (0 Bft)
11.01.2026 19:36 22,3 °C -13,0 °C 43 % 82 % 1025,3 hPa 0,0 l/m² 0,0 km/h (0 Bft) S-SW 209 ° 0 min 0 W/m² -15,4 °C -13,0 °C 0,0 km/h (0 Bft)
11.01.2026 19:37 22,3 °C -13,0 °C 43 % 83 % 1025,3 hPa 0,0 l/m² 0,0 km/h (0 Bft) S-SW 209 ° 0 min 0 W/m² -15,3 °C -13,0 °C 0,0 km/h (0 Bft)
11.01.2026 19:38 22,3 °C -13,0 °C 44 % 83 % 1025,2 hPa 0,0 l/m² 0,0 km/h (0 Bft) S-SW 209 ° 0 min 0 W/m² -15,3 °C -13,0 °C 0,0 km/h (0 Bft)
11.01.2026 19:39 22,3 °C -13,1 °C 44 % 83 % 1025,3 hPa 0,0 l/m² 0,0 km/h (0 Bft) S-SW 209 ° 0 min 0 W/m² -15,4 °C -13,1 °C 0,0 km/h (0 Bft)
11.01.2026 19:41 22,3 °C -13,1 °C 44 % 83 % 1025,3 hPa 0,0 l/m² 0,0 km/h (0 Bft) S-SW 209 ° 0 min 0 W/m² -15,4 °C -13,1 °C 0,0 km/h (0 Bft)
11.01.2026 19:43 22,3 °C -13,1 °C 44 % 83 % 1025,1 hPa 0,0 l/m² 0,0 km/h (0 Bft) S-SW 209 ° 0 min 0 W/m² -15,4 °C -13,1 °C 0,0 km/h (0 Bft)
11.01.2026 19:44 22,3 °C -13,2 °C 44 % 83 % 1025,2 hPa 0,0 l/m² 0,0 km/h (0 Bft) S-SW 209 ° 0 min 0 W/m² -15,5 °C -13,2 °C 0,0 km/h (0 Bft)
11.01.2026 19:45 22,3 °C -13,2 °C 44 % 83 % 1025,2 hPa 0,0 l/m² 0,0 km/h (0 Bft) S-SW 209 ° 0 min 0 W/m² -15,5 °C -13,2 °C 0,0 km/h (0 Bft)
11.01.2026 19:46 22,3 °C -13,2 °C 44 % 83 % 1025,2 hPa 0,0 l/m² 0,0 km/h (0 Bft) S-SW 209 ° 0 min 0 W/m² -15,5 °C -13,2 °C 0,0 km/h (0 Bft)
11.01.2026 19:47 22,3 °C -13,2 °C 44 % 82 % 1025,2 hPa 0,0 l/m² 0,0 km/h (0 Bft) S-SW 209 ° 0 min 0 W/m² -15,6 °C -13,2 °C 0,0 km/h (0 Bft)
11.01.2026 19:48 22,3 °C -13,2 °C 44 % 82 % 1025,3 hPa 0,0 l/m² 0,0 km/h (0 Bft) S-SW 209 ° 0 min 0 W/m² -15,6 °C -13,2 °C 0,0 km/h (0 Bft)
11.01.2026 19:49 22,3 °C -13,3 °C 44 % 82 % 1025,2 hPa 0,0 l/m² 0,0 km/h (0 Bft) S-SW 209 ° 0 min 0 W/m² -15,7 °C -13,3 °C 0,0 km/h (0 Bft)
11.01.2026 19:51 22,3 °C -13,3 °C 44 % 82 % 1025,2 hPa 0,0 l/m² 0,0 km/h (0 Bft) S-SW 209 ° 0 min 0 W/m² -15,7 °C -13,3 °C 0,0 km/h (0 Bft)
11.01.2026 19:53 22,3 °C -13,4 °C 44 % 83 % 1025,2 hPa 0,0 l/m² 0,0 km/h (0 Bft) S-SW 209 ° 0 min 0 W/m² -15,7 °C -13,4 °C 0,0 km/h (0 Bft)
11.01.2026 19:54 22,3 °C -13,4 °C 44 % 82 % 1025,2 hPa 0,0 l/m² 0,0 km/h (0 Bft) S-SW 209 ° 0 min 0 W/m² -15,8 °C -13,4 °C 0,0 km/h (0 Bft)
11.01.2026 19:55 22,3 °C -13,4 °C 44 % 82 % 1025,2 hPa 0,0 l/m² 0,0 km/h (0 Bft) S-SW 209 ° 0 min 0 W/m² -15,8 °C -13,4 °C 0,0 km/h (0 Bft)
11.01.2026 19:56 22,3 °C -13,4 °C 44 % 82 % 1025,2 hPa 0,0 l/m² 0,0 km/h (0 Bft) S-SW 209 ° 0 min 0 W/m² -15,8 °C -13,4 °C 0,0 km/h (0 Bft)
11.01.2026 19:57 22,3 °C -13,4 °C 44 % 83 % 1025,2 hPa 0,0 l/m² 0,0 km/h (0 Bft) S-SW 209 ° 0 min 0 W/m² -15,7 °C -13,4 °C 0,0 km/h (0 Bft)
11.01.2026 19:58 22,3 °C -13,5 °C 44 % 83 % 1025,3 hPa 0,0 l/m² 0,0 km/h (0 Bft) S-SW 209 ° 0 min 0 W/m² -15,8 °C -13,5 °C 0,0 km/h (0 Bft)
11.01.2026 19:59 22,3 °C -13,5 °C 44 % 83 % 1025,2 hPa 0,0 l/m² 0,0 km/h (0 Bft) S-SW 209 ° 0 min 0 W/m² -15,8 °C -13,5 °C 0,0 km/h (0 Bft)
11.01.2026 20:01 22,3 °C -13,6 °C 44 % 83 % 1025,1 hPa 0,0 l/m² 0,0 km/h (0 Bft) S-SW 209 ° 0 min 0 W/m² -15,8 °C -13,6 °C 0,0 km/h (0 Bft)
11.01.2026 20:03 22,3 °C -13,6 °C 44 % 83 % 1025,1 hPa 0,0 l/m² 0,0 km/h (0 Bft) S-SW 209 ° 0 min 0 W/m² -15,8 °C -13,6 °C 0,0 km/h (0 Bft)
11.01.2026 20:04 22,3 °C -13,6 °C 44 % 83 % 1025,2 hPa 0,0 l/m² 0,0 km/h (0 Bft) S-SW 209 ° 0 min 0 W/m² -15,8 °C -13,6 °C 0,0 km/h (0 Bft)
11.01.2026 20:05 22,3 °C -13,6 °C 44 % 83 % 1025,2 hPa 0,0 l/m² 0,0 km/h (0 Bft) S-SW 209 ° 0 min 0 W/m² -15,8 °C -13,6 °C 0,0 km/h (0 Bft)
11.01.2026 20:06 22,4 °C -13,6 °C 44 % 83 % 1025,1 hPa 0,0 l/m² 0,0 km/h (0 Bft) S-SW 209 ° 0 min 0 W/m² -15,8 °C -13,6 °C 0,0 km/h (0 Bft)
11.01.2026 20:08 22,3 °C -13,6 °C 44 % 83 % 1025,1 hPa 0,0 l/m² 0,0 km/h (0 Bft) S-SW 209 ° 0 min 0 W/m² -15,8 °C -13,6 °C 0,0 km/h (0 Bft)
11.01.2026 20:09 22,3 °C -13,6 °C 44 % 83 % 1025,0 hPa 0,0 l/m² 0,0 km/h (0 Bft) S-SW 209 ° 0 min 0 W/m² -15,8 °C -13,6 °C 0,0 km/h (0 Bft)
11.01.2026 20:11 22,3 °C -13,7 °C 44 % 83 % 1025,1 hPa 0,0 l/m² 0,0 km/h (0 Bft) S-SW 209 ° 0 min 0 W/m² -15,9 °C -13,7 °C 0,0 km/h (0 Bft)
11.01.2026 20:13 22,4 °C -13,7 °C 44 % 83 % 1025,0 hPa 0,0 l/m² 0,0 km/h (0 Bft) S-SW 209 ° 0 min 0 W/m² -15,9 °C -13,7 °C 0,0 km/h (0 Bft)
11.01.2026 20:14 22,4 °C -13,7 °C 45 % 83 % 1025,0 hPa 0,0 l/m² 0,0 km/h (0 Bft) S-SW 209 ° 0 min 0 W/m² -15,9 °C -13,7 °C 0,0 km/h (0 Bft)
11.01.2026 20:15 22,3 °C -13,7 °C 45 % 83 % 1025,1 hPa 0,0 l/m² 0,0 km/h (0 Bft) S-SW 209 ° 0 min 0 W/m² -15,9 °C -13,7 °C 0,0 km/h (0 Bft)
11.01.2026 20:16 22,4 °C -13,7 °C 45 % 83 % 1025,1 hPa 0,0 l/m² 0,0 km/h (0 Bft) S-SW 209 ° 0 min 0 W/m² -15,9 °C -13,7 °C 0,0 km/h (0 Bft)
11.01.2026 20:17 22,4 °C -13,7 °C 45 % 83 % 1025,0 hPa 0,0 l/m² 0,0 km/h (0 Bft) S-SW 209 ° 0 min 0 W/m² -15,9 °C -13,7 °C 0,0 km/h (0 Bft)
11.01.2026 20:18 22,4 °C -13,8 °C 45 % 83 % 1025,0 hPa 0,0 l/m² 0,0 km/h (0 Bft) S-SW 209 ° 0 min 0 W/m² -16,0 °C -13,8 °C 0,0 km/h (0 Bft)
11.01.2026 20:19 22,4 °C -13,8 °C 45 % 83 % 1025,1 hPa 0,0 l/m² 0,0 km/h (0 Bft) S-SW 209 ° 0 min 0 W/m² -16,0 °C -13,8 °C 0,0 km/h (0 Bft)
11.01.2026 20:21 22,4 °C -13,8 °C 45 % 83 % 1025,1 hPa 0,0 l/m² 0,0 km/h (0 Bft) S-SW 209 ° 0 min 0 W/m² -16,0 °C -13,8 °C 0,0 km/h (0 Bft)
11.01.2026 20:23 22,4 °C -13,8 °C 45 % 83 % 1025,1 hPa 0,0 l/m² 0,0 km/h (0 Bft) S-SW 209 ° 0 min 0 W/m² -16,0 °C -13,8 °C 0,0 km/h (0 Bft)
11.01.2026 20:24 22,4 °C -13,8 °C 45 % 83 % 1025,1 hPa 0,0 l/m² 0,0 km/h (0 Bft) S-SW 209 ° 0 min 0 W/m² -16,0 °C -13,8 °C 0,0 km/h (0 Bft)
11.01.2026 20:25 22,4 °C -13,8 °C 45 % 83 % 1025,1 hPa 0,0 l/m² 0,0 km/h (0 Bft) S-SW 209 ° 0 min 0 W/m² -16,0 °C -13,8 °C 0,0 km/h (0 Bft)
11.01.2026 20:26 22,4 °C -13,9 °C 45 % 83 % 1025,1 hPa 0,0 l/m² 0,0 km/h (0 Bft) S-SW 209 ° 0 min 0 W/m² -16,1 °C -13,9 °C 0,0 km/h (0 Bft)
11.01.2026 20:27 22,4 °C -13,9 °C 45 % 83 % 1025,1 hPa 0,0 l/m² 0,0 km/h (0 Bft) S-SW 209 ° 0 min 0 W/m² -16,1 °C -13,9 °C 0,0 km/h (0 Bft)
11.01.2026 20:28 22,4 °C -13,9 °C 45 % 83 % 1025,1 hPa 0,0 l/m² 0,0 km/h (0 Bft) S-SW 209 ° 0 min 0 W/m² -16,1 °C -13,9 °C 0,0 km/h (0 Bft)
11.01.2026 20:29 22,4 °C -13,9 °C 45 % 83 % 1025,1 hPa 0,0 l/m² 0,0 km/h (0 Bft) S-SW 209 ° 0 min 0 W/m² -16,1 °C -13,9 °C 0,0 km/h (0 Bft)
11.01.2026 20:31 22,4 °C -13,9 °C 45 % 83 % 1025,0 hPa 0,0 l/m² 0,0 km/h (0 Bft) S-SW 209 ° 0 min 0 W/m² -16,1 °C -13,9 °C 0,0 km/h (0 Bft)
11.01.2026 20:33 22,4 °C -14,1 °C 45 % 83 % 1025,0 hPa 0,0 l/m² 0,0 km/h (0 Bft) S-SW 209 ° 0 min 0 W/m² -16,3 °C -14,1 °C 0,0 km/h (0 Bft)
11.01.2026 20:34 22,4 °C -14,0 °C 45 % 83 % 1025,0 hPa 0,0 l/m² 0,0 km/h (0 Bft) S-SW 209 ° 0 min 0 W/m² -16,2 °C -14,0 °C 0,0 km/h (0 Bft)
11.01.2026 20:35 22,4 °C -14,1 °C 45 % 83 % 1025,0 hPa 0,0 l/m² 0,0 km/h (0 Bft) S-SW 209 ° 0 min 0 W/m² -16,3 °C -14,1 °C 0,0 km/h (0 Bft)
11.01.2026 20:36 22,4 °C -14,1 °C 45 % 83 % 1025,0 hPa 0,0 l/m² 0,0 km/h (0 Bft) S-SW 209 ° 0 min 0 W/m² -16,3 °C -14,1 °C 0,0 km/h (0 Bft)
11.01.2026 20:37 22,4 °C -14,1 °C 45 % 83 % 1025,0 hPa 0,0 l/m² 0,0 km/h (0 Bft) S-SW 209 ° 0 min 0 W/m² -16,3 °C -14,1 °C 0,0 km/h (0 Bft)
11.01.2026 20:38 22,4 °C -14,1 °C 45 % 83 % 1024,9 hPa 0,0 l/m² 0,0 km/h (0 Bft) S-SW 209 ° 0 min 0 W/m² -16,3 °C -14,1 °C 0,0 km/h (0 Bft)
11.01.2026 20:39 22,4 °C -14,1 °C 45 % 83 % 1024,9 hPa 0,0 l/m² 0,0 km/h (0 Bft) S-SW 209 ° 0 min 0 W/m² -16,3 °C -14,1 °C 0,0 km/h (0 Bft)
11.01.2026 20:41 22,4 °C -14,2 °C 45 % 83 % 1025,0 hPa 0,0 l/m² 0,0 km/h (0 Bft) S-SW 209 ° 0 min 0 W/m² -16,4 °C -14,2 °C 0,0 km/h (0 Bft)
11.01.2026 20:43 22,4 °C -14,2 °C 45 % 83 % 1025,0 hPa 0,0 l/m² 0,0 km/h (0 Bft) S-SW 209 ° 0 min 0 W/m² -16,4 °C -14,2 °C 0,0 km/h (0 Bft)
11.01.2026 20:44 22,4 °C -14,3 °C 45 % 83 % 1024,9 hPa 0,0 l/m² 0,0 km/h (0 Bft) S-SW 209 ° 0 min 0 W/m² -16,5 °C -14,3 °C 0,0 km/h (0 Bft)
11.01.2026 20:45 22,4 °C -14,3 °C 45 % 83 % 1025,0 hPa 0,0 l/m² 0,0 km/h (0 Bft) S-SW 209 ° 0 min 0 W/m² -16,5 °C -14,3 °C 0,0 km/h (0 Bft)
11.01.2026 20:46 22,4 °C -14,3 °C 45 % 83 % 1025,0 hPa 0,0 l/m² 0,0 km/h (0 Bft) S-SW 209 ° 0 min 0 W/m² -16,5 °C -14,3 °C 0,0 km/h (0 Bft)
11.01.2026 20:47 22,4 °C -14,3 °C 45 % 83 % 1025,0 hPa 0,0 l/m² 0,0 km/h (0 Bft) S-SW 209 ° 0 min 0 W/m² -16,5 °C -14,3 °C 0,0 km/h (0 Bft)
11.01.2026 20:48 22,4 °C -14,3 °C 45 % 83 % 1025,0 hPa 0,0 l/m² 0,0 km/h (0 Bft) S-SW 209 ° 0 min 0 W/m² -16,5 °C -14,3 °C 0,0 km/h (0 Bft)
11.01.2026 20:49 22,4 °C -14,3 °C 45 % 83 % 1025,0 hPa 0,0 l/m² 0,0 km/h (0 Bft) S-SW 209 ° 0 min 0 W/m² -16,5 °C -14,3 °C 0,0 km/h (0 Bft)
11.01.2026 20:51 22,4 °C -14,4 °C 45 % 83 % 1025,0 hPa 0,0 l/m² 0,0 km/h (0 Bft) S-SW 209 ° 0 min 0 W/m² -16,6 °C -14,4 °C 0,0 km/h (0 Bft)
11.01.2026 20:53 22,4 °C -14,4 °C 45 % 84 % 1024,9 hPa 0,0 l/m² 0,0 km/h (0 Bft) S-SW 209 ° 0 min 0 W/m² -16,5 °C -14,4 °C 0,0 km/h (0 Bft)
11.01.2026 20:54 22,4 °C -14,4 °C 45 % 83 % 1024,9 hPa 0,0 l/m² 0,0 km/h (0 Bft) S-SW 209 ° 0 min 0 W/m² -16,6 °C -14,4 °C 0,0 km/h (0 Bft)
11.01.2026 20:55 22,4 °C -14,4 °C 45 % 83 % 1024,9 hPa 0,0 l/m² 0,0 km/h (0 Bft) S-SW 209 ° 0 min 0 W/m² -16,6 °C -14,4 °C 0,0 km/h (0 Bft)
11.01.2026 20:56 22,4 °C -14,4 °C 45 % 83 % 1025,0 hPa 0,0 l/m² 0,0 km/h (0 Bft) S-SW 209 ° 0 min 0 W/m² -16,6 °C -14,4 °C 0,0 km/h (0 Bft)
11.01.2026 20:57 22,4 °C -14,4 °C 45 % 83 % 1025,0 hPa 0,0 l/m² 0,0 km/h (0 Bft) S-SW 209 ° 0 min 0 W/m² -16,6 °C -14,4 °C 0,0 km/h (0 Bft)
11.01.2026 20:58 22,4 °C -14,4 °C 45 % 83 % 1024,9 hPa 0,0 l/m² 0,0 km/h (0 Bft) S-SW 209 ° 0 min 0 W/m² -16,6 °C -14,4 °C 0,0 km/h (0 Bft)
11.01.2026 20:59 22,4 °C -14,4 °C 45 % 83 % 1024,9 hPa 0,0 l/m² 0,0 km/h (0 Bft) S-SW 209 ° 0 min 0 W/m² -16,6 °C -14,4 °C 0,0 km/h (0 Bft)
11.01.2026 21:01 22,4 °C -14,5 °C 45 % 84 % 1024,9 hPa 0,0 l/m² 0,2 km/h (0 Bft) S-SW 209 ° 0 min 0 W/m² -16,6 °C -14,5 °C 1,6 km/h (1 Bft)
11.01.2026 21:03 22,4 °C -14,6 °C 45 % 84 % 1024,9 hPa 0,0 l/m² 2,4 km/h (1 Bft) S-SW 209 ° 0 min 0 W/m² -16,7 °C -14,6 °C 3,2 km/h (1 Bft)
11.01.2026 21:04 22,4 °C -14,6 °C 45 % 84 % 1024,8 hPa 0,0 l/m² 3,1 km/h (1 Bft) S-SW 209 ° 0 min 0 W/m² -16,7 °C -14,6 °C 3,2 km/h (1 Bft)
11.01.2026 21:05 22,4 °C -14,6 °C 45 % 84 % 1024,8 hPa 0,0 l/m² 3,3 km/h (1 Bft) SO 126 ° 0 min 0 W/m² -16,7 °C -14,6 °C 4,8 km/h (1 Bft)
11.01.2026 21:06 22,4 °C -14,6 °C 45 % 84 % 1024,9 hPa 0,0 l/m² 2,7 km/h (1 Bft) SO 125 ° 0 min 0 W/m² -16,7 °C -14,6 °C 3,2 km/h (1 Bft)
11.01.2026 21:07 22,4 °C -14,6 °C 45 % 84 % 1024,9 hPa 0,0 l/m² 0,5 km/h (0 Bft) SO 125 ° 0 min 0 W/m² -16,7 °C -14,6 °C 1,6 km/h (1 Bft)
11.01.2026 21:08 22,4 °C -14,6 °C 45 % 84 % 1024,9 hPa 0,0 l/m² 1,1 km/h (1 Bft) SO 125 ° 0 min 0 W/m² -16,7 °C -14,6 °C 3,2 km/h (1 Bft)
11.01.2026 21:09 22,4 °C -14,6 °C 45 % 84 % 1024,8 hPa 0,0 l/m² 2,4 km/h (1 Bft) SO 125 ° 0 min 0 W/m² -16,7 °C -14,6 °C 3,2 km/h (1 Bft)
11.01.2026 21:11 22,4 °C -14,6 °C 45 % 84 % 1024,8 hPa 0,0 l/m² 2,7 km/h (1 Bft) SO 125 ° 0 min 0 W/m² -16,7 °C -14,6 °C 3,2 km/h (1 Bft)
11.01.2026 21:13 22,4 °C -14,6 °C 45 % 84 % 1024,8 hPa 0,0 l/m² 2,1 km/h (1 Bft) SO 125 ° 0 min 0 W/m² -16,7 °C -14,6 °C 3,2 km/h (1 Bft)
11.01.2026 21:14 22,4 °C -14,6 °C 45 % 84 % 1024,9 hPa 0,0 l/m² 1,3 km/h (1 Bft) SO 125 ° 0 min 0 W/m² -16,7 °C -14,6 °C 1,6 km/h (1 Bft)
11.01.2026 21:15 22,4 °C -14,6 °C 45 % 84 % 1024,8 hPa 0,0 l/m² 1,1 km/h (1 Bft) SO 125 ° 0 min 0 W/m² -16,7 °C -14,6 °C 3,2 km/h (1 Bft)
11.01.2026 21:16 22,4 °C -14,6 °C 45 % 84 % 1024,8 hPa 0,0 l/m² 2,4 km/h (1 Bft) SO 125 ° 0 min 0 W/m² -16,7 °C -14,6 °C 3,2 km/h (1 Bft)
11.01.2026 21:17 22,4 °C -14,5 °C 45 % 84 % 1024,8 hPa 0,0 l/m² 0,7 km/h (0 Bft) SO 125 ° 0 min 0 W/m² -16,6 °C -14,5 °C 1,6 km/h (1 Bft)
11.01.2026 21:18 22,4 °C -14,5 °C 45 % 84 % 1024,8 hPa 0,0 l/m² 1,6 km/h (1 Bft) SO 125 ° 0 min 0 W/m² -16,6 °C -14,5 °C 3,2 km/h (1 Bft)
11.01.2026 21:19 22,4 °C -14,4 °C 45 % 84 % 1024,8 hPa 0,0 l/m² 1,4 km/h (1 Bft) SO 125 ° 0 min 0 W/m² -16,5 °C -14,4 °C 1,6 km/h (1 Bft)
11.01.2026 21:21 22,4 °C -14,4 °C 45 % 84 % 1024,8 hPa 0,0 l/m² 1,4 km/h (1 Bft) SO 125 ° 0 min 0 W/m² -16,5 °C -14,4 °C 1,6 km/h (1 Bft)
11.01.2026 21:23 22,4 °C -14,4 °C 45 % 84 % 1024,8 hPa 0,0 l/m² 0,8 km/h (0 Bft) SO 125 ° 0 min 0 W/m² -16,5 °C -14,4 °C 3,2 km/h (1 Bft)
11.01.2026 21:24 22,5 °C -14,4 °C 45 % 85 % 1024,7 hPa 0,0 l/m² 0,3 km/h (0 Bft) SO 125 ° 0 min 0 W/m² -16,4 °C -14,4 °C 1,6 km/h (1 Bft)
11.01.2026 21:25 22,5 °C -14,4 °C 45 % 85 % 1024,7 hPa 0,0 l/m² 0,0 km/h (0 Bft) SO 125 ° 0 min 0 W/m² -16,4 °C -14,4 °C 0,0 km/h (0 Bft)
11.01.2026 21:26 22,5 °C -14,3 °C 45 % 85 % 1024,7 hPa 0,0 l/m² 0,0 km/h (0 Bft) SO 125 ° 0 min 0 W/m² -16,3 °C -14,3 °C 0,0 km/h (0 Bft)
11.01.2026 21:27 22,5 °C -14,3 °C 45 % 85 % 1024,7 hPa 0,0 l/m² 0,0 km/h (0 Bft) SO 125 ° 0 min 0 W/m² -16,3 °C -14,3 °C 0,0 km/h (0 Bft)
11.01.2026 21:28 22,5 °C -14,3 °C 45 % 85 % 1024,8 hPa 0,0 l/m² 0,0 km/h (0 Bft) SO 125 ° 0 min 0 W/m² -16,3 °C -14,3 °C 0,0 km/h (0 Bft)
11.01.2026 21:29 22,5 °C -14,3 °C 45 % 85 % 1024,7 hPa 0,0 l/m² 0,0 km/h (0 Bft) SO 125 ° 0 min 0 W/m² -16,3 °C -14,3 °C 0,0 km/h (0 Bft)
11.01.2026 21:31 22,5 °C -14,3 °C 46 % 85 % 1024,7 hPa 0,0 l/m² 0,0 km/h (0 Bft) SO 125 ° 0 min 0 W/m² -16,3 °C -14,3 °C 0,0 km/h (0 Bft)
11.01.2026 21:33 22,5 °C -14,3 °C 46 % 85 % 1024,7 hPa 0,0 l/m² 0,0 km/h (0 Bft) SO 125 ° 0 min 0 W/m² -16,3 °C -14,3 °C 0,0 km/h (0 Bft)
11.01.2026 21:34 22,6 °C -14,3 °C 46 % 85 % 1024,7 hPa 0,0 l/m² 0,0 km/h (0 Bft) SO 125 ° 0 min 0 W/m² -16,3 °C -14,3 °C 0,0 km/h (0 Bft)
11.01.2026 21:35 22,6 °C -14,3 °C 46 % 85 % 1024,7 hPa 0,0 l/m² 0,0 km/h (0 Bft) SO 125 ° 0 min 0 W/m² -16,3 °C -14,3 °C 0,0 km/h (0 Bft)
11.01.2026 21:36 22,6 °C -14,3 °C 46 % 85 % 1024,7 hPa 0,0 l/m² 0,8 km/h (0 Bft) SO 125 ° 0 min 0 W/m² -16,3 °C -14,3 °C 3,2 km/h (1 Bft)
11.01.2026 21:37 22,6 °C -14,3 °C 46 % 85 % 1024,8 hPa 0,0 l/m² 2,1 km/h (1 Bft) SO 125 ° 0 min 0 W/m² -16,3 °C -14,3 °C 3,2 km/h (1 Bft)
11.01.2026 21:38 22,6 °C -14,3 °C 46 % 85 % 1024,7 hPa 0,0 l/m² 2,5 km/h (1 Bft) SO 125 ° 0 min 0 W/m² -16,3 °C -14,3 °C 3,2 km/h (1 Bft)
11.01.2026 21:39 22,6 °C -14,4 °C 46 % 85 % 1024,7 hPa 0,0 l/m² 0,7 km/h (0 Bft) SO 125 ° 0 min 0 W/m² -16,4 °C -14,4 °C 1,6 km/h (1 Bft)
11.01.2026 21:41 22,6 °C -14,4 °C 46 % 85 % 1024,7 hPa 0,0 l/m² 0,3 km/h (0 Bft) SO 125 ° 0 min 0 W/m² -16,4 °C -14,4 °C 1,6 km/h (1 Bft)
11.01.2026 21:43 22,6 °C -14,4 °C 46 % 85 % 1024,7 hPa 0,0 l/m² 0,0 km/h (0 Bft) SO 125 ° 0 min 0 W/m² -16,4 °C -14,4 °C 1,6 km/h (1 Bft)
11.01.2026 21:44 22,6 °C -14,4 °C 46 % 85 % 1024,7 hPa 0,0 l/m² 0,0 km/h (0 Bft) SO 125 ° 0 min 0 W/m² -16,4 °C -14,4 °C 0,0 km/h (0 Bft)
11.01.2026 21:46 22,6 °C -14,4 °C 45 % 85 % 1024,7 hPa 0,0 l/m² 0,0 km/h (0 Bft) SO 125 ° 0 min 0 W/m² -16,4 °C -14,4 °C 0,0 km/h (0 Bft)
11.01.2026 21:47 22,6 °C -14,4 °C 45 % 85 % 1024,7 hPa 0,0 l/m² 0,0 km/h (0 Bft) SO 125 ° 0 min 0 W/m² -16,4 °C -14,4 °C 0,0 km/h (0 Bft)
11.01.2026 21:48 22,6 °C -14,4 °C 45 % 85 % 1024,6 hPa 0,0 l/m² 0,0 km/h (0 Bft) SO 125 ° 0 min 0 W/m² -16,4 °C -14,4 °C 0,0 km/h (0 Bft)
11.01.2026 21:49 22,6 °C -14,4 °C 45 % 85 % 1024,7 hPa 0,0 l/m² 0,0 km/h (0 Bft) SO 125 ° 0 min 0 W/m² -16,4 °C -14,4 °C 0,0 km/h (0 Bft)
11.01.2026 21:51 22,6 °C -14,5 °C 45 % 85 % 1024,7 hPa 0,0 l/m² 0,0 km/h (0 Bft) SO 125 ° 0 min 0 W/m² -16,4 °C -14,5 °C 0,0 km/h (0 Bft)
11.01.2026 21:53 22,6 °C -14,5 °C 45 % 85 % 1024,7 hPa 0,0 l/m² 0,0 km/h (0 Bft) SO 125 ° 0 min 0 W/m² -16,4 °C -14,5 °C 0,0 km/h (0 Bft)
11.01.2026 21:54 22,6 °C -14,5 °C 45 % 85 % 1024,7 hPa 0,0 l/m² 0,0 km/h (0 Bft) SO 125 ° 0 min 0 W/m² -16,4 °C -14,5 °C 0,0 km/h (0 Bft)
11.01.2026 21:55 22,6 °C -14,6 °C 45 % 85 % 1024,7 hPa 0,0 l/m² 0,0 km/h (0 Bft) SO 125 ° 0 min 0 W/m² -16,5 °C -14,6 °C 0,0 km/h (0 Bft)
11.01.2026 21:56 22,6 °C -14,5 °C 45 % 85 % 1024,7 hPa 0,0 l/m² 0,0 km/h (0 Bft) SO 125 ° 0 min 0 W/m² -16,4 °C -14,5 °C 0,0 km/h (0 Bft)
11.01.2026 21:57 22,6 °C -14,6 °C 45 % 85 % 1024,6 hPa 0,0 l/m² 0,0 km/h (0 Bft) SO 125 ° 0 min 0 W/m² -16,5 °C -14,6 °C 0,0 km/h (0 Bft)
11.01.2026 21:58 22,6 °C -14,6 °C 45 % 85 % 1024,7 hPa 0,0 l/m² 0,0 km/h (0 Bft) SO 125 ° 0 min 0 W/m² -16,5 °C -14,6 °C 0,0 km/h (0 Bft)
11.01.2026 21:59 22,6 °C -14,6 °C 45 % 85 % 1024,6 hPa 0,0 l/m² 0,0 km/h (0 Bft) SO 125 ° 0 min 0 W/m² -16,5 °C -14,6 °C 0,0 km/h (0 Bft)
11.01.2026 22:01 22,6 °C -14,6 °C 45 % 85 % 1024,6 hPa 0,0 l/m² 0,0 km/h (0 Bft) SO 125 ° 0 min 0 W/m² -16,5 °C -14,6 °C 0,0 km/h (0 Bft)
11.01.2026 22:03 22,6 °C -14,6 °C 45 % 85 % 1024,6 hPa 0,0 l/m² 0,0 km/h (0 Bft) SO 125 ° 0 min 0 W/m² -16,5 °C -14,6 °C 0,0 km/h (0 Bft)
11.01.2026 22:04 22,6 °C -14,6 °C 45 % 85 % 1024,5 hPa 0,0 l/m² 0,0 km/h (0 Bft) SO 125 ° 0 min 0 W/m² -16,5 °C -14,6 °C 0,0 km/h (0 Bft)
11.01.2026 22:05 22,6 °C -14,6 °C 45 % 85 % 1024,5 hPa 0,0 l/m² 0,0 km/h (0 Bft) SO 125 ° 0 min 0 W/m² -16,5 °C -14,6 °C 0,0 km/h (0 Bft)
11.01.2026 22:06 22,6 °C -14,6 °C 45 % 85 % 1024,6 hPa 0,0 l/m² 0,0 km/h (0 Bft) SO 125 ° 0 min 0 W/m² -16,5 °C -14,6 °C 0,0 km/h (0 Bft)
11.01.2026 22:08 22,6 °C -14,6 °C 45 % 85 % 1024,7 hPa 0,0 l/m² 0,0 km/h (0 Bft) SO 125 ° 0 min 0 W/m² -16,5 °C -14,6 °C 0,0 km/h (0 Bft)
11.01.2026 22:09 22,6 °C -14,6 °C 45 % 85 % 1024,7 hPa 0,0 l/m² 0,0 km/h (0 Bft) SO 125 ° 0 min 0 W/m² -16,5 °C -14,6 °C 0,0 km/h (0 Bft)
11.01.2026 22:10 22,6 °C -14,6 °C 45 % 85 % 1024,6 hPa 0,0 l/m² 0,0 km/h (0 Bft) SO 125 ° 0 min 0 W/m² -16,5 °C -14,6 °C 0,0 km/h (0 Bft)
11.01.2026 22:12 22,7 °C -14,7 °C 45 % 85 % 1024,6 hPa 0,0 l/m² 0,0 km/h (0 Bft) SO 125 ° 0 min 0 W/m² -16,6 °C -14,7 °C 0,0 km/h (0 Bft)
11.01.2026 22:13 22,7 °C -14,7 °C 45 % 85 % 1024,6 hPa 0,0 l/m² 0,0 km/h (0 Bft) SO 125 ° 0 min 0 W/m² -16,6 °C -14,7 °C 0,0 km/h (0 Bft)
11.01.2026 22:14 22,6 °C -14,7 °C 45 % 85 % 1024,6 hPa 0,0 l/m² 0,0 km/h (0 Bft) SO 125 ° 0 min 0 W/m² -16,6 °C -14,7 °C 0,0 km/h (0 Bft)
11.01.2026 22:15 22,6 °C -14,7 °C 45 % 85 % 1024,5 hPa 0,0 l/m² 0,0 km/h (0 Bft) SO 125 ° 0 min 0 W/m² -16,6 °C -14,7 °C 0,0 km/h (0 Bft)
11.01.2026 22:16 22,7 °C -14,8 °C 45 % 85 % 1024,6 hPa 0,0 l/m² 0,0 km/h (0 Bft) SO 125 ° 0 min 0 W/m² -16,7 °C -14,8 °C 0,0 km/h (0 Bft)
11.01.2026 22:17 22,7 °C -14,8 °C 45 % 85 % 1024,5 hPa 0,0 l/m² 0,0 km/h (0 Bft) SO 125 ° 0 min 0 W/m² -16,7 °C -14,8 °C 0,0 km/h (0 Bft)
11.01.2026 22:18 22,6 °C -14,8 °C 45 % 85 % 1024,6 hPa 0,0 l/m² 0,3 km/h (0 Bft) SO 125 ° 0 min 0 W/m² -16,7 °C -14,8 °C 1,6 km/h (1 Bft)
11.01.2026 22:19 22,7 °C -14,8 °C 45 % 85 % 1024,6 hPa 0,0 l/m² 0,5 km/h (0 Bft) SO 125 ° 0 min 0 W/m² -16,7 °C -14,8 °C 1,6 km/h (1 Bft)
11.01.2026 22:21 22,7 °C -14,9 °C 45 % 85 % 1024,4 hPa 0,0 l/m² 1,6 km/h (1 Bft) SO 125 ° 0 min 0 W/m² -16,8 °C -14,9 °C 3,2 km/h (1 Bft)
11.01.2026 22:23 22,7 °C -14,9 °C 45 % 85 % 1024,5 hPa 0,0 l/m² 2,6 km/h (1 Bft) SO 125 ° 0 min 0 W/m² -16,8 °C -14,9 °C 3,2 km/h (1 Bft)
11.01.2026 22:24 22,7 °C -14,9 °C 45 % 85 % 1024,4 hPa 0,0 l/m² 0,6 km/h (0 Bft) SO 125 ° 0 min 0 W/m² -16,8 °C -14,9 °C 1,6 km/h (1 Bft)
11.01.2026 22:25 22,7 °C -14,9 °C 45 % 85 % 1024,3 hPa 0,0 l/m² 2,4 km/h (1 Bft) SO 125 ° 0 min 0 W/m² -16,8 °C -14,9 °C 3,2 km/h (1 Bft)
11.01.2026 22:26 22,7 °C -14,9 °C 45 % 85 % 1024,4 hPa 0,0 l/m² 3,4 km/h (1 Bft) SO 125 ° 0 min 0 W/m² -16,8 °C -14,9 °C 4,8 km/h (1 Bft)
11.01.2026 22:27 22,7 °C -15,0 °C 45 % 85 % 1024,4 hPa 0,0 l/m² 2,5 km/h (1 Bft) SO 125 ° 0 min 0 W/m² -16,9 °C -15,0 °C 3,2 km/h (1 Bft)
11.01.2026 22:28 22,7 °C -15,0 °C 45 % 85 % 1024,3 hPa 0,0 l/m² 2,3 km/h (1 Bft) SO 125 ° 0 min 0 W/m² -16,9 °C -15,0 °C 3,2 km/h (1 Bft)
11.01.2026 22:29 22,7 °C -15,0 °C 45 % 85 % 1024,3 hPa 0,0 l/m² 0,3 km/h (0 Bft) SO 125 ° 0 min 0 W/m² -16,9 °C -15,0 °C 1,6 km/h (1 Bft)
11.01.2026 22:31 22,7 °C -15,0 °C 45 % 85 % 1024,3 hPa 0,0 l/m² 0,5 km/h (0 Bft) SO 125 ° 0 min 0 W/m² -16,9 °C -15,0 °C 1,6 km/h (1 Bft)
11.01.2026 22:33 22,7 °C -15,0 °C 45 % 85 % 1024,3 hPa 0,0 l/m² 1,0 km/h (0 Bft) SO 125 ° 0 min 0 W/m² -16,9 °C -15,0 °C 3,2 km/h (1 Bft)
11.01.2026 22:34 22,7 °C -15,0 °C 45 % 85 % 1024,3 hPa 0,0 l/m² 1,4 km/h (1 Bft) SO 125 ° 0 min 0 W/m² -16,9 °C -15,0 °C 3,2 km/h (1 Bft)
11.01.2026 22:35 22,7 °C -15,0 °C 45 % 85 % 1024,4 hPa 0,0 l/m² 1,5 km/h (1 Bft) SO 125 ° 0 min 0 W/m² -16,9 °C -15,0 °C 3,2 km/h (1 Bft)
11.01.2026 22:36 22,7 °C -15,0 °C 45 % 85 % 1024,3 hPa 0,0 l/m² 1,9 km/h (1 Bft) SO 125 ° 0 min 0 W/m² -16,9 °C -15,0 °C 3,2 km/h (1 Bft)
11.01.2026 22:37 22,7 °C -15,0 °C 45 % 85 % 1024,3 hPa 0,0 l/m² 1,9 km/h (1 Bft) SO 125 ° 0 min 0 W/m² -16,9 °C -15,0 °C 3,2 km/h (1 Bft)
11.01.2026 22:38 22,7 °C -15,0 °C 45 % 85 % 1024,3 hPa 0,0 l/m² 2,3 km/h (1 Bft) O-SO 121 ° 0 min 0 W/m² -16,9 °C -15,0 °C 4,8 km/h (1 Bft)
11.01.2026 22:39 22,6 °C -15,0 °C 45 % 85 % 1024,4 hPa 0,0 l/m² 2,4 km/h (1 Bft) O-SO 119 ° 0 min 0 W/m² -16,9 °C -15,0 °C 3,2 km/h (1 Bft)
11.01.2026 22:41 22,7 °C -15,0 °C 45 % 85 % 1024,3 hPa 0,0 l/m² 1,6 km/h (1 Bft) O-SO 118 ° 0 min 0 W/m² -16,9 °C -15,0 °C 3,2 km/h (1 Bft)
11.01.2026 22:43 22,7 °C -15,0 °C 45 % 85 % 1024,3 hPa 0,0 l/m² 2,5 km/h (1 Bft) O-SO 113 ° 0 min 0 W/m² -16,9 °C -15,0 °C 4,8 km/h (1 Bft)
11.01.2026 22:44 22,7 °C -14,9 °C 45 % 85 % 1024,4 hPa 0,0 l/m² 4,1 km/h (1 Bft) O 90 ° 0 min 0 W/m² -16,8 °C -14,9 °C 6,4 km/h (2 Bft)
11.01.2026 22:45 22,7 °C -14,9 °C 45 % 85 % 1024,4 hPa 0,0 l/m² 2,7 km/h (1 Bft) O 90 ° 0 min 0 W/m² -16,8 °C -14,9 °C 4,8 km/h (1 Bft)
11.01.2026 22:46 22,6 °C -14,9 °C 45 % 85 % 1024,4 hPa 0,0 l/m² 3,3 km/h (1 Bft) O 89 ° 0 min 0 W/m² -16,8 °C -14,9 °C 4,8 km/h (1 Bft)
11.01.2026 22:47 22,7 °C -14,9 °C 45 % 85 % 1024,4 hPa 0,0 l/m² 3,7 km/h (1 Bft) O 87 ° 0 min 0 W/m² -16,8 °C -14,9 °C 4,8 km/h (1 Bft)
11.01.2026 22:48 22,6 °C -14,9 °C 45 % 85 % 1024,3 hPa 0,0 l/m² 2,9 km/h (1 Bft) O 87 ° 0 min 0 W/m² -16,8 °C -14,9 °C 4,8 km/h (1 Bft)
11.01.2026 22:49 22,7 °C -14,9 °C 45 % 86 % 1024,3 hPa 0,0 l/m² 3,9 km/h (1 Bft) O 86 ° 0 min 0 W/m² -16,7 °C -14,9 °C 6,4 km/h (2 Bft)
11.01.2026 22:50 22,7 °C -14,9 °C 46 % 86 % 1024,4 hPa 0,0 l/m² 3,5 km/h (1 Bft) O 86 ° 0 min 0 W/m² -16,7 °C -14,9 °C 4,8 km/h (1 Bft)
11.01.2026 22:51 22,6 °C -14,9 °C 45 % 86 % 1024,4 hPa 0,0 l/m² 3,3 km/h (1 Bft) O 86 ° 0 min 0 W/m² -16,7 °C -14,9 °C 4,8 km/h (1 Bft)
11.01.2026 22:52 22,6 °C -14,9 °C 45 % 86 % 1024,4 hPa 0,0 l/m² 3,1 km/h (1 Bft) O 86 ° 0 min 0 W/m² -16,7 °C -14,9 °C 3,2 km/h (1 Bft)
11.01.2026 22:53 22,6 °C -14,9 °C 45 % 86 % 1024,4 hPa 0,0 l/m² 2,6 km/h (1 Bft) O 86 ° 0 min 0 W/m² -16,7 °C -14,9 °C 3,2 km/h (1 Bft)
11.01.2026 22:54 22,6 °C -14,9 °C 46 % 86 % 1024,4 hPa 0,0 l/m² 1,1 km/h (1 Bft) O 86 ° 0 min 0 W/m² -16,7 °C -14,9 °C 3,2 km/h (1 Bft)
11.01.2026 22:55 22,7 °C -14,9 °C 45 % 86 % 1024,5 hPa 0,0 l/m² 0,4 km/h (0 Bft) O 86 ° 0 min 0 W/m² -16,7 °C -14,9 °C 1,6 km/h (1 Bft)
11.01.2026 22:56 22,6 °C -14,8 °C 46 % 86 % 1024,4 hPa 0,0 l/m² 1,6 km/h (1 Bft) O 86 ° 0 min 0 W/m² -16,6 °C -14,8 °C 3,2 km/h (1 Bft)
11.01.2026 22:57 22,6 °C -14,8 °C 45 % 86 % 1024,4 hPa 0,0 l/m² 1,5 km/h (1 Bft) O 86 ° 0 min 0 W/m² -16,6 °C -14,8 °C 3,2 km/h (1 Bft)
11.01.2026 22:58 22,6 °C -14,8 °C 45 % 86 % 1024,3 hPa 0,0 l/m² 1,4 km/h (1 Bft) O 86 ° 0 min 0 W/m² -16,6 °C -14,8 °C 3,2 km/h (1 Bft)
11.01.2026 22:59 22,6 °C -14,8 °C 45 % 86 % 1024,4 hPa 0,0 l/m² 0,1 km/h (0 Bft) O 86 ° 0 min 0 W/m² -16,6 °C -14,8 °C 1,6 km/h (1 Bft)
11.01.2026 23:00 22,6 °C -14,8 °C 45 % 86 % 1024,3 hPa 0,0 l/m² 0,0 km/h (0 Bft) O 86 ° 0 min 0 W/m² -16,6 °C -14,8 °C 0,0 km/h (0 Bft)
11.01.2026 23:02 22,6 °C -14,8 °C 45 % 86 % 1024,3 hPa 0,0 l/m² 0,5 km/h (0 Bft) O 86 ° 0 min 0 W/m² -16,6 °C -14,8 °C 1,6 km/h (1 Bft)
11.01.2026 23:03 22,6 °C -14,8 °C 45 % 86 % 1024,3 hPa 0,0 l/m² 0,0 km/h (0 Bft) O 86 ° 0 min 0 W/m² -16,6 °C -14,8 °C 0,0 km/h (0 Bft)
11.01.2026 23:04 22,6 °C -14,8 °C 45 % 86 % 1024,4 hPa 0,0 l/m² 0,0 km/h (0 Bft) O 86 ° 0 min 0 W/m² -16,6 °C -14,8 °C 0,0 km/h (0 Bft)
11.01.2026 23:05 22,6 °C -14,8 °C 45 % 86 % 1024,3 hPa 0,0 l/m² 0,6 km/h (0 Bft) O 86 ° 0 min 0 W/m² -16,6 °C -14,8 °C 1,6 km/h (1 Bft)
11.01.2026 23:06 22,6 °C -14,8 °C 45 % 86 % 1024,3 hPa 0,0 l/m² 2,2 km/h (1 Bft) O 86 ° 0 min 0 W/m² -16,6 °C -14,8 °C 3,2 km/h (1 Bft)
11.01.2026 23:07 22,6 °C -14,7 °C 45 % 86 % 1024,3 hPa 0,0 l/m² 1,9 km/h (1 Bft) O 86 ° 0 min 0 W/m² -16,5 °C -14,7 °C 3,2 km/h (1 Bft)
11.01.2026 23:08 22,6 °C -14,7 °C 45 % 86 % 1024,2 hPa 0,0 l/m² 0,9 km/h (0 Bft) O 86 ° 0 min 0 W/m² -16,5 °C -14,7 °C 1,6 km/h (1 Bft)
11.01.2026 23:09 22,6 °C -14,7 °C 45 % 86 % 1024,2 hPa 0,0 l/m² 0,2 km/h (0 Bft) O 86 ° 0 min 0 W/m² -16,5 °C -14,7 °C 1,6 km/h (1 Bft)
11.01.2026 23:11 22,6 °C -14,7 °C 45 % 86 % 1024,2 hPa 0,0 l/m² 0,3 km/h (0 Bft) O 86 ° 0 min 0 W/m² -16,5 °C -14,7 °C 1,6 km/h (1 Bft)
11.01.2026 23:13 22,6 °C -14,7 °C 45 % 86 % 1024,2 hPa 0,0 l/m² 1,0 km/h (0 Bft) O 86 ° 0 min 0 W/m² -16,5 °C -14,7 °C 1,6 km/h (1 Bft)
11.01.2026 23:14 22,6 °C -14,7 °C 45 % 86 % 1024,2 hPa 0,0 l/m² 0,6 km/h (0 Bft) O 86 ° 0 min 0 W/m² -16,5 °C -14,7 °C 1,6 km/h (1 Bft)
11.01.2026 23:15 22,6 °C -14,7 °C 45 % 86 % 1024,2 hPa 0,0 l/m² 1,8 km/h (1 Bft) O 86 ° 0 min 0 W/m² -16,5 °C -14,7 °C 3,2 km/h (1 Bft)
11.01.2026 23:16 22,6 °C -14,7 °C 45 % 86 % 1024,2 hPa 0,0 l/m² 1,6 km/h (1 Bft) O 90 ° 0 min 0 W/m² -16,5 °C -14,7 °C 3,2 km/h (1 Bft)
11.01.2026 23:17 22,6 °C -14,7 °C 45 % 86 % 1024,3 hPa 0,0 l/m² 1,6 km/h (1 Bft) O 90 ° 0 min 0 W/m² -16,5 °C -14,7 °C 3,2 km/h (1 Bft)
11.01.2026 23:18 22,6 °C -14,7 °C 45 % 86 % 1024,2 hPa 0,0 l/m² 3,2 km/h (1 Bft) O 90 ° 0 min 0 W/m² -16,5 °C -14,7 °C 4,8 km/h (1 Bft)
11.01.2026 23:19 22,6 °C -14,8 °C 45 % 86 % 1024,2 hPa 0,0 l/m² 3,2 km/h (1 Bft) O 90 ° 0 min 0 W/m² -16,6 °C -14,8 °C 4,8 km/h (1 Bft)
11.01.2026 23:20 22,6 °C -14,8 °C 45 % 86 % 1024,2 hPa 0,0 l/m² 3,2 km/h (1 Bft) O 90 ° 0 min 0 W/m² -16,6 °C -14,8 °C 3,2 km/h (1 Bft)
11.01.2026 23:21 22,6 °C -14,8 °C 45 % 86 % 1024,2 hPa 0,0 l/m² 1,6 km/h (1 Bft) O 90 ° 0 min 0 W/m² -16,6 °C -14,8 °C 4,8 km/h (1 Bft)
11.01.2026 23:22 22,6 °C -14,8 °C 45 % 86 % 1024,2 hPa 0,0 l/m² 1,6 km/h (1 Bft) O 90 ° 0 min 0 W/m² -16,6 °C -14,8 °C 3,2 km/h (1 Bft)
11.01.2026 23:23 22,6 °C -14,8 °C 45 % 86 % 1024,2 hPa 0,0 l/m² 1,6 km/h (1 Bft) O 90 ° 0 min 0 W/m² -16,6 °C -14,8 °C 3,2 km/h (1 Bft)
11.01.2026 23:24 22,5 °C -14,8 °C 45 % 86 % 1024,2 hPa 0,0 l/m² 1,6 km/h (1 Bft) O 90 ° 0 min 0 W/m² -16,6 °C -14,8 °C 3,2 km/h (1 Bft)
11.01.2026 23:25 22,5 °C -14,8 °C 45 % 86 % 1024,3 hPa 0,0 l/m² 1,6 km/h (1 Bft) O 90 ° 0 min 0 W/m² -16,6 °C -14,8 °C 3,2 km/h (1 Bft)
11.01.2026 23:26 22,5 °C -14,8 °C 45 % 86 % 1024,2 hPa 0,0 l/m² 1,6 km/h (1 Bft) O 90 ° 0 min 0 W/m² -16,6 °C -14,8 °C 3,2 km/h (1 Bft)
11.01.2026 23:27 22,4 °C -14,8 °C 45 % 86 % 1024,2 hPa 0,0 l/m² 0,0 km/h (0 Bft) O 90 ° 0 min 0 W/m² -16,6 °C -14,8 °C 1,6 km/h (1 Bft)
11.01.2026 23:28 22,5 °C -14,9 °C 45 % 86 % 1024,2 hPa 0,0 l/m² 0,0 km/h (0 Bft) O 90 ° 0 min 0 W/m² -16,7 °C -14,9 °C 1,6 km/h (1 Bft)
11.01.2026 23:29 22,5 °C -14,9 °C 45 % 86 % 1024,2 hPa 0,0 l/m² 0,0 km/h (0 Bft) N 0 ° 0 min 0 W/m² -16,7 °C -14,9 °C 0,0 km/h (0 Bft)
11.01.2026 23:30 22,4 °C -14,9 °C 45 % 86 % 1024,2 hPa 0,0 l/m² 0,0 km/h (0 Bft) N 0 ° 0 min 0 W/m² -16,7 °C -14,9 °C 0,0 km/h (0 Bft)
11.01.2026 23:31 22,4 °C -14,8 °C 45 % 86 % 1024,2 hPa 0,0 l/m² 1,6 km/h (1 Bft) O 90 ° 0 min 0 W/m² -16,6 °C -14,8 °C 1,6 km/h (1 Bft)
11.01.2026 23:32 22,4 °C -14,8 °C 45 % 86 % 1024,2 hPa 0,0 l/m² 1,6 km/h (1 Bft) O 90 ° 0 min 0 W/m² -16,6 °C -14,8 °C 1,6 km/h (1 Bft)
11.01.2026 23:33 22,4 °C -14,8 °C 45 % 86 % 1024,1 hPa 0,0 l/m² 1,6 km/h (1 Bft) O 90 ° 0 min 0 W/m² -16,6 °C -14,8 °C 1,6 km/h (1 Bft)
11.01.2026 23:34 22,4 °C -14,8 °C 45 % 86 % 1024,2 hPa 0,0 l/m² 1,6 km/h (1 Bft) O 90 ° 0 min 0 W/m² -16,6 °C -14,8 °C 1,6 km/h (1 Bft)
11.01.2026 23:35 22,4 °C -14,8 °C 45 % 86 % 1024,1 hPa 0,0 l/m² 1,6 km/h (1 Bft) O 90 ° 0 min 0 W/m² -16,6 °C -14,8 °C 3,2 km/h (1 Bft)
11.01.2026 23:36 22,4 °C -14,8 °C 45 % 86 % 1024,1 hPa 0,0 l/m² 0,0 km/h (0 Bft) O 90 ° 0 min 0 W/m² -16,6 °C -14,8 °C 1,6 km/h (1 Bft)
11.01.2026 23:37 22,4 °C -14,8 °C 45 % 86 % 1024,1 hPa 0,0 l/m² 1,6 km/h (1 Bft) O 90 ° 0 min 0 W/m² -16,6 °C -14,8 °C 1,6 km/h (1 Bft)
11.01.2026 23:38 22,4 °C -14,8 °C 45 % 86 % 1024,1 hPa 0,0 l/m² 0,0 km/h (0 Bft) O 90 ° 0 min 0 W/m² -16,6 °C -14,8 °C 1,6 km/h (1 Bft)
11.01.2026 23:39 22,4 °C -14,8 °C 45 % 86 % 1024,1 hPa 0,0 l/m² 1,6 km/h (1 Bft) O 90 ° 0 min 0 W/m² -16,6 °C -14,8 °C 3,2 km/h (1 Bft)
11.01.2026 23:40 22,4 °C -14,8 °C 45 % 86 % 1024,1 hPa 0,0 l/m² 0,0 km/h (0 Bft) O 90 ° 0 min 0 W/m² -16,6 °C -14,8 °C 1,6 km/h (1 Bft)
11.01.2026 23:41 22,4 °C -14,8 °C 45 % 86 % 1024,1 hPa 0,0 l/m² 0,0 km/h (0 Bft) N 0 ° 0 min 0 W/m² -16,6 °C -14,8 °C 0,0 km/h (0 Bft)
11.01.2026 23:42 22,4 °C -14,8 °C 45 % 86 % 1024,0 hPa 0,0 l/m² 0,0 km/h (0 Bft) N 0 ° 0 min 0 W/m² -16,6 °C -14,8 °C 0,0 km/h (0 Bft)
11.01.2026 23:43 22,4 °C -14,9 °C 45 % 86 % 1024,1 hPa 0,0 l/m² 0,0 km/h (0 Bft) N 0 ° 0 min 0 W/m² -16,7 °C -14,9 °C 0,0 km/h (0 Bft)
11.01.2026 23:44 22,4 °C -14,8 °C 45 % 86 % 1024,1 hPa 0,0 l/m² 0,0 km/h (0 Bft) N 0 ° 0 min 0 W/m² -16,6 °C -14,8 °C 0,0 km/h (0 Bft)
11.01.2026 23:45 22,4 °C -14,9 °C 45 % 86 % 1024,1 hPa 0,0 l/m² 0,0 km/h (0 Bft) O 90 ° 0 min 0 W/m² -16,7 °C -14,9 °C 1,6 km/h (1 Bft)
11.01.2026 23:46 22,3 °C -14,9 °C 45 % 86 % 1024,0 hPa 0,0 l/m² 0,0 km/h (0 Bft) N 0 ° 0 min 0 W/m² -16,7 °C -14,9 °C 0,0 km/h (0 Bft)
11.01.2026 23:47 22,3 °C -14,9 °C 45 % 86 % 1024,0 hPa 0,0 l/m² 0,0 km/h (0 Bft) N 0 ° 0 min 0 W/m² -16,7 °C -14,9 °C 0,0 km/h (0 Bft)
11.01.2026 23:48 22,3 °C -14,9 °C 45 % 86 % 1024,0 hPa 0,0 l/m² 0,0 km/h (0 Bft) N 0 ° 0 min 0 W/m² -16,7 °C -14,9 °C 0,0 km/h (0 Bft)
11.01.2026 23:49 22,3 °C -14,9 °C 45 % 86 % 1024,1 hPa 0,0 l/m² 0,0 km/h (0 Bft) N 0 ° 0 min 0 W/m² -16,7 °C -14,9 °C 0,0 km/h (0 Bft)
11.01.2026 23:50 22,3 °C -14,9 °C 45 % 86 % 1024,0 hPa 0,0 l/m² 0,0 km/h (0 Bft) O 90 ° 0 min 0 W/m² -16,7 °C -14,9 °C 1,6 km/h (1 Bft)
11.01.2026 23:51 22,3 °C -14,9 °C 45 % 86 % 1024,0 hPa 0,0 l/m² 1,6 km/h (1 Bft) O 90 ° 0 min 0 W/m² -16,7 °C -14,9 °C 3,2 km/h (1 Bft)
11.01.2026 23:52 22,3 °C -14,9 °C 45 % 86 % 1023,9 hPa 0,0 l/m² 1,6 km/h (1 Bft) O 90 ° 0 min 0 W/m² -16,7 °C -14,9 °C 3,2 km/h (1 Bft)
11.01.2026 23:53 22,3 °C -14,9 °C 45 % 86 % 1023,9 hPa 0,0 l/m² 1,6 km/h (1 Bft) O 90 ° 0 min 0 W/m² -16,7 °C -14,9 °C 3,2 km/h (1 Bft)
11.01.2026 23:54 22,3 °C -14,9 °C 45 % 86 % 1023,8 hPa 0,0 l/m² 1,6 km/h (1 Bft) O 90 ° 0 min 0 W/m² -16,7 °C -14,9 °C 3,2 km/h (1 Bft)
11.01.2026 23:55 22,3 °C -15,0 °C 45 % 86 % 1023,8 hPa 0,0 l/m² 1,6 km/h (1 Bft) O 90 ° 0 min 0 W/m² -16,8 °C -15,0 °C 3,2 km/h (1 Bft)
11.01.2026 23:56 22,3 °C -14,9 °C 45 % 86 % 1023,8 hPa 0,0 l/m² 1,6 km/h (1 Bft) O 90 ° 0 min 0 W/m² -16,7 °C -14,9 °C 3,2 km/h (1 Bft)
11.01.2026 23:57 22,3 °C -15,0 °C 45 % 86 % 1023,8 hPa 0,0 l/m² 1,6 km/h (1 Bft) O 90 ° 0 min 0 W/m² -16,8 °C -15,0 °C 3,2 km/h (1 Bft)
11.01.2026 23:58 22,3 °C -15,0 °C 45 % 86 % 1023,9 hPa 0,0 l/m² 0,0 km/h (0 Bft) O 90 ° 0 min 0 W/m² -16,8 °C -15,0 °C 1,6 km/h (1 Bft)
11.01.2026 23:59 22,3 °C -15,0 °C 45 % 86 % 1023,8 hPa 0,0 l/m² 0,0 km/h (0 Bft) O 90 ° 0 min 0 W/m² -16,8 °C -15,0 °C 1,6 km/h (1 Bft)
_ Min-Zeit 08:03 23:59 18:01 13:27 00:02 - 23:59 - - - - 22:43 23:59 23:49
Minimum _ 22,1 °C -15,0 °C 40 % 68 % 1020,5 hPa - 0,0 km/h (0 Bft) - - - - -16,9 °C -15,0 °C 0,0 km/h (0 Bft)
_ Max-Zeit 12:53 13:36 22:56 10:01 11:03 12:51 03:33 - - 12:06 12:37 13:36 13:35 02:59
Maximum _ 23,7 °C -2,1 °C 46 % 90 % 1026,2 hPa 0,2 l/m² 14,6 km/h
W-NW (3 Bft)
- - 5 min 343 W/m² -7,0 °C -2,1 °C 25,7 km/h
NW (4 Bft)
Durchschnitt _ 22,6 °C -8,6 °C 44 % 83 % 1024,5 hPa #0,2 l/m² 3,1 km/h (1 Bft) S-SW - #6:36 h 70 W/m² -11,0 °C -9,3 °C 5,3 km/h (1 Bft)
© 2009 Mathias Hoßbach